     2              OBSERVATION DATA    GPS                 RINEX VERSION / TYPE
teqc 1997Jul24 19970902 21:04:57UTC                         PGM / RUN BY / DATE
                                                            COMMENT
BIT 2 OF LLI FLAGS DATA COLLECTED UNDER A-S CONDITION       COMMENT
BIT 2 OF LLI FLAGS DATA COLLECTED UNDER A-S CONDITION       COMMENT
Original Marker Name: MONU.55474                            COMMENT
Campaign Name: Salt. Tr. Crust. Monit. May-Jun 1986         COMMENT
4-Character Station Name: MONU                              COMMENT
6-Character Antenna Code: TI4100                            COMMENT
Vertical Measurement Point: PAE                             COMMENT
Vertical Offset to Rinex Ref. Point: 0.0000                 COMMENT
Radial Measurement Point: RRP                               COMMENT
Radial Offset to Rinex Ref. Point: 0.0000                   COMMENT
Antenna Height from Field Measurement: 1.4895 m             COMMENT
Original XYZ: -2386234.1780 -4802246.3114 3444823.7782      COMMENT
New XYZ position is based on association with SCEC monument COMMENT
E1C8W5H0+0011. Position of that monument is believed to be  COMMENT
valid to within 1 m horizontally; vertical accuracy         COMMENT
should be no worse than 3-times this value.                 COMMENT
                                                            COMMENT
Revised Rinex header created by UCSD GPS archive for        COMMENT
GSAC on 10-Apr-1999 (1999:100) 06:32:11 GMT                 COMMENT
For assistance contact dagnew@ucsd.edu or hjohnson@ucsd.edu COMMENT
                                                            COMMENT
MONUMENT PEAK NCMN 1983                                     MARKER NAME
05 NATIONAL GEODETIC SURVEY                                 OBSERVER / AGENCY
UT-33 TI 4100 1.0                                           REC # / TYPE / VERS
4091 TI 4100                                                ANT # / TYPE
 -2386290.0000 -4802346.0000  3444884.0000                  APPROX POSITION XYZ
        1.4895        0.0000        0.0000                  ANTENNA: DELTA H/E/N
     1     1     0                                          WAVELENGTH FACT L1/2
     4    P1    P2    L1    L2                              # / TYPES OF OBSERV
     6                                                      INTERVAL
  1986     6    20     0    26   23.000000                  TIME OF FIRST OBS
  1986     6    20     2     0   41.000000                  TIME OF LAST OBS
     0                                                      # OF SATELLITES
                                                            END OF HEADER
 86  6 20  0 26 23.0800000  0  4G 6G 8G 9G11
  20597366.960    20597370.695    12950176.415 9 -14763076.280 8
                  24137868.660     2205350.289 1
  20657142.156    20657144.958      818323.103 9  -1631890.382 8
  20916135.066    20916136.820    31454814.606 9 -40794655.677 8
 86  6 20  0 26 29.0800000  0  4G 6G 8G 9G11
  20598461.655    20598465.403    12955930.593 9 -14758592.505 8
  24142066.110    24142124.477     2227420.410 1   -787207.688 1
  20654965.699    20654968.046      806888.703 9  -1640800.299 8
  20917784.447    20917787.714    31463484.544 9 -40787899.882 7
 86  6 20  0 26 35.0800000  0  4G 6G 8G 9G11
  20599561.716    20599564.522    12961705.908 9 -14754092.266 8
                  24148358.533      -59384.996 3
  20652793.413    20652795.489      795470.102 9  -1649697.903 9
  20919438.028    20919440.404    31472171.845 9 -40781130.562 7
 86  6 20  0 26 41.0800000  0  4G 6G 8G 9G11
  20600664.054    20600668.503    12967502.282 9 -14749575.619 8
                  24151084.483      -37521.752 1
  20650622.909    20650625.318      784067.354 9  -1658583.158 8
  20921094.348    20921096.052    31480876.424 9 -40774347.770 7
 86  6 20  0 26 47.0800000  0  4G 6G 8G 9G11
  20601771.328    20601774.606    12973319.768 9 -14745042.518 8
                  24155519.919     -141101.074 1
  20648455.074    20648457.936      772680.430 9  -1667456.084 8
                  20922755.066                   -40767551.462 7
 86  6 20  0 26 53.0800000  0  4G 6G 8G 9G11
  20602882.666    20602886.113    12979158.373 9 -14740492.972 9
                  24165392.232     -118612.748 1
  20646291.526    20646293.868      761309.466 9  -1676316.564 9
  20924419.122    20924418.865    31453007.692 1 -40760741.550 7
 86  6 20  0 26 59.0800000  0  4G 6G 8G 9G11
  20603997.737    20604000.457    12985018.145 9 -14735926.904 8
                  24176908.878      -96118.256 1
  20644130.746    20644133.092      749954.311 9  -1685164.741 9
  20926081.346    20926086.977    31461764.195 8 -40753918.354 7
 86  6 20  0 27  5.0800000  0  4G 6G 8G 9G11
  20605116.430    20605119.463    12990899.061 9 -14731344.385 8
                  24189012.680      -73617.599 1
  20641973.525    20641975.932      738615.211 9  -1694000.405 8
  20927751.361    20927755.280    31470538.007 9 -40747081.613 7
 86  6 20  0 27 11.0800000  0  4G 6G 8G 9G11
  20606240.088    20606242.506    12996801.145 9 -14726745.356 8
                  24200588.988      -51110.777 1
  20639818.456    20639821.046      727292.086 9  -1702823.615 9
  20929423.955    20929428.461    31479329.100 9 -40740231.403 8
 86  6 20  0 27 17.0800000  0  4G 6G 8G 9G11
  20607367.380    20607370.755    13002724.358 9 -14722129.876 8
                  24212107.108      -28597.789 1
  20637666.786    20637669.230      715984.903 9  -1711634.393 8
  20931100.163    20931105.436    31488137.419 9 -40733367.784 7
 86  6 20  0 27 23.0800000  0  4G 6G 8G 9G11
  20608498.164    20608499.780    13008668.727 9 -14717497.889 8
                  24223951.456       -6078.635 1
  20635517.542    20635519.960      704693.820 9  -1720432.647 9
  20932779.371    20932785.194    31496962.914 9 -40726490.757 7
 86  6 20  0 27 29.0800000  0  4G 6G 8G 9G11
  20609634.113    20609636.331    13014634.221 9 -14712849.469 8
                  24235649.278       16446.684 1
  20633372.472    20633374.461      693418.670 9  -1729218.473 8
  20934461.925    20934467.531    31505805.621 9 -40719600.344 8
 86  6 20  0 27 35.0800000  0  4G 6G 8G 9G11
  20610773.110    20610775.657    13020620.901 9 -14708184.526 8
                  24247171.268       38978.168 1
  20631229.699    20631232.300      682159.604 9  -1737991.765 8
  20936148.340    20936153.012    31514665.510 8 -40712696.525 7
 86  6 20  0 27 41.0800000  0  4G 6G 8G 9G11
  20611917.201    20611918.475    13026628.713 9 -14703503.123 8
                  24258841.652       61515.818 1
  20629089.796    20629092.700      670916.512 9  -1746752.623 8
  20937837.362    20937844.251    31523542.496 8 -40705779.383 8
 86  6 20  0 27 47.0800000  0  4G 6G 8G 9G11
  20613064.484    20613064.812    13032657.718 8 -14698805.197 8
                  24270924.735       84059.633 1
  20626954.302    20626955.860      659689.652 9  -1755500.814 7
  20939530.100    20939535.182    31532436.645 9 -40698848.908 7
 86  6 20  0 27 53.0800000  0  4G 6G 8G 9G11
  20614214.942    20614216.674    13038707.924 9 -14694090.753 8
                  24283242.259      106609.614 1
  20624820.944    20624822.547      648478.789 9  -1764236.548 8
  20941226.197    20941229.373    31541347.889 8 -40691905.061 7
 86  6 20  0 27 59.0800000  0  4G 6G 8G 9G11
  20615371.082    20615371.769    13044779.262 9 -14689359.844 8
                  24294739.237      129165.760 1
  20622690.366    20622693.368      637284.169 9  -1772959.621 9
  20942923.589    20942928.990    31550276.264 8 -40684947.889 7
 86  6 20  0 28  5.0800000  0  4G 6G 8G 9G11
  20616530.427    20616531.816    13050871.816 9 -14684612.400 8
                  24306093.044      151728.072 1
  20620563.734    20620565.372      626105.699 9  -1781670.116 8
  20944628.540    20944632.124    31559221.730 9 -40677977.402 7
 86  6 20  0 28 11.0800000  0  4G 6G 8G 9G11
  20617693.821    20617695.437    13056985.623 9 -14679848.395 8
                  24317682.231      174296.549 1
                  20618438.843      614942.441 9
  20946333.326    20946337.836    31568184.294 9 -40670993.587 8
 86  6 20  0 28 17.0800000  0  4G 6G 8G 9G11
  20618860.950    20618863.440    13063120.550 9 -14675067.936 9
                  24329183.502      196871.192 1
  20616318.686    20616304.034      603796.364 9  -1716529.879 8
  20948041.439    20948045.986    31577163.870 8 -40663996.512 8
 86  6 20  0 28 23.0800000  0  4G 6G 8G 9G11
  20620032.931    20620034.504    13069276.736 9 -14670270.911 8
                  24341007.637      219452.001 1
  20614200.546    20614202.596      592666.562 9  -1725202.300 8
  20949753.188    20949757.834    31586160.468 8 -40656986.173 8
 86  6 20  0 28 29.0800000  0  4G 6G 8G 9G11
  20621208.029    20621209.174    13075454.106 9 -14665457.372 8
                  24352425.285      242038.974 1
  20612085.713    20612087.472      581553.053 9  -1733862.663 8
  20951468.820    20951472.583    31595174.098 8 -40649962.582 8
 86  6 20  0 28 35.0800000  0  4G 6G 8G 9G11
  20622387.980    20622389.598    13081652.721 9 -14660627.296 7
                  24364106.680      264632.113 1
  20609973.432    20609975.676      570455.757 9  -1742509.905 8
  20953187.254    20953191.900    31604204.723 9 -40642925.725 7
 86  6 20  0 28 41.0800000  0  4G 6G 8G 9G11
  20623571.593    20623573.882    13087872.492 9 -14655780.714 8
                  24375729.465      287231.418 1
  20607865.417    20607867.451      559374.854 9  -1751144.367 8
  20954908.482    20954912.841    31613252.314 9 -40635875.649 8
 86  6 20  0 28 47.0800000  0  4G 6G 8G 9G11
  20624759.227    20624761.775    13094113.471 9 -14650917.627 7
                  24386650.905      309836.888 1
  20605759.914    20605761.901      548310.246 9  -1759766.130 8
  20956633.400    20956637.782    31622316.860 9 -40628812.369 8
 86  6 20  0 28 53.0800000  0  4G 6G 8G 9G11
  20625950.896    20625952.699    13100375.681 9 -14646037.987 8
                  24398043.541      332448.524 1
  20603657.955    20603659.805      537261.936 9  -1768375.193 8
  20958361.561    20958364.956    31631398.339 9 -40621735.898 8
 86  6 20  0 28 59.0800000  0  4G 6G 8G 9G11
  20627146.744    20627149.091    13106659.080 9 -14641141.841 8
                  24409699.923      355066.325 1
  20601558.535    20601561.532      526229.997 9  -1776971.506 8
  20960093.213    20960097.166    31640496.711 8 -40614646.263 7
 86  6 20  0 29  5.0800000  0  4G 6G 8G 9G11
  20628345.968    20628348.315    13112963.692 9 -14636229.158 8
                  24421121.864      377690.291 1
  20599461.777    20599464.077      515214.472 9  -1785555.036 8
  20961828.298    20961830.709    31649611.932 9 -40607543.490 9
 86  6 20  0 29 11.0800000  0  4G 6G 8G 9G11
  20629550.244    20629550.888    13119289.508 9 -14631299.943 8
                  24432430.010      400320.423 1
  20597368.554    20597371.300      504215.393 9  -1794125.748 8
  20963565.721    20963569.214    31658743.984 9 -40600427.608 7
 86  6 20  0 29 17.0800000  0  4G 6G 8G 9G11
  20630757.439    20630759.357    13125636.562 9 -14626354.190 9
                  24443592.497      422956.721 1
  20595278.996    20595281.245      493232.668 9  -1802683.700 7
  20965306.988    20965311.312    31667892.892 9 -40593298.580 8
 86  6 20  0 29 23.0800000  0  4G 6G 8G 9G11
  20631969.813    20631971.173    13132004.854 9 -14621391.886 8
                  24455135.951      445599.184 1
  20593192.454    20593194.397      482266.440 9  -1811228.815 9
  20967052.586    20967056.290    31677058.644 9 -40586156.449 7
 86  6 20  0 29 29.0800000  0  4G 6G 8G 9G11
  20633184.964    20633187.482    13138394.346 9 -14616413.062 8
                  24466826.554      468247.812 1
  20591108.954    20591111.154      471316.769 9  -1819761.024 8
  20968799.736    20968800.905    31686241.235 9 -40579001.187 6
 86  6 20  0 29 35.0800000  0  4G 6G 8G 9G11
  20634405.023    20634405.997    13144805.153 9 -14611417.638 8
                  24478315.690      490902.606 1
  20589028.151    20589030.361      460383.473 9  -1828280.469 7
  20970550.719    20970552.054    31695440.608 8 -40571832.834 7
 86  6 20  0 29 41.0800000  0  4G 6G 8G 9G11
  20635629.890    20635629.919    13151237.074 9 -14606405.746 9
                  24490156.490      513563.566 1
  20586950.949    20586952.809      449466.644 9  -1836787.083 8
  20972303.860    20972306.479    31704656.714 9 -40564651.452 8
 86  6 20  0 29 47.0800000  0  4G 6G 8G 9G11
  20636858.062    20636858.648    13157690.255 9 -14601377.287 6
                  24501616.321      536230.691 1
  20584876.549    20584878.015      438566.443 9  -1845280.747 8
  20974060.914    20974064.564    31713889.611 9 -40557456.985 6
 86  6 20  0 29 53.0800000  0  4G 6G 8G 9G11
  20638089.668    20638089.927    13164164.723 9 -14596332.259 7
                  24513019.609      558903.981 1
  20582805.586    20582806.775      427682.848 8  -1853761.481 8
  20975820.830    20975823.180    31723139.303 9 -40550249.433 7
 86  6 20  0 29 59.0800000  0  4G 6G 8G 9G11
  20639325.266    20639327.214    13170660.459 9 -14591270.651 7
                  24524454.428      581583.437 1
  20580737.375    20580738.923      416815.736 9  -1862229.351 8
  20977585.120    20977584.775    31732405.726 9 -40543028.845 7
 86  6 20  0 30  5.0800000  0  4G 6G 8G 9G11
  20640565.830    20640566.647    13177177.416 9 -14586192.510 7
                  24536328.825      604269.058 1
  20578672.522    20578673.800      405965.353 9  -1870684.195 9
  20979351.119    20979352.886    31741688.841 9 -40535795.243 8
 86  6 20  0 30 11.0800000  0  4G 6G 8G 9G11
  20641810.129    20641810.686    13183715.552 9 -14581097.861 7
                  24547617.118      626960.845 1
  20576611.018    20576612.089      395131.450 9  -1879126.190 8
  20981119.660    20981122.912    31750988.510 9 -40528548.754 7
 86  6 20  0 30 17.0800000  0  4G 6G 8G 9G11
  20643058.119    20643059.050    13190274.912 9 -14575986.676 7
                  24559260.629      649658.797 1
  20574552.011    20574554.683      384314.194 9  -1887555.223 9
  20982893.960    20982896.189    31760304.826 9 -40521289.272 7
 86  6 20  0 30 23.0800000  0  4G 6G 8G 9G11
  20644309.644    20644310.503    13196855.542 9 -14570858.914 7
                  24571022.099      672362.915 1
  20572497.518    20572499.487      373513.648 9  -1895971.241 8
  20984668.454    20984671.461    31769637.763 8 -40514016.849 7
 86  6 20  0 30 29.0800000  0  4G 6G 8G 9G11
  20645566.406    20645566.992    13203457.437 9 -14565714.583 7
                  24582783.568      695073.198 1
  20570444.958    20570447.279      362729.788 9  -1904374.239 9
  20986448.056    20986449.077    31778987.349 9 -40506731.463 7
 86  6 20  0 30 35.0800000  0  4G 6G 8G 9G11
  20646826.445    20646827.661    13210080.598 9 -14560553.683 7
                  24594164.777      717789.647 1
  20568395.821    20568399.329      351962.645 6  -1912764.217 8
  20988230.730    20988231.972    31788353.479 8 -40499433.185 6
 86  6 20  0 30 41.0800000  0  4G 6G 8G 9G11
  20648091.377    20648092.393    13216724.997 9 -14555376.239 7
                  24605901.233      740512.261 1
  20566350.007    20566353.232      341212.181 8  -1921141.216 7
  20990015.430    20990017.333    31797736.157 8 -40492122.005 8
 86  6 20  0 30 47.0800000  0  4G 6G 8G 9G11
  20649359.672    20649360.360    13223390.702 9 -14550182.181 8
                  24617286.027      763241.040 1
  20564306.891    20564310.311      330478.577 9  -1929505.049 9
  20991803.277    20991806.021    31807135.482 9 -40484797.864 7
 86  6 20  0 30 53.0800000  0  4G 6G 8G 9G11
  20650632.059    20650633.247    13230077.659 9 -14544971.561 7
                  24628788.042      785975.985 1
  20562268.224    20562270.952      319761.699 9  -1937855.857 8
  20993595.990    20993597.776    31816551.358 8 -40477460.810 7
 86  6 20  0 30 59.0800000  0  4G 6G 8G 9G11
  20651909.369    20651909.942    13236785.914 9 -14539744.357 7
                  24640292.239      808717.096 1
  20560232.673    20560235.727      309061.700 9  -1946193.525 9
  20995391.299    20995394.472    31825983.791 8 -40470110.868 7
 86  6 20  0 31  5.0800000  0  4G 6G 8G 9G11
  20653189.713    20653190.642    13243515.401 9 -14534500.601 7
                  24370175.329      831464.372 1
  20558198.199    20558201.725      298378.413 9  -1954518.150 8
  20997190.187    20997191.432    31835432.717 9 -40462748.081 7
 86  6 20  0 31 11.0800000  0  3G 6G 9G11
  20654473.991    20654474.635    13250266.157 9 -14529240.274 8
  20556168.597    20556172.854      287711.997 9  -1962829.654 8
  20998990.860    20998991.936    31844898.093 9 -40455372.466 7
 86  6 20  0 31 17.0800000  0  3G 6G 9G11
  20655763.106    20655763.520    13257038.205 9 -14523963.351 8
  20554141.435    20554145.928      277062.570 9  -1971127.907 8
  21000794.924    21000797.857    31854379.975 8 -40447983.984 7
 86  6 20  0 31 23.0800000  0  3G 6G 9G11
  20657055.856    20657057.044    13263831.557 9 -14518669.832 8
  20552118.663    20552121.900      266429.951 9  -1979413.061 8
  21002602.567    21002604.475    31863878.358 9 -40440582.650 7
 86  6 20  0 31 29.0800000  0  3G 6G 9G11
  20658353.084    20658352.512    13270646.164 9 -14513359.757 7
  20550098.266    20550101.770      255814.266 9  -1987685.020 8
  21004413.395    21004415.193    31873393.189 9 -40433168.497 8
 86  6 20  0 31 35.0800000  0  3G 6G 9G11
  20659653.861    20659653.960    13277482.050 9 -14508033.093 8
  20548082.311    20548085.130      245215.606 9  -1995943.727 8
  21006227.250    21006228.114    31882924.418 9 -40425741.558 7
 86  6 20  0 31 41.0800000  0  3G 6G 9G11
  20660958.874    20660959.216    13284339.293 9 -14502689.778 9
  20546068.303    20546070.978      234633.769 8  -2004189.304 9
  21008044.517    21008046.838    31892472.037 9 -40418301.871 8
 86  6 20  0 31 47.0800000  0  3G 6G 9G11
  20662268.364    20662267.878    13291217.817 9 -14497329.899 8
  20544057.436    20544060.973      224069.064 9  -2012421.542 8
  21009863.073    21009866.849    31902036.024 9 -40410849.423 7
 86  6 20  0 31 53.0800000  0  3G 6G 9G11
  20663581.246    20663581.977    13298117.534 9 -14491953.503 8
  20542050.875    20542053.191      213521.224 9  -2020640.642 7
  21011686.306    21011689.251    31911616.248 8 -40403384.311 7
 86  6 20  0 31 59.0800000  0  3G 6G 9G11
  20664897.378    20664899.137    13305038.537 9 -14486560.519 8
  20540045.667    20540049.849      202990.427 9  -2028846.465 9
  21013512.771    21013514.702    31921212.779 9 -40395906.483 7
 86  6 20  0 32  5.0800000  0  3G 6G 9G11
  20666218.789    20666219.589    13311980.861 9 -14481150.919 8
  20538045.593    20538050.442      192476.708 9  -2037038.960 8
  21015341.640    21015345.197    31930825.647 9 -40388415.945 8
 86  6 20  0 32 11.0800000  0  3G 6G 9G11
  20667543.906    20667544.621    13318944.482 9 -14475724.725 9
  20536047.864    20536051.245      181980.105 8  -2045218.140 8
  21017173.937    21017178.008    31940454.784 9 -40380912.722 7
 86  6 20  0 32 17.0800000  0  3G 6G 9G11
  20668873.043    20668873.458    13325929.437 9 -14470281.908 8
  20534054.691    20534058.238      171500.492 9  -2053384.070 7
                  21019013.127                   -40373396.791 5
 86  6 20  0 32 23.0800000  0  3G 6G 9G11
  20670205.686    20670208.190    13332935.648 9 -14464822.532 8
  20532063.269    20532065.942      161037.922 9  -2061536.716 8
  21020847.564    21020850.867    31913502.900 1 -40365868.214 8
 86  6 20  0 32 29.0800000  0  3G 6G 9G11
  20671542.164    20671544.898    13339963.189 9 -14459346.525 8
  20530075.053    20530078.380      150592.529 9  -2069675.995 8
  21022689.848    21022692.426    31923180.789 9 -40358327.001 7
 86  6 20  0 32 35.0800000  0  3G 6G 9G11
  20672884.767    20672886.927    13347012.031 9 -14453853.918 9
  20528091.978    20528094.314      140164.325 9  -2077801.867 8
  21024534.811    21024536.892    31932874.905 9 -40350773.163 9
 86  6 20  0 32 41.0800000  0  3G 6G 9G11
                  20674231.806                   -14448344.717 8
  20526111.206    20526113.558      129753.379 9  -2085914.287 8
  21026383.194    21026384.882    31942585.292 9 -40343206.618 8
 86  6 20  0 32 47.0800000  0  3G 6G 9G11
  20675579.145    20675582.035    13317518.710 1 -14442818.893 8
  20524132.318    20524135.859      119359.504 9  -2094013.414 8
  21028235.447    21028236.706    31952311.891 9 -40335627.459 7
 86  6 20  0 32 53.0800000  0  3G 6G 9G11
  20676933.224    20676935.513    13324631.499 9 -14437276.440 8
  20522158.668    20522160.449      108982.948 9  -2102099.034 7
  21030087.360    21030090.040    31962054.584 9 -40328035.739 7
 86  6 20  0 32 59.0800000  0  3G 6G 9G11
  20678290.694    20678293.369    13331765.549 9 -14431717.446 8
  20520187.598    20520188.978       98623.588 9  -2110171.271 8
  21031945.366    21031947.955    31971813.436 9 -40320431.440 8
 86  6 20  0 33  5.0800000  0  3G 6G 9G11
  20679652.585    20679655.289    13338920.938 9 -14426141.832 8
  20518220.105    20518222.297       88281.488 9  -2118230.046 8
  21033805.847    21033808.410    31981588.382 9 -40312814.617 8
 86  6 20  0 33 11.0800000  0  3G 6G 9G11
  20681017.782    20681019.328    13346097.590 9 -14420549.635 8
  20516255.098    20516255.946       77956.621 9  -2126275.395 8
  21035669.296    21035670.481    31991379.379 9 -40305185.260 8
 86  6 20  0 33 17.0800000  0  3G 6G 9G11
  20682386.514    20682390.005    13353295.608 9 -14414940.811 9
  20514293.941    20514294.595       67649.185 9  -2134307.170 7
  21037534.861    21037536.994    32001186.448 9 -40297543.392 8
 86  6 20  0 33 23.0800000  0  3G 6G 9G11
  20683760.353    20683764.002    13360514.977 9 -14409315.334 9
  20512336.279    20512335.230       57359.042 9  -2142325.463 7
  21039404.716    21039406.561    32011009.560 9 -40289889.031 7
 86  6 20  0 33 29.0800000  0  3G 6G 9G11
  20685137.198    20685141.777    13367755.646 9 -14403673.266 9
  20510381.092    20510381.994       47086.184 9  -2150330.278 7
  21041276.886    21041278.288    32020848.700 9 -40282222.158 7
 86  6 20  0 33 35.0800000  0  3G 6G 9G11
  20686519.250    20686524.016    13375017.710 9 -14398014.520 8
  20508429.057    20508429.967       36830.828 9  -2158321.453 7
  21043151.672    21043153.139    32030703.853 9 -40274542.817 7
 86  6 20  0 33 41.0800000  0  3G 6G 9G11
  20687905.296    20687909.144    13382301.094 8 -14392339.154 9
  20506480.899    20506482.245       26592.818 9  -2166299.140 7
  21045030.817    21045031.951    32040575.097 9 -40266850.953 8
 86  6 20  0 33 47.0800000  0  3G 6G 9G11
  20689294.977    20689297.910    13389605.757 9 -14386647.216 7
  20504535.579    20504535.571       16372.174 9  -2174263.269 8
  21046911.503    21046914.307    32050462.213 9 -40259146.695 8
 86  6 20  0 33 53.0800000  0  3G 6G 9G11
  20690689.706    20690693.055    13396931.768 8 -14380938.646 9
  20502594.595    20502596.007        6169.040 9  -2182213.767 7
  21048796.002    21048797.117    32060365.360 9 -40251429.967 8
 86  6 20  0 33 59.0800000  0  3G 6G 9G11
  20692087.815    20692090.805    13404279.090 8 -14375213.458 8
  20500655.854    20500657.057       -4016.577 9  -2190150.606 8
  21050683.371    21050683.967    32070284.433 9 -40243700.803 8
 86  6 20  0 34  5.0800000  0  3G 6G 9G11
  20693489.185    20693493.535    13411647.833 8 -14369471.592 9
  20498721.106    20498721.665      -14184.800 9  -2198073.889 7
  21052574.126    21052576.696    32080219.327 9 -40235959.339 7
 86  6 20  0 34 11.0800000  0  3G 6G 9G11
  20694895.350    20694898.097    13419037.884 8 -14363713.100 8
                  20496789.906      -24335.435 9
  21054466.827    21054470.269    32090170.265 9 -40228205.359 8
 86  6 20  0 34 17.0800000  0  3G 6G 9G11
  20696306.035    20696309.928    13426449.248 8 -14357938.006 8
  20494861.159    20494861.462      -34468.511 9  -2159656.879 3
  21056364.072    21056366.469    32100137.063 9 -40220439.028 7
 86  6 20  0 34 23.0800000  0  3G 6G 9G11
  20697719.912    20697723.561    13433881.974 7 -14352146.272 8
  20492935.779    20492935.682      -44584.132 9  -2167539.178 8
  21058264.733    21058266.282    32110119.732 9 -40212660.318 7
 86  6 20  0 34 29.0800000  0  3G 6G 9G11
  20699138.382    20699143.490    13441336.031 9 -14346337.938 7
  20491013.653    20491014.246      -54682.097 8  -2175407.200 8
  21060166.310    21060168.711    32120118.280 8 -40204869.252 9
 86  6 20  0 34 35.0800000  0  3G 6G 9G11
  20700561.131    20700563.849    13448811.400 9 -14340512.973 7
  20489095.995    20489096.268      -64762.629 9  -2183262.157 7
  21062072.167    21062073.089    32130132.628 9 -40197065.859 8
 86  6 20  0 34 41.0800000  0  3G 6G 9G11
                  20701991.463                   -14334668.901 7
  20487181.236    20487182.309      -74825.404 9  -2191103.280 7
  21063980.901    21063984.163    32140162.804 9 -40189250.139 8
 86  6 20  0 34 47.0800000  0  3G 6G 9G11
  20703332.750    20703420.708    13402914.434 8 -14328810.228 7
  20485269.746    20485269.657      -84870.574 9  -2198930.682 7
  21065892.992    21065894.436    32150208.743 9 -40181422.147 8
 86  6 20  0 34 53.0800000  0  3G 6G 9G11
  20704853.515    20704855.319    13410453.996 8 -14322935.361 8
  20483361.264    20483361.139      -94898.101 9  -2206744.332 7
  21067807.025    21067809.421    32160270.353 9 -40173581.922 9
 86  6 20  0 34 59.0800000  0  3G 6G 9G11
  20706292.348    20706294.766    13418015.228 8 -14317043.871 7
  20481456.607    20481456.736     -104908.007 9  -2214544.254 7
  21069724.470    21069726.854    32170347.744 9 -40165729.421 8
 86  6 20  0 35  5.0800000  0  3G 6G 9G11
  20707736.245    20707736.417    13425597.275 9 -14311135.788 7
  20479554.478    20479554.573     -114900.198 9  -2222330.369 8
  21071645.548    21071647.870    32180440.904 8 -40157864.623 8
 86  6 20  0 35 11.0800000  0  3G 6G 9G11
  20709181.645    20709183.133    13433200.692 8 -14305211.047 8
  20477657.269    20477657.677     -124874.629 9  -2230102.658 6
  21073568.481    21073570.970    32190549.780 9 -40149987.579 8
 86  6 20  0 35 17.0800000  0  3G 6G 9G11
  20710633.971    20710635.601    13440825.430 9 -14299269.682 7
  20475762.642    20475762.757     -134831.374 9  -2237861.156 7
  21075495.500    21075499.467    32200674.304 9 -40142098.345 8
 86  6 20  0 35 23.0800000  0  3G 6G 9G11
  20712087.009    20712089.753    13448471.533 8 -14293311.685 8
  20473865.848    20473874.691     -144770.348 1  -2245605.820 1
  21077425.245    21077428.845    32210814.495 9 -40134196.898 8
 86  6 20  0 35 29.0800000  0  3G 6G 9G11
  20713547.972    20713549.195    13456138.982 8 -14287337.038 7
                  20471892.113                    -2253800.684 1
  21079357.418    21079361.599    32220970.373 9 -40126283.223 8
 86  6 20  0 35 35.0800000  0  3G 6G 9G11
  20715010.770    20715013.332    13463827.790 8 -14281345.765 8
                  20844162.279                    -3308334.016 1
  21081293.887    21081296.302    32231141.873 5 -40118357.381 4
 86  6 20  0 35 41.0800000  0  3G 6G 9G11
  20716478.816    20716480.577    13471537.952 1 -14275337.845 1
                  20094015.987                    -3339734.376 1
  21083231.798    21083236.005    32241328.968 9 -40110419.381 6
 86  6 20  0 35 47.0800000  0  3G 6G 9G11
  20717948.986    20717951.742    13479269.451 7 -14269313.306 7
                  20841043.559                    -3371412.836 1
  21085172.764    21085177.573    32251531.597 6 -40102469.295 6
 86  6 20  0 35 53.0800000  0  3G 6G 9G11
  20719423.445    20719426.504    13487022.215 3 -14263272.192 3
                  20089051.349                    -3403127.033 1
  21087117.799    21087121.142    32261749.713 9 -40094507.117 8
 86  6 20  0 35 59.0800000  0  3G 6G 9G11
  20720903.405    20720907.071    13494796.325 8 -14257214.441 8
                  20836139.892                    -3434803.561 1
  21089065.747    21089068.940    32271983.384 8 -40086532.824 8
 86  6 20  0 36  5.0800000  0  3G 6G 9G11
  20722387.201    20722390.835    13502591.828 6 -14251140.036 6
                  20834411.839                    -3488011.993 1
  21091018.046    21091018.428    32282232.653 6 -40078546.414 7
 86  6 20  0 36 11.0800000  0  3G 6G 9G11
  20723876.337    20723877.359    13510408.694 1 -14245048.982 1
                  20083999.894                    -3521454.039 1
  21092969.205    21092971.742    32292497.357 9 -40070547.920 7
 86  6 20  0 36 17.0800000  0  3G 6G 9G11
  20725368.851    20725370.618    13518246.909 7 -14238941.279 8
                  20830798.243                    -3551732.724 1
  21094925.428    21094928.051    32302777.544 6 -40062537.385 6
 86  6 20  0 36 23.0800000  0  3G 6G 9G11
  20726863.548    20726864.597    13526106.481 1 -14232816.929 1
                  20078921.640                    -3584856.460 1
  21096884.558    21096887.524    32313073.277 9 -40054514.738 8
 86  6 20  0 36 29.0800000  0  3G 6G 9G11
  20728362.673    20728363.329    13533987.430 8 -14226675.944 8
                  20827768.010                    -3615659.959 1
  21098846.366    21098850.048    32323384.471 9 -40046480.032 8
 86  6 20  0 36 35.0800000  0  3G 6G 9G11
  20729867.287    20729870.534    13541889.697 5 -14220518.337 3
                  20824338.365                    -3669730.598 1
  21100812.279    21100815.220    32333711.072 9 -40038433.341 9
 86  6 20  0 36 41.0800000  0  3G 6G 9G11
  20731374.525    20731376.344    13549813.314 2 -14214344.082 1
                  20073667.422                    -3702639.360 1
  21102780.287    21102783.092    32344053.081 9 -40030374.633 5
 86  6 20  0 36 47.0800000  0  3G 6G 9G11
  20732887.252    20732888.423    13557758.321 6 -14208153.174 6
                  20822218.854                    -3734848.607 1
  21104751.306    21104753.639    32354410.475 5 -40022303.937 4
 86  6 20  0 36 53.0800000  0  3G 6G 9G11
  20734403.193    20734401.156    13565724.681 1 -14201945.617 1
                  20070139.414                    -3768292.491 1
  21106725.012    21106727.671    32364783.278 9 -40014221.235 7
 86  6 20  0 36 59.0800000  0  2G 6G11
  20735920.427    20735922.537    13573712.505 2 -14195721.373 1
  21108700.735    21108704.219    32375171.454 9 -40006126.554 7
 86  6 20  0 37  5.0800000  0  2G 6G11
  20737444.806    20737448.493    13581721.598 7 -14189480.512 6
  21110679.657    21110684.371    32385574.930 7 -39998019.950 6
 86  6 20  0 37 11.0800000  0  2G 6G11
  20738971.830    20738977.866    13589752.028 3 -14183223.042 1
  21112662.770    21112667.538    32395993.759 9 -39989901.374 8
 86  6 20  0 37 17.0800000  0  3G 6G 9G11
  20740505.791    20740509.304    13597803.862 1 -14176948.905 1
                  20438551.328    -3827924.158 9
  21114648.666    21114652.473    32406427.832 9 -39981770.942 8
 86  6 20  0 37 23.0800000  0  2G 6G11
  20742041.543    20742045.161    13605877.020 7 -14170658.126 5
  21116636.484    21116641.253    32416877.129 9 -39973628.640 8
 86  6 20  0 37 29.0800000  0  2G 6G11
  20743580.991    20743585.681    13613971.555 5 -14164350.712 5
  21118628.460    21118633.811    32427341.647 9 -39965474.479 8
 86  6 20  0 37 35.0800000  0  2G 6G11
  20745125.731    20745128.965    13622087.461 3 -14158026.613 2
  21120622.488    21120626.764    32437821.363 9 -39957308.453 8
 86  6 20  0 37 41.0800000  0  2G 6G11
  20746675.068    20746678.118    13630224.733 1 -14151685.916 1
  21122619.558    21122622.846    32448316.288 9 -39949130.599 8
 86  6 20  0 37 47.0800000  0  2G 6G11
  20748227.821    20748232.689    13638383.366 2 -14145328.542 1
  21124619.578    21124623.328    32458826.427 9 -39940940.878 8
 86  6 20  0 37 53.0800000  0  2G 6G11
  20749784.033    20749788.714    13646563.292 1 -14138954.577 1
  21126622.669    21126626.443    32469351.744 9 -39932739.334 8
 86  6 20  0 37 59.0800000  0  2G 6G11
  20751345.492    20751347.506    13654764.645 2 -14132563.919 1
                  21128632.276                   -39924525.983 8
 86  6 20  0 38  5.0800000  0  2G 6G11
  20752907.872    20752911.242    13662987.353 7 -14126156.616 6
  21130638.304    21130640.796    32443283.838 1 -39916300.817 6
 86  6 20  0 38 11.0800000  0  2G 6G11
  20754476.193    20754481.352    13671231.434 8 -14119732.642 7
  21132649.307    21132652.263    32453854.561 8 -39908063.912 8
 86  6 20  0 38 17.0800000  0  2G 6G11
  20756048.208    20756054.133    13679496.847 7 -14113292.084 7
  21134663.137    21134665.419    32464440.406 8 -39899815.203 8
 86  6 20  0 38 23.0800000  0  2G 6G11
  20757625.369    20757629.515    13687783.628 2 -14106834.854 1
  21136679.838    21136684.066    32475041.284 8 -39891554.772 8
 86  6 20  0 38 29.0800000  0  3G 6G 9G11
  20759205.588    20759212.554    13696091.808 2 -14100360.969 1
                  20416911.500    -4239565.916 9
  21138699.746    21138703.929    32485657.270 9 -39883282.584 8
 86  6 20  0 38 35.0800000  0  3G 6G 9G11
  20760792.011    20760796.452    13704421.371 1 -14093870.395 1
                  20415140.197    -4248925.196 8
  21140723.276    21140727.452    32496288.299 9 -39874998.670 8
 86  6 20  0 38 41.0800000  0  3G 6G 9G11
  20762381.156    20762384.527    13712772.278 2 -14087363.189 2
                  20413380.138    -4258266.182 8
  21142749.830    21142753.652    32506934.366 9 -39866703.050 8
 86  6 20  0 38 47.0800000  0  3G 6G 9G11
  20763974.470    20763979.520    13721144.504 1 -14080839.401 3
  20411606.454    20411608.801    -4267588.581 8   5633043.978 1
  21144778.372    21144782.887    32517595.377 9 -39858395.762 8
 86  6 20  0 38 53.0800000  0  3G 6G 9G11
  20765572.835    20765573.195    13729538.071 4 -14074298.953 2
  20409834.636    20409837.640    -4276892.383 9   5625794.236 7
  21146809.816    21146814.692    32528271.347 9 -39850076.830 8
 86  6 20  0 38 59.0800000  0  3G 6G 9G11
  20767174.021    20767177.412    13737953.026 1 -14067741.837 1
  20408067.449    20408070.926    -4286177.706 9   5618558.922 7
  21148844.974    21148848.404    32538962.315 9 -39841746.207 8
 86  6 20  0 39  5.0800000  0  3G 6G 9G11
                  20768780.656    13746389.325 3
  20406304.784    20406307.703    -4295444.477 9   5611338.053 7
  21150881.529    21150885.472    32549668.202 9 -39833403.959 9
 86  6 20  0 39 11.0800000  0  3G 6G 9G11
  20770393.060    20770391.073    13754846.969 2 -14015168.225 1
                  20404543.725    -4304692.736 8
  21152922.535    21152925.826    32560388.939 9 -39825050.146 9
 86  6 20  0 39 17.0800000  0  3G 6G 9G11
  20772002.994    20772006.615    13763325.887 2 -14008561.285 1
  20402787.929    20402791.124    -4313922.353 9   5650442.736 1
  21154964.568    21154968.138    32571124.490 9 -39816684.769 8
 86  6 20  0 39 23.0800000  0  3G 6G 9G11
                  20773622.392    13771826.199 3
  20401035.223    20401038.934    -4323133.331 9   5643265.334 7
  21157010.624    21157014.216    32581874.922 9 -39808307.803 9
 86  6 20  0 39 29.0800000  0  3G 6G 9G11
  20775243.053    20775245.306    13780347.829 8 -13955804.427 5
  20399287.541    20399290.435    -4332325.782 3   5636102.379 1
  21159058.500    21159063.042    32592640.237 9 -39799919.262 8
 86  6 20  0 39 35.0800000  0  3G 6G 9G11
  20776868.909    20776870.077    13788890.888 9 -13949147.513 7
  20397542.350    20397546.005    -4341499.541 1   5628954.010 1
  21161109.883    21161113.874    32603420.438 9 -39791519.102 9
 86  6 20  0 39 41.0800000  0  3G 6G 9G11
  20778499.069    20778500.884    13797455.302 9 -13942473.454 8
  20395793.227    20395801.921    -4350654.569 1   5621820.205 1
  21163164.668    21163168.699    32614215.433 9 -39783107.423 8
 86  6 20  0 39 47.0800000  0  3G 6G 9G11
  20780133.114    20780135.408    13806041.014 9 -13935783.296 9
  20394054.525    20394060.793    -4359790.385 1   5614701.506 1
  21165220.910    21165223.600    32625025.178 9 -39774684.242 8
 86  6 20  0 39 53.0800000  0  3G 6G 9G11
  20781771.448    20781773.022    13814648.095 9 -13929076.488 7
                  20391275.671                     5603281.831 1
                  21167285.968                   -39766259.088 7
 86  6 20  0 39 59.0800000  0  3G 6G 9G11
  20783413.464    20783413.464    13823276.519 1 -13922353.028 1
                  18437344.444                    -4889555.805 1
  21169282.344    21169348.296    32577372.638 9 -39757812.454 8
 86  6 20  0 40  5.0800000  0  3G 6G 9G11
  20785060.215    20785060.200    13831926.298 9 -13915612.943 8
                  18432397.160                    -4897939.755 1
  21171409.850    21171413.055    32588226.815 9 -39749354.837 8
 86  6 20  0 40 11.0800000  0  3G 6G 9G11
  20786709.355    20786711.001    13840597.407 9 -13908856.235 7
                  18433008.658                    -4964270.116 1
  21173477.227    21173481.935    32599095.488 9 -39740885.733 8
 86  6 20  0 40 17.0800000  0  3G 6G 9G11
  20788363.391    20788363.506    13849289.868 9 -13902082.891 7
                  18431192.177                    -4993667.194 1
  21175548.254    21175552.847    32609978.848 8 -39732405.198 8
 86  6 20  0 40 23.0800000  0  3G 6G 9G11
  20790022.196    20790024.179    13858003.685 9 -13895292.898 7
                  18429675.001                    -5023730.721 1
  21177622.816    21177626.680    32620876.854 9 -39723913.249 8
 86  6 20  0 40 29.0800000  0  3G 6G 9G11
  20791684.171    20791684.178    13866738.879 9 -13888486.256 8
                  18427421.544                    -5054027.619 1
  21179698.920    21179704.459    32631789.476 9 -39715409.910 9
 86  6 20  0 40 35.0800000  0  3G 6G 9G11
  20793350.683    20793350.317    13875495.367 9 -13881663.018 8
                  18426581.720                    -5106141.591 1
  21181778.732    21181783.015    32642716.664 9 -39706895.216 7
 86  6 20  0 40 41.0800000  0  3G 6G 9G11
  20795020.091    20795020.532    13884273.232 9 -13874823.125 7
                  18424942.609                    -5136767.223 1
  21183860.419    21183864.996    32653658.501 9 -39698369.119 8
 86  6 20  0 40 47.0800000  0  3G 6G 9G11
  20796692.950    20796695.514    13893072.430 9 -13867966.617 7
                  18422865.590                    -5166504.564 1
  21185944.912    21185949.677    32664614.903 9 -39689831.658 8
 86  6 20  0 40 53.0800000  0  3G 6G 9G11
  20798371.704    20798373.301    13901892.961 9 -13861093.482 8
                  18420509.521                    -5217163.857 1
  21188032.307    21188037.755    32675585.933 9 -39681282.810 8
 86  6 20  0 40 59.0800000  0  3G 6G 9G11
  20800054.013    20800056.034    13910734.853 9 -13854203.708 8
                  18418782.494                    -5247454.335 1
  21190123.293    21190128.133    32686571.502 9 -39672722.636 9
 86  6 20  0 41  5.0800000  0  3G 6G 9G11
  20801740.240    20801743.357    13919598.003 9 -13847297.348 8
                  18417031.325                    -5276633.181 1
  21192216.657    21192220.476    32697571.513 9 -39664151.193 8
 86  6 20  0 41 11.0800000  0  3G 6G 9G11
  20803430.614    20803434.114    13928482.548 9 -13840374.340 8
                  18415099.941                    -5306916.717 1
  21194312.982    21194318.291    32708586.013 9 -39655568.474 8
 86  6 20  0 41 17.0800000  0  3G 6G 9G11
  20805126.179    20805128.786    13937388.478 9 -13833434.662 8
                  18414354.536                    -5358478.207 1
  21196411.111    21196415.701    32719615.058 9 -39646974.416 8
 86  6 20  0 41 23.0800000  0  3G 6G 9G11
  20806824.834    20806828.472    13946315.715 8 -13826478.377 8
                  18412569.883                    -5388772.052 1
  21198512.887    21198518.039    32730658.555 9 -39638369.099 8
 86  6 20  0 41 29.0800000  0  3G 6G 9G11
                  20808527.905    13955264.306 9
                  18410290.035                    -5419732.408 1
  21200617.955    21200621.178    32741716.559 9 -39629752.463 8
 86  6 20  0 41 35.0800000  0  3G 6G 9G11
  20810236.755    20810302.766    13964234.219 9 -13773388.730 1
                  18408574.828                    -5470050.154 1
  21202724.365    21202729.145    32752788.929 9 -39621124.641 8
 86  6 20  0 41 41.0800000  0  3G 6G 9G11
  20811945.159    20811948.570    13973225.554 9 -13766382.687 5
                  18408086.634                    -5499794.590 1
  21204834.673    21204837.948    32763875.722 9 -39612485.589 8
 86  6 20  0 41 47.0800000  0  2G 6G11
  20813660.566    20813664.717    13982238.192 9 -13759359.876 8
  21206947.332    21206950.708    32774976.899 9 -39603835.331 8
 86  6 20  0 41 53.0800000  0  2G 6G11
  20815381.244    20815382.360    13991272.161 9 -13752320.416 9
  21209062.528    21209065.289    32786092.471 9 -39595173.839 8
 86  6 20  0 41 59.0800000  0  2G 6G11
  20817103.818    20817106.057    14000327.446 6 -13745264.354 6
  21211182.272    21211184.150    32797222.409 5 -39586501.152 6
 86  6 20  0 42  5.0800000  0  2G 6G11
  20818831.080    20818831.821    14009404.067 9 -13738191.677 8
  21213301.218    21213303.382    32808366.658 9 -39577817.319 8
 86  6 20  0 42 11.0800000  0  3G 6G 9G11
  20820562.377    20820565.618    14018502.059 9 -13731102.333 8
                  20353377.751    -5564449.190 9
  21215424.496    21215426.768    32819525.206 9 -39569122.343 8
 86  6 20  0 42 17.0800000  0  3G 6G 9G11
  20822297.937    20822299.780    14027621.363 9 -13723996.389 8
                  20351729.359    -5573111.421 9
                  21217551.036    32830698.046 9
 86  6 20  0 42 23.0800000  0  3G 6G 9G11
  20824037.135    20824039.117    14036761.968 9 -13716873.837 9
                  20350118.993    -5581755.179 9
  21219681.284    21219681.590    32841884.578 9 -39514438.567 1
 86  6 20  0 42 29.0800000  0  3G 6G 9G11
  20825781.597    20825783.807    14045923.905 9 -13709734.674 8
  20348478.129    20348479.417    -5590378.893 9   7320859.013 1
  21221811.427    21221813.711    32853086.425 9 -39505709.736 8
 86  6 20  0 42 35.0800000  0  3G 6G 9G11
  20827528.577    20827531.907    14055107.178 9 -13702578.882 8
  20346841.619    20346842.247    -5598983.304 9   7314154.270 8
  21223946.098    21223947.727    32864302.061 9 -39496970.282 9
 86  6 20  0 42 41.0800000  0  3G 6G 9G11
  20829279.676    20829282.662    14064311.773 9 -13695406.480 9
  20345206.778    20345208.531    -5607568.491 9   7307465.020 8
  21226082.280    21226084.604    32875531.872 9 -39488219.790 8
 86  6 20  0 42 47.0800000  0  3G 6G 9G11
  20831035.961    20831038.855    14073537.718 9 -13688217.435 8
  20343577.692    20343577.987    -5616134.324 9   7300790.345 8
  21228222.432    21228224.641    32886775.915 9 -39479458.201 8
 86  6 20  0 42 53.0800000  0  3G 6G 9G11
  20832793.983    20832798.730    14082785.051 9 -13681011.734 9
  20341950.275    20341951.320    -5624680.834 9   7294130.717 8
  21230365.007    21230367.122    32898034.162 9 -39470685.539 8
 86  6 20  0 42 59.0800000  0  3G 6G 9G11
  20834556.705    20834561.349    14092053.669 9 -13673789.443 8
  20340327.453    20340329.107    -5633207.875 9   7287486.273 8
  21232510.356    21232512.230    32909306.579 9 -39461901.849 8
 86  6 20  0 43  5.0800000  0  3G 6G 9G11
  20836326.060    20836328.765    14101343.638 8 -13666550.504 8
  20338708.466    20338709.991    -5641715.580 8   7280856.885 8
  21234658.088    21234659.061    32920593.108 9 -39453107.138 7
 86  6 20  0 43 11.0800000  0  3G 6G 9G11
  20838097.541    20838101.987    14110654.922 9 -13659294.975 8
  20337092.950    20337095.430    -5650203.842 8   7274242.670 8
  21236808.239    21236810.820    32931893.783 9 -39444301.419 8
 86  6 20  0 43 17.0800000  0  3G 6G 9G11
  20839872.828    20839877.726    14119987.506 8 -13652022.844 8
  20335481.114    20335483.632    -5658672.706 8   7267643.546 8
  21238961.083    21238963.942    32943208.527 9 -39435484.730 8
 86  6 20  0 43 23.0800000  0  3G 6G 9G11
  20841653.947    20841657.946    14129341.376 9 -13644734.120 9
  20333874.346    20333875.841    -5667122.188 9   7261059.533 8
                  21241119.061                   -39426657.106 7
 86  6 20  0 43 29.0800000  0  3G 6G 9G11
  20843438.104    20843441.531    14138716.505 9 -13637428.830 8
  20332268.952    20332271.679    -5675552.250 8   7254490.664 8
  21243275.748    21243278.189    32918073.577 1 -39417818.571 8
 86  6 20  0 43 35.0800000  0  3G 6G 9G11
  20845226.352    20845229.848    14148112.996 9 -13630106.897 8
  20330668.863    20330671.882    -5683962.785 8   7247936.993 8
  21245437.020    21245438.717    32929430.444 9 -39408969.086 8
 86  6 20  0 43 41.0800000  0  3G 6G 9G11
  20847019.006    20847020.789    14157530.738 9 -13622768.400 7
                  20329071.895    -5692357.330 9
  21247599.311    21247602.644    32940800.775 9 -39400108.703 9
 86  6 20  0 43 47.0800000  0  3G 6G 9G11
  20848815.610    20848816.104    14166969.807 9 -13615413.293 7
  20327478.807    20327480.718    -5700728.290 9   7313770.779 8
  21249766.615    21249768.776    32952185.577 9 -39391237.429 9
 86  6 20  0 43 53.0800000  0  3G 6G 9G11
  20850615.333    20850617.258    14176430.154 9 -13608041.587 8
  20325889.825    20325890.803    -5709080.425 9   7307262.639 8
  21251936.157    21251938.459    32963584.295 9 -39382355.309 8
 86  6 20  0 43 59.0800000  0  3G 6G 9G11
  20852420.153    20852421.751    14185911.734 9 -13600653.354 7
  20324304.476    20324306.631    -5717412.832 9   7300770.361 9
  21254108.282    21254109.830    32974996.906 9 -39373462.371 9
 86  6 20  0 44  5.0800000  0  3G 6G 9G11
  20854228.833    20854230.174    14195414.629 9 -13593248.504 8
  20322722.460    20322724.654    -5725725.738 9   7294292.768 8
  21256282.890    21256283.862    32986423.427 9 -39364558.586 8
 86  6 20  0 44 11.0800000  0  3G 6G 9G11
  20856040.376    20856043.315    14204938.858 9 -13585827.036 7
  20321144.234    20321146.522    -5734018.981 9   7287830.492 7
  21258459.970    21258461.756    32997863.887 9 -39355643.948 9
 86  6 20  0 44 17.0800000  0  3G 6G 9G11
  20857856.613    20857858.137    14214484.381 9 -13578388.959 8
  20319569.818    20319571.234    -5742292.590 9   7281383.527 9
  21260639.547    21260640.488    33009318.269 9 -39346718.457 8
 86  6 20  0 44 23.0800000  0  3G 6G 9G11
  20859677.711    20859678.136    14224051.091 9 -13570934.389 8
  20317998.611    20318000.361    -5750546.615 9   7274951.813 8
  21262820.988    21262823.813    33020786.437 9 -39337782.224 8
 86  6 20  0 44 29.0800000  0  3G 6G 9G11
  20861501.905    20861503.560    14233639.168 9 -13563463.157 7
  20316432.789    20316434.279    -5758780.915 9   7268535.474 8
  21265006.208    21265008.088    33032268.424 9 -39328835.218 8
 86  6 20  0 44 35.0800000  0  3G 6G 9G11
  20863331.806    20863332.328    14243248.499 9 -13555975.385 7
  20314868.925    20314871.321    -5766995.595 9   7262134.421 7
  21267193.939    21267195.854    33043764.202 9 -39319877.479 9
 86  6 20  0 44 41.0800000  0  3G 6G 9G11
  20865164.430    20865164.129    14252879.134 9 -13548470.971 7
  20313309.721    20313310.894    -5775190.563 9   7255748.739 8
  21269384.775    21269385.501    33055273.776 9 -39310908.977 8
 86  6 20  0 44 47.0800000  0  3G 6G 9G11
  20867001.207    20867001.286    14262531.013 9 -13540950.022 7
  20311753.744    20311756.232    -5783365.839 9   7249378.385 8
  21271577.660    21271578.755    33066797.128 9 -39301929.744 8
 86  6 20  0 44 53.0800000  0  3G 6G 9G11
  20868841.669    20868841.047    14272204.169 9 -13533412.504 7
  20310201.315    20310204.439    -5791521.357 9   7243023.439 8
  21273772.688    21273774.843    33078334.300 9 -39292939.738 8
 86  6 20  0 44 59.0800000  0  3G 6G 9G11
  20870685.495    20870684.810    14281898.548 9 -13525858.430 7
  20308653.613    20308656.356    -5799657.159 9   7236683.845 7
  21275971.095    21275972.509    33089885.195 9 -39283939.029 8
 86  6 20  0 45  5.0800000  0  3G 6G 9G11
  20872534.649    20872534.439    14291614.243 9 -13518287.761 7
                  20307109.382    -5807773.262 9
  21278171.689    21278172.890    33101449.764 9 -39274927.696 8
 86  6 20  0 45 11.0800000  0  3G 6G 9G11
  20874387.048    20874388.240    14301351.201 9 -13510700.512 7
  20305569.140    20305569.713    -5815869.441 8   7276663.416 1
  21280373.946    21280376.394    33113027.992 9 -39265905.691 8
 86  6 20  0 45 17.0800000  0  3G 6G 9G11
  20876244.172    20876245.643    14311109.387 9 -13503096.728 7
  20304032.648    20304033.381    -5823945.857 9   7270370.090 8
  21282580.282    21282581.753    33124619.889 9 -39256873.041 8
 86  6 20  0 45 23.0800000  0  3G 6G 9G11
  20878103.993    20878105.872    14320888.876 9 -13495476.353 6
  20302499.443    20302500.326    -5832002.376 9   7264091.788 8
                  21284790.934                   -39247831.263 8
 86  6 20  0 45 29.0800000  0  3G 6G 9G11
  20879968.360    20879972.638    14330689.579 8 -13487839.439 8
  20300970.722    20300971.549    -5840039.074 9   7257829.430 8
  21287000.363    21287001.933    33075159.645 8 -39238777.823 8
 86  6 20  0 45 35.0800000  0  3G 6G 9G11
  20881838.243    20881840.686    14340511.517 9 -13480185.986 8
  20299444.193    20299445.589    -5848055.846 9   7251582.587 8
  21289213.562    21289216.137    33086792.448 9 -39229713.319 9
 86  6 20  0 45 41.0800000  0  3G 6G 9G11
  20883711.044    20883713.925    14350354.744 9 -13472515.943 8
  20297923.645    20297924.197    -5856052.706 9   7245351.275 8
  21291430.611    21291432.229    33098438.844 9 -39220638.201 9
 86  6 20  0 45 47.0800000  0  3G 6G 9G11
  20885588.473    20885591.108    14360219.207 9 -13464829.359 7
  20296404.855    20296406.320    -5864029.773 9   7239135.377 8
  21293648.093    21293651.125    33110098.879 9 -39211552.465 8
 86  6 20  0 45 53.0800000  0  3G 6G 9G11
  20887469.892    20887472.401    14370104.951 8 -13457126.185 7
  20294890.922    20294891.653    -5871986.890 9   7232935.025 9
  21295869.665    21295872.570    33121772.453 9 -39202456.167 7
 86  6 20  0 45 59.0800000  0  3G 6G 9G11
  20889354.741    20889357.797    14380011.942 9 -13449406.465 7
  20293380.087    20293380.993    -5879924.014 9   7226750.268 8
  21298093.871    21298095.473    33133459.583 9 -39193349.322 8
 86  6 20  0 46  5.0800000  0  3G 6G 9G11
  20891244.276    20891246.954    14389940.126 9 -13441670.217 7
  20291872.696    20291875.057    -5887841.143 9   7220581.062 8
  21300320.439    21300322.015    33145160.194 9 -39184231.954 8
 86  6 20  0 46 11.0800000  0  3G 6G 9G11
  20893137.408    20893140.249    14399889.543 9 -13433917.433 7
  20290370.884    20290372.423    -5895738.343 9   7214427.412 7
  21302549.311    21302551.303    33156874.320 9 -39175104.069 8
 86  6 20  0 46 17.0800000  0  3G 6G 9G11
  20895034.678    20895038.787    14409860.281 9 -13426148.028 7
  20288871.849    20288873.581    -5903615.319 9   7208289.513 8
  21304781.244    21304783.220    33168601.935 9 -39165965.664 8
 86  6 20  0 46 23.0800000  0  3G 6G 9G11
  20896937.045    20896939.923    14419852.170 8 -13418362.143 7
  20287376.600    20287377.515    -5911472.518 9   7202167.014 8
  21307015.981    21307017.856    33180342.897 9 -39156816.858 8
 86  6 20  0 46 29.0800000  0  3G 6G 9G11
  20898841.696    20898845.524    14429865.221 8 -13410559.756 7
                  20285885.965    -5919309.567 9
  21309252.764    21309254.152    33192097.341 9 -39147657.550 8
 86  6 20  0 46 35.0800000  0  3G 6G 9G11
  20900751.607    20900754.101    14439899.583 9 -13402740.786 7
  20284398.484    20284399.994    -5927126.588 9   7249255.059 8
  21311491.782    21311493.025    33203865.168 9 -39138487.820 8
 86  6 20  0 46 41.0800000  0  3G 6G 9G11
  20902664.760    20902669.158    14449955.156 8 -13394905.295 8
  20282914.548    20282915.645    -5934923.464 9   7243179.576 8
  21313734.246    21313735.562    33215646.410 9 -39129307.619 8
 86  6 20  0 46 47.0800000  0  3G 6G 9G11
  20904581.571    20904586.475    14460031.909 9 -13387053.277 9
  20281434.352    20281434.309    -5942700.214 9   7237119.785 8
  21315978.413    21315977.926    33227441.047 9 -39120117.004 8
 86  6 20  0 46 53.0800000  0  3G 6G 9G11
  20906504.518    20906507.444    14470129.855 9 -13379184.752 8
  20279958.232    20279959.223    -5950456.858 9   7231075.654 7
  21318225.658    21318226.356    33239248.982 9 -39110916.006 7
 86  6 20  0 46 59.0800000  0  3G 6G 9G11
  20908428.777    20908433.684    14480249.094 9 -13371299.640 7
  20278484.904    20278487.371    -5958193.316 9   7225047.235 7
  21320474.705    21320476.049    33251070.301 9 -39101704.586 8
 86  6 20  0 47  5.0800000  0  3G 6G 9G11
  20910359.054    20910361.774    14490389.502 8 -13363398.020 7
  20277017.541    20277017.780    -5965909.637 9   7219034.535 8
  21322726.498    21322727.542    33262904.936 9 -39092482.804 8
 86  6 20  0 47 11.0800000  0  3G 6G 9G11
  20912293.687    20912295.999    14500551.110 9 -13355479.890 7
  20275552.566    20275552.930    -5973605.722 9   7213037.588 8
  21324980.940    21324982.185    33274752.847 9 -39083250.662 8
 86  6 20  0 47 17.0800000  0  3G 6G 9G11
  20914230.356    20914233.990    14510733.916 9 -13347545.240 7
  20274091.904    20274092.601    -5981281.620 9   7207056.365 8
  21327238.027    21327238.917    33286613.966 9 -39074008.221 8
 86  6 20  0 47 23.0800000  0  3G 6G 9G11
  20916171.613    20916175.376    14520937.890 7 -13339594.095 7
  20272634.673    20272636.816    -5988937.319 9   7201090.900 8
  21329497.907    21329498.935    33298488.304 9 -39064755.495 8
 86  6 20  0 47 29.0800000  0  3G 6G 9G11
  20918118.133    20918121.484    14531163.064 8 -13331626.418 7
  20271181.226    20271182.700    -5996572.684 8   7195141.264 7
  21331760.275    21331761.879    33310375.882 9 -39055492.445 8
 86  6 20  0 47 35.0800000  0  3G 6G 9G11
  20920068.273    20920070.418    14541409.444 9 -13323642.218 7
  20269733.009    20269733.697    -6004187.808 9   7189207.413 7
  21334024.519    21334026.221    33322276.693 9 -39046219.068 8
 86  6 20  0 47 41.0800000  0  3G 6G 9G11
  20922020.725    20922023.302    14551677.035 9 -13315641.504 7
  20268286.836    20268287.878    -6011782.706 9   7183289.317 7
  21336291.652    21336293.054    33334190.680 9 -39036935.452 7
 86  6 20  0 47 47.0800000  0  3G 6G 9G11
  20923979.490    20923981.911    14561965.798 9 -13307624.300 7
  20266845.855    20266847.123    -6019357.351 9   7177386.991 8
  21338561.105    21338564.351    33346117.752 9 -39027641.647 8
 86  6 20  0 47 53.0800000  0  3G 6G 9G11
                  20925940.971    14572275.719 8
  20265406.866    20265409.470    -6026911.631 8   7171500.546 8
  21340833.532    21340835.365    33358057.959 9 -39018337.572 8
 86  6 20  0 47 59.0800000  0  3G 6G 9G11
  20927907.103    20927910.695    14582606.782 9 -13253477.915 3
  20263974.621    20263976.110    -6034445.488 9   7165630.012 8
                  21343108.822                   -39009025.284 8
 86  6 20  0 48  5.0800000  0  3G 6G 9G11
  20929877.748    20929879.697    14592959.061 9 -13245411.194 6
  20262544.385    20262546.696    -6041958.900 8   7159775.413 8
  21345385.437    21345387.076    33309400.770 5 -38999700.769 8
 86  6 20  0 48 11.0800000  0  3G 6G 9G11
  20931851.567    20931853.450    14603332.590 8 -13237328.438 7
  20261118.274    20261121.523    -6049452.005 9   7153936.632 8
  21347665.026    21347667.788    33321380.346 9 -38990366.025 7
 86  6 20  0 48 17.0800000  0  3G 6G 9G11
  20933829.664    20933831.953    14613727.258 8 -13229228.690 7
  20259696.777    20259699.533    -6056924.680 9   7148113.767 8
  21349946.755    21349948.501    33333373.007 9 -38981021.084 8
 86  6 20  0 48 23.0800000  0  3G 6G 9G11
  20935813.149    20935814.217    14624143.162 9 -13221112.420 7
  20258278.300    20258280.098    -6064376.896 8   7142306.851 7
  21352231.332    21352234.137    33345378.752 9 -38971665.953 8
 86  6 20  0 48 29.0800000  0  3G 6G 9G11
  20937798.905    20937799.714    14634580.202 9 -13212979.663 7
  20256865.095    20256866.407    -6071808.684 8   7136515.838 8
  21354518.441    21354520.830    33357397.518 9 -38962300.682 8
 86  6 20  0 48 35.0800000  0  3G 6G 9G11
  20939789.231    20939791.194    14645038.381 9 -13204830.422 8
  20255453.996    20255455.817    -6079219.974 9   7130740.815 8
  21356808.126    21356810.676    33369429.279 9 -38952925.282 8
 86  6 20  0 48 41.0800000  0  3G 6G 9G11
  20941782.324    20941785.271    14655517.700 9 -13196664.737 8
  20254047.974    20254049.883    -6086610.898 9   7124981.665 8
  21359099.971    21359102.005    33381473.994 9 -38943539.791 7
 86  6 20  0 48 47.0800000  0  3G 6G 9G11
  20943780.494    20943783.046    14666018.100 9 -13188482.608 7
  20252645.126    20252647.478    -6093981.252 9   7119238.524 8
  21361394.392    21361396.652    33393531.606 9 -38934144.240 8
 86  6 20  0 48 53.0800000  0  3G 6G 9G11
  20945782.807    20945785.045    14676539.634 9 -13180284.011 8
  20251246.909    20251247.898    -6101331.110 9   7113511.356 7
  21363692.346    21363694.165    33405602.170 9 -38924738.614 9
 86  6 20  0 48 59.0800000  0  3G 6G 9G11
  20947789.019    20947790.885    14687082.393 9 -13172068.884 8
  20249852.502    20249854.751    -6108660.319 9   7107800.292 7
  21365991.434    21365993.284    33417685.675 9 -38915322.894 8
 86  6 20  0 49  5.0800000  0  3G 6G 9G11
  20949799.292    20949801.115    14697646.254 9 -13163837.295 7
  20248461.363    20248464.113    -6115968.959 9   7102105.248 8
  21368292.711    21368295.000    33429782.050 9 -38905897.149 9
 86  6 20  0 49 11.0800000  0  3G 6G 9G11
  20951813.743    20951815.357    14708231.226 9 -13155589.281 8
  20247075.137    20247076.950    -6123257.146 9   7096426.144 8
  21370596.804    21370600.153    33441891.299 9 -38896461.381 9
 86  6 20  0 49 17.0800000  0  3G 6G 9G11
  20953831.711    20953832.672    14718837.369 9 -13147324.749 8
  20245692.407    20245693.976    -6130524.600 9   7090763.197 7
  21372904.018    21372905.677    33454013.471 9 -38887015.534 8
 86  6 20  0 49 23.0800000  0  3G 6G 9G11
  20955855.160    20955856.342    14729464.561 9 -13139043.831 8
  20244312.428    20244314.399    -6137771.562 9   7085116.214 7
  21375212.936    21375215.892    33466148.432 9 -38877559.721 8
 86  6 20  0 49 29.0800000  0  3G 6G 9G11
  20957881.670    20957880.806    14740112.830 9 -13130746.493 8
  20242938.103    20242940.026    -6144997.888 9   7079485.312 8
  21377524.298    21377527.604    33478296.183 9 -38868093.951 8
 86  6 20  0 49 35.0800000  0  3G 6G 9G11
  20959911.807    20959912.981    14750782.264 9 -13122432.640 3
  20241567.757    20241567.940    -6152203.544 9   7073870.518 7
  21379838.422    21379841.313    33490456.708 9 -38858618.198 7
 86  6 20  0 49 41.0800000  0  3G 6G 9G11
  20961945.862    20961947.605    14761472.809 9 -13114102.350 8
  20240199.487    20240200.897    -6159388.577 9   7068271.793 8
  21382155.083    21382157.202    33502630.007 9 -38849132.530 8
 86  6 20  0 49 47.0800000  0  3G 6G 9G11
  20963985.134    20963985.348    14772184.461 9 -13105755.609 8
  20238837.072    20238837.463    -6166552.874 9   7062689.227 8
  21384473.784    21384476.120    33514816.082 9 -38839636.888 8
 86  6 20  0 49 53.0800000  0  3G 6G 9G11
  20966026.680    20966026.572    14782917.241 9 -13097392.392 7
  20237476.591    20237477.943    -6173696.365 9   7057122.875 7
  21386795.224    21386797.069    33527014.959 9 -38830131.272 8
 86  6 20  0 49 59.0800000  0  3G 6G 9G11
  20968072.500    20968075.248    14793671.133 9 -13089012.751 7
  20236121.151    20236121.987    -6180819.201 9   7051572.608 8
  21389119.164    21389121.655    33539226.567 9 -38820615.730 8
 86  6 20  0 50  5.0800000  0  3G 6G 9G11
  20970124.104    20970124.747    14804446.062 9 -13080616.695 8
  20234769.145    20234770.555    -6187921.267 9   7046038.540 8
  21391445.481    21391447.442    33551450.876 9 -38811090.299 8
 86  6 20  0 50 11.0800000  0  3G 6G 9G11
  20972176.783    20972179.748    14815242.059 8 -13072204.227 8
  20233421.484    20233422.470    -6195002.571 9   7040520.649 8
  21393774.458    21393775.773    33563687.819 9 -38801555.014 9
 86  6 20  0 50 17.0800000  0  3G 6G 9G11
  20974234.691    20974238.136    14826059.139 9 -13063775.351 7
  20232079.262    20232080.061    -6202063.220 9   7035018.842 8
  21396104.639    21396107.087    33575937.347 9 -38792009.928 8
 86  6 20  0 50 23.0800000  0  3G 6G 9G11
  20976296.603    20976300.892    14836897.342 9 -13055329.995 7
  20230739.030    20230738.909    -6209102.941 9   7029533.348 7
  21398437.868    21398440.199    33588199.593 9 -38782454.952 7
 86  6 20  0 50 29.0800000  0  3G 6G 9G11
  20978363.345    20978367.311    14847756.539 8 -13046868.287 8
  20229404.128    20229404.481    -6216121.882 9   7024064.052 9
  21400774.386    21400776.889    33600474.425 9 -38772890.132 8
 86  6 20  0 50 35.0800000  0  3G 6G 9G11
  20980434.157    20980438.590    14858636.760 8 -13038390.196 8
  20228072.103    20228072.804    -6223119.996 9   7018610.976 8
  21403113.637    21403115.210    33612761.735 9 -38763315.611 8
 86  6 20  0 50 41.0800000  0  3G 6G 9G11
  20982509.013    20982511.700    14869538.156 8 -13029895.614 8
  20226744.798    20226744.938    -6230097.237 9   7013174.170 8
  21405453.735    21405456.137    33625061.649 9 -38753731.266 8
 86  6 20  0 50 47.0800000  0  3G 6G 9G11
  20984587.652    20984589.847    14880460.563 8 -13021384.648 8
  20225420.176    20225422.277    -6237053.622 9   7007753.614 8
  21407797.078    21407799.041    33637374.085 9 -38744137.162 8
 86  6 20  0 50 53.0800000  0  3G 6G 9G11
  20986670.836    20986671.960    14891404.073 9 -13012857.242 8
  20224100.864    20224101.727    -6243989.113 9   7002349.344 8
  21410141.640    21410144.885    33649699.109 9 -38734533.252 7
 86  6 20  0 50 59.0800000  0  3G 6G 9G11
  20988757.534    20988758.018    14902368.633 9 -13004313.437 7
  20222785.669    20222785.359    -6250903.709 9   6996961.347 8
  21412490.248    21412492.967    33662036.655 9 -38724919.592 8
 86  6 20  0 51  5.0800000  0  3G 6G 9G11
  20990847.569    20990848.579    14913354.156 8 -12995753.292 7
  20221473.613    20221475.098    -6257797.295 9   6991589.721 8
                  21414839.575    33674386.613 9
 86  6 20  0 51 11.0800000  0  3G 6G 9G11
  20992942.157    20992942.192    14924360.697 9 -12987176.763 8
  20220165.639    20220166.244    -6264669.821 9   6986234.521 8
  21417192.030    21417195.094    33686749.046 9 -38669328.665 1
 86  6 20  0 51 17.0800000  0  3G 6G 9G11
  20995040.898    20995042.008    14935388.294 9 -12978583.838 8
  20218861.679    20218861.628    -6271521.638 9   6980895.441 8
  21419547.212    21419549.346    33699123.919 9 -38659685.921 8
 86  6 20  0 51 23.0800000  0  3G 6G 9G11
  20997143.726    20997143.777    14946436.919 9 -12969974.520 8
  20217561.832    20217562.241    -6278352.436 9   6975572.759 8
  21421904.366    21421906.355    33711511.168 9 -38650033.026 8
 86  6 20  0 51 29.0800000  0  3G 6G 9G11
  20999249.600    20999250.136    14957506.465 8 -12961348.906 7
  20216265.860    20216265.999    -6285162.285 9   6970266.398 8
  21424263.835    21424266.539    33723910.810 9 -38640370.956 8
 86  6 20  0 51 35.0800000  0  3G 6G 9G11
  21001360.395    21001361.469    14968597.045 9 -12952706.906 7
  20214974.240    20214974.947    -6291951.025 8   6964976.471 7
  21426625.310    21426628.184    33736322.804 9 -38630699.284 9
 86  6 20  0 51 41.0800000  0  3G 6G 9G11
  21003473.918    21003475.967    14979708.625 9 -12944048.530 7
  20213685.316    20213688.038    -6298718.807 9   6959702.879 8
  21428990.732    21428993.154    33748747.144 9 -38621017.964 8
 86  6 20  0 51 47.0800000  0  3G 6G 9G11
  21005593.109    21005594.946    14990841.276 9 -12935373.747 8
  20212402.558    20212403.656    -6305465.432 8   6954445.762 8
  21431356.358    21431358.832    33761183.846 9 -38611327.027 8
 86  6 20  0 51 53.0800000  0  3G 6G 9G11
  21007715.517    21007716.679    15001994.947 9 -12926682.585 8
  20211122.331    20211123.362    -6312190.912 9   6949205.144 8
  21433725.188    21433727.780    33773632.843 9 -38601626.497 8
 86  6 20  0 51 59.0800000  0  3G 6G 9G11
  21009841.408    21009844.061    15013169.591 9 -12917975.079 9
  20209845.428    20209847.554    -6318895.430 9   6943980.842 8
  21436096.648    21436099.868    33786094.137 9 -38591916.412 8
 86  6 20  0 52  5.0800000  0  3G 6G 9G11
                  21011971.558    15024365.276 9
  20208573.050    20208576.021    -6325578.715 9   6938773.100 8
  21438470.443    21438472.571    33798567.741 9 -38582196.713 7
 86  6 20  0 52 11.0800000  0  3G 6G 9G11
  21014106.392    21014110.620    15035581.898 8 -12863024.946 1
  20207306.053    20207308.608    -6332240.878 8   6933581.811 7
  21440845.734    21440848.175    33811053.598 9 -38572467.462 7
 86  6 20  0 52 17.0800000  0  3G 6G 9G11
  21016244.484    21016247.445    15046819.498 7 -12854268.398 6
  20206041.791    20206044.031    -6338881.880 8   6928406.998 7
  21443224.024    21443227.839    33823551.688 9 -38562728.691 7
 86  6 20  0 52 23.0800000  0  3G 6G 9G11
  21018386.062    21018388.758    15058078.006 9 -12845495.552 8
  20204781.539    20204785.118    -6345501.707 8   6923248.695 8
  21445603.964    21445607.892    33836061.950 9 -38552980.434 8
 86  6 20  0 52 29.0800000  0  4G 6G13G 9G11
  21020532.755    21020536.362    15069357.612 9 -12836706.244 8
                  21234005.196    -9288473.655 9
  20203526.684    20203528.822    -6352100.341 9   6918106.916 9
  21447986.833    21447991.707    33848584.507 9 -38543222.603 8
 86  6 20  0 52 35.0800000  0  4G 6G13G 9G11
  21022682.998    21022685.771    15080658.152 9 -12827900.643 8
                  21231802.768    -9300017.015 9
  20202274.695    20202277.709    -6358677.700 8   6912981.690 8
  21450372.360    21450375.441    33861119.197 9 -38533455.294 9
 86  6 20  0 52 41.0800000  0  4G 6G13G 9G11
  21024839.032    21024839.666    15091979.648 9 -12819078.709 7
                  21229641.152    -9311541.282 9
  20201026.946    20201029.902    -6365233.942 9   6907872.945 8
  21452760.084    21452763.198    33873666.073 9 -38523678.508 8
 86  6 20  0 52 47.0800000  0  4G 6G13G 9G11
  21026996.961    21026996.856    15103322.084 9 -12810240.457 7
  21227452.915    21227456.453    -9323045.968 9  12016741.742 1
  20199783.676    20199785.214    -6371768.910 8   6902780.753 7
  21455150.075    21455153.268    33886225.054 9 -38513892.294 8
 86  6 20  0 52 53.0800000  0  4G 6G13G 9G11
  21029159.573    21029159.885    15114685.441 9 -12801385.900 7
  21225267.333    21225269.836    -9334531.531 9  12007792.040 8
  20198543.614    20198545.321    -6378282.611 8   6897705.155 8
  21457542.352    21457544.865    33898796.117 9 -38504096.660 8
 86  6 20  0 52 59.0800000  0  4G 6G13G 9G11
  21031326.374    21031326.620    15126069.846 9 -12792514.935 7
  21223084.409    21223087.800    -9345997.676 9  11998857.887 9
  20197308.461    20197310.974    -6384774.965 8   6892646.180 8
  21459937.645    21459939.726    33911379.257 9 -38494291.614 8
 86  6 20  0 53  5.0800000  0  4G 6G13G 9G11
  21033496.941    21033497.769    15137475.179 9 -12783627.665 7
  21220906.435    21220909.551    -9357444.541 9  11989938.269 7
  20196076.909    20196078.865    -6391246.083 9   6887603.755 7
  21462334.078    21462336.602    33923974.508 9 -38484477.126 9
 86  6 20  0 53 11.0800000  0  4G 6G13G 9G11
  21035671.017    21035672.425    15148901.384 9 -12774724.145 7
  21218731.121    21218733.615    -9368872.002 9  11981033.768 7
  20194849.585    20194851.921    -6397695.802 9   6882577.987 8
  21464733.707    21464736.012    33936581.848 9 -38474653.220 8
 86  6 20  0 53 17.0800000  0  4G 6G13G 9G11
  21037849.173    21037850.425    15160348.545 9 -12765804.266 7
  21216561.644    21216563.950    -9380280.150 9  11972144.303 8
  20193627.494    20193627.990    -6404124.181 9   6877568.879 8
  21467135.146    21467138.083    33949201.245 9 -38464819.916 7
 86  6 20  0 53 23.0800000  0  4G 6G13G 9G11
  21040032.195    21040032.685    15171816.626 9 -12756868.117 8
  21214393.688    21214395.992    -9391668.995 9  11963269.898 8
  20192407.545    20192409.178    -6410531.200 9   6872576.381 7
  21469539.218    21469540.788    33961832.621 9 -38454977.274 8
 86  6 20  0 53 29.0800000  0  4G 6G13G 9G11
  21042218.113    21042219.559    15183305.609 9 -12747915.657 6
  21212230.139    21212233.428    -9403038.537 9  11954410.520 9
  20191192.188    20191194.075    -6416916.914 9   6867600.507 7
  21471944.287    21471946.585    33974476.005 9 -38445125.289 8
 86  6 20  0 53 35.0800000  0  4G 6G13G 9G11
  21044408.616    21044408.845    15194815.539 9 -12738946.903 7
  21210071.537    21210072.939    -9414388.735 9  11945566.225 9
  20189981.226    20189981.969    -6423281.192 9   6862641.338 8
                  21474355.266                   -38435263.975 8
 86  6 20  0 53 41.0800000  0  4G 6G13G 9G11
  21046603.096    21046602.419    15206346.366 9 -12729961.830 7
  21207914.857    21207916.432    -9425719.690 9  11936736.922 8
  20188775.193    20188775.800    -6429624.040 9   6857698.859 8
  21476763.153    21476765.899    33943680.678 9 -38425393.354 8
 86  6 20  0 53 47.0800000  0  4G 6G13G 9G11
  21048801.034    21048800.978    15217898.162 9 -12720960.433 7
  21205763.183    21205763.743    -9437031.262 9  11927922.719 7
  20187571.165    20187572.941    -6435945.462 9   6852773.071 7
  21479176.087    21479178.749    33956359.927 9 -38415513.398 8
 86  6 20  0 53 53.0800000  0  4G 6G13G 9G11
  21051004.100    21051002.527    15229470.811 9 -12711942.784 7
  21203613.914    21203616.103    -9448323.514 9  11919123.563 8
  20186373.023    20186373.871    -6442245.467 9   6847863.997 7
  21481590.871    21481593.295    33969051.107 9 -38405624.165 8
 86  6 20  0 53 59.0800000  0  4G 6G13G 9G11
  21053210.292    21053208.868    15241064.384 9 -12702908.818 6
  21201468.964    21201470.327    -9459596.275 9  11910339.607 8
  20185178.091    20185178.789    -6448523.979 9   6842971.640 7
  21484008.731    21484011.650    33981754.254 9 -38395725.612 8
 86  6 20  0 54  5.0800000  0  4G 6G13G 9G11
  21055420.804    21055419.429    15252678.815 9 -12693858.620 7
  21199327.079    21199328.681    -9470849.636 9  11901570.761 8
  20183987.390    20183988.987    -6454780.937 8   6838096.091 7
  21486427.728    21486430.231    33994469.261 9 -38385817.817 8
 86  6 20  0 54 11.0800000  0  4G 6G13G 9G11
  21057634.579    21057631.807    15264314.098 9 -12684792.155 7
  21197189.370    21197191.087    -9482083.678 9  11892816.963 8
  20182801.461    20182802.182    -6461016.450 9   6833237.249 7
  21488849.737    21488852.012    34007196.053 9 -38375900.841 9
 86  6 20  0 54 17.0800000  0  4G 6G13G 9G11
  21059852.591    21059851.578    15275970.295 9 -12675709.429 6
  21195055.354    21195056.854    -9493298.356 9  11884078.264 7
  20181618.909    20181619.176    -6467230.498 9   6828395.139 8
  21491273.556    21491275.922    34019934.698 9 -38365974.628 8
 86  6 20  0 54 23.0800000  0  4G 6G13G 9G11
  21062074.448    21062071.563    15287647.352 9 -12666610.409 7
  21192924.772    21192926.546    -9504493.705 9  11875354.628 8
  20180440.620    20180440.431    -6473422.958 8   6823569.849 8
  21493700.344    21493701.684    34032685.108 9 -38356039.247 8
 86  6 20  0 54 29.0800000  0  4G 6G13G 9G11
  21064300.231    21064300.306    15299345.206 9 -12657495.210 6
  21190798.254    21190800.386    -9515669.669 9  11866646.101 8
  20179266.407    20179267.098    -6479593.946 9   6818761.306 7
                  21496130.939                   -38346094.668 8
 86  6 20  0 54 35.0800000  0  4G 6G13G 9G11
  21066529.345    21066528.505    15311063.940 9 -12648363.720 7
  21188675.142    21188676.198    -9526826.278 9  11857952.653 8
  20178096.140    20178096.464    -6485743.313 9   6813969.580 7
  21498559.773    21498562.373    34002951.790 9 -38336140.909 8
 86  6 20  0 54 41.0800000  0  4G 6G13G 9G11
  21068763.531    21068764.207    15322803.551 9 -12639215.976 7
  21186554.804    21186557.997    -9537963.452 9  11849274.331 8
  20176929.671    20176931.021    -6491871.096 9   6809194.695 7
  21500993.032    21500995.826    34015737.534 9 -38326178.005 7
 86  6 20  0 54 47.0800000  0  4G 6G13G 9G11
  21071001.358    21071002.423    15334563.965 9 -12630052.016 9
  21184440.679    21184442.841    -9549081.310 9  11840611.072 7
  20175768.009    20175769.084    -6497977.232 8   6804436.663 7
  21503427.989    21503429.996    34028534.399 9 -38316206.040 9
 86  6 20  0 54 53.0800000  0  4G 6G13G 9G11
                  21073243.898                   -12620871.871 6
  21182328.754    21182330.414    -9560179.799 9  11831962.911 8
  20174609.872    20174610.211    -6504061.891 8   6799695.376 7
  21505865.809    21505867.965    34041343.515 9 -38306224.908 9
 86  6 20  0 54 59.0800000  0  4G 6G13G 9G11
  21075489.268    21075490.581    15310040.218 1 -12611675.492 7
  21180219.750    21180221.140    -9571258.892 9  11823329.850 8
  20173456.044    20173456.266    -6510124.785 8   6794971.027 7
  21508305.599    21508308.395    34054164.319 9 -38296234.675 8
 86  6 20  0 55  5.0800000  0  4G 6G13G 9G11
  21077739.623    21077740.601    15321863.134 9 -12602462.834 7
  21178115.270    21178118.457    -9582318.571 9  11814711.921 7
                  20172307.536                     6790263.536 7
  21510746.705    21510750.132    34066996.805 9 -38286235.333 8
 86  6 20  0 55 11.0800000  0  4G 6G13G 9G11
  21079993.715    21079993.916    15333706.812 9 -12593233.997 7
  21176012.733    21176016.938    -9593358.913 9  11806109.078 9
  20171161.233    20171160.809    -6552448.755 1   6785572.891 7
  21513190.964    21513194.584    34079840.918 9 -38276226.945 9
 86  6 20  0 55 17.0800000  0  4G 6G13G 9G11
  21082250.847    21082252.155    15345571.277 9 -12583988.966 7
  21173917.062    21173920.642    -9604379.740 9  11797521.423 8
  20170021.066    20170020.267    -6558446.738 9   6780899.140 7
  21515637.470    21515640.628    34092696.648 9 -38266209.481 9
 86  6 20  0 55 23.0800000  0  4G 6G13G 9G11
  21084512.037    21084514.075    15357456.523 9 -12574727.736 8
  21171822.801    21171826.408    -9615381.193 9  11788948.866 8
  20168882.674    20168883.202    -6564422.947 9   6776242.346 7
  21518086.488    21518089.014    34105563.931 9 -38256183.029 9
 86  6 20  0 55 29.0800000  0  4G 6G13G 9G11
  21086777.612    21086780.391    15369362.586 9 -12565450.294 7
  21169732.199    21169736.074    -9626363.258 9  11780391.419 8
  20167749.398    20167750.084    -6570377.391 9   6771602.532 8
  21520536.876    21520540.392    34118442.838 9 -38246147.528 8
 86  6 20  0 55 35.0800000  0  4G 6G13G 9G11
  21089046.598    21089049.096    15381289.440 9 -12556156.648 8
  21167645.948    21167651.024    -9637325.951 9  11771849.067 9
  20166620.347    20166620.407    -6576310.070 9   6766979.666 7
  21522990.153    21522992.088    34131333.301 9 -38236103.005 9
 86  6 20  0 55 41.0800000  0  4G 6G13G 9G11
  21091320.495    21091322.572    15393237.100 9 -12546846.781 7
  21165563.789    21165568.796    -9648269.284 9  11763321.810 7
  20165495.369    20165496.334    -6582221.039 9   6762373.718 6
  21525444.717    21525447.644    34144235.289 9 -38226049.506 8
 86  6 20  0 55 47.0800000  0  4G 6G13G 9G11
  21093598.169    21093599.416    15405205.542 9 -12537520.719 8
  21163485.061    21163489.396    -9659193.280 9  11754809.606 8
  20164375.223    20164376.394    -6588110.236 9   6757784.727 6
  21527901.627    21527904.990    34157148.803 9 -38215987.042 8
 86  6 20  0 55 53.0800000  0  4G 6G13G 9G11
  21095879.397    21095881.475    15417194.766 9 -12528178.472 7
  21161410.172    21161414.291    -9670097.924 9  11746312.484 9
  20163257.953    20163260.097    -6593977.625 9   6753212.729 6
  21530360.418    21530364.548    34170073.839 9 -38205915.581 8
 86  6 20  0 55 59.0800000  0  4G 6G13G 9G11
  21098164.484    21098166.596    15429204.785 9 -12518820.023 8
  21159339.228    21159343.137    -9680983.072 9  11737830.559 9
  20162145.690    20162146.511    -6599823.183 8   6748657.767 8
  21532822.651    21532825.310    34183010.350 9 -38195835.177 9
 86  6 20  0 56  5.0800000  0  4G 6G13G 9G11
  21100454.453    21100455.729    15441235.490 9 -12509445.447 7
  21157271.550    21157275.571    -9691848.788 9  11729363.777 8
  20161037.033    20161039.085    -6605646.982 9   6744119.739 7
  21535286.328    21535290.391    34195958.307 9 -38185745.864 8
 86  6 20  0 56 11.0800000  0  4G 6G13G 9G11
  21102748.434    21102750.257    15453286.941 9 -12500054.709 8
  21155207.879    21155211.125    -9702695.090 9  11720912.117 8
  20159933.549    20159933.896    -6611448.779 8   6739598.862 7
  21537752.524    21537756.767    34208917.726 9 -38175647.622 8
 86  6 20  0 56 17.0800000  0  4G 6G13G 9G11
  21105045.643    21105046.750    15465359.206 9 -12490647.759 8
  21153148.039    21153151.203    -9713521.918 9  11712475.635 9
  20158833.450    20158835.646    -6617228.735 8   6735094.992 6
  21540220.873    21540224.330    34221888.570 9 -38165540.461 8
 86  6 20  0 56 23.0800000  0  4G 6G13G 9G11
  21107347.363    21107348.023    15477452.106 9 -12481224.711 7
  21151091.895    21151094.440    -9724329.357 9  11704054.258 9
  20157738.099    20157740.199    -6622986.785 8   6730608.215 7
  21542690.842    21542695.039    34234870.749 9 -38155424.474 8
 86  6 20  0 56 29.0800000  0  4G 6G13G 9G11
  21109652.751    21109654.045    15489565.757 9 -12471785.510 8
  21149038.353    21149042.244    -9735117.394 9  11695648.009 8
  20156646.634    20156648.832    -6628722.883 8   6726138.522 7
  21545164.069    21545168.284    34247864.382 9 -38145299.577 8
 86  6 20  0 56 35.0800000  0  4G 6G13G 9G11
  21111962.214    21111963.780    15501700.159 9 -12462330.132 8
  21146989.304    21146991.063    -9745885.999 9  11687256.909 7
  20155559.124    20155562.086    -6634437.181 8   6721685.826 8
  21547639.016    21547643.488    34260869.399 9 -38135165.787 8
 86  6 20  0 56 41.0800000  0  4G 6G13G 9G11
  21114275.238    21114276.288    15513855.316 9 -12452858.596 7
  21144943.520    21144946.454    -9756635.135 9  11678880.962 8
  20154476.322    20154477.527    -6640129.443 9   6717250.297 7
  21550116.359    21550119.413    34273885.738 9 -38125023.191 8
 86  6 20  0 56 47.0800000  0  4G 6G13G 9G11
  21116591.914    21116591.662    15526031.152 9 -12443370.922 7
  21142902.171    21142903.800    -9767364.817 9  11670520.192 8
  20153396.322    20153399.141    -6645799.821 8   6712831.818 7
  21552595.473    21552599.060    34286913.363 9 -38114871.798 9
 86  6 20  0 56 53.0800000  0  4G 6G13G 9G11
  21118912.624    21118913.738    15538227.717 9 -12433867.108 8
  21140863.739    21140866.484    -9778075.024 9  11662174.581 9
  20152321.398    20152322.206    -6651448.390 9   6708430.324 7
  21555076.269    21555080.139    34299952.256 9 -38104711.608 9
 86  6 20  0 56 59.0800000  0  4G 6G13G 9G11
  21121236.741    21121237.141    15550444.957 9 -12424347.200 8
  21138829.028    21138832.205    -9788765.814 9  11653844.107 8
  20151250.731    20151252.652    -6657074.867 8   6704046.080 7
  21557559.900    21557563.471    34313002.486 9 -38094542.611 7
 86  6 20  0 57  5.0800000  0  4G 6G13G 9G11
  21123566.077    21123567.991    15562682.858 9 -12414811.173 8
  21136798.326    21136800.414    -9799437.163 9  11645528.771 9
  20150184.538    20150183.906    -6662679.394 8   6699678.909 7
  21560045.680    21560048.499    34326063.970 9 -38084364.823 9
 86  6 20  0 57 11.0800000  0  4G 6G13G 9G11
  21125897.954    21125899.972    15574941.421 9 -12405259.062 8
  21134771.083    21134774.013    -9810089.039 9  11637228.634 8
  20149121.021    20149122.994    -6668261.843 9   6695328.951 7
  21562532.780    21562536.492    34339136.635 9 -38074178.322 8
 86  6 20  0 57 17.0800000  0  4G 6G13G 9G11
  21128234.342    21128236.460    15587220.618 9 -12395690.847 7
  21132747.563    21132749.924    -9820721.403 9  11628943.680 8
  20148063.947    20148064.997    -6673822.202 8   6690996.201 7
  21565023.381    21565027.280    34352220.481 9 -38063983.131 8
 86  6 20  0 57 23.0800000  0  4G 6G13G 9G11
  21130574.250    21130577.126    15599520.507 9 -12386106.539 8
  21130728.220    21130730.766    -9831334.280 9  11620673.914 9
                  20147012.108                     6686680.616 7
  21567514.726    21567518.074    34365315.536 9 -38053779.178 8
 86  6 20  0 57 29.0800000  0  4G 6G13G 9G11
  21132918.862    21132921.787    15611841.089 9 -12376506.085 8
  21128712.512    21128714.676    -9841927.741 9  11612419.292 9
  20145858.593    20145961.047    -6719212.660 9   6682382.217 7
  21570009.152    21570012.822    34378421.757 9 -38043566.542 8
 86  6 20  0 57 35.0800000  0  4G 6G13G 9G11
  21135267.711    21135270.321    15624182.379 9 -12366889.509 8
  21126699.494    21126703.585    -9852501.732 9  11604179.824 9
  20144914.455    20144916.340    -6724707.107 9   6678100.956 6
  21572505.668    21572508.709    34391539.187 9 -38033345.160 8
 86  6 20  0 57 41.0800000  0  4G 6G13G 9G11
  21137620.646    21137622.884    15636544.235 9 -12357256.892 8
  21124690.342    21124694.217    -9863056.337 9  11595955.469 8
  20143873.549    20143873.466    -6730179.201 8   6673836.992 8
  21575002.812    21575007.874    34404667.723 9 -38023115.149 9
 86  6 20  0 57 47.0800000  0  4G 6G13G 9G11
  21139975.865    21139978.680    15648926.712 9 -12347608.207 8
  21122685.737    21122689.185    -9873591.484 9  11587746.278 8
  20142834.958    20142838.452    -6735629.141 8   6669590.283 5
  21577504.050    21577506.842    34417807.350 9 -38012876.477 9
 86  6 20  0 57 53.0800000  0  4G 6G13G 9G11
  21142335.811    21142339.028    15661329.842 9 -12337943.436 8
  21120684.623    21120688.200    -9884107.194 9  11579552.224 8
  20141803.571    20141805.087    -6741056.891 9   6665360.873 7
  21580005.327    21580010.308    34430958.039 9 -38002629.185 8
 86  6 20  0 57 59.0800000  0  4G 6G13G 9G11
  21144701.109    21144702.368    15673753.575 9 -12328262.614 8
  21118687.976    21118691.121    -9894603.357 9  11571373.421 8
  20140775.114    20140777.446    -6746462.632 8   6661148.607 7
  21582510.092    21582514.313    34444119.807 9 -37992373.261 8
 86  6 20  0 58  5.0800000  0  4G 6G13G 9G11
  21147069.486    21147071.481    15686197.944 9 -12318565.702 8
  21116693.046    21116697.266    -9905080.019 9  11563209.787 8
  20139750.387    20139753.242    -6751846.066 8   6656953.726 6
  21585017.502    21585021.119    34457292.599 8 -37982108.758 9
 86  6 20  0 58 11.0800000  0  4G 6G13G 9G11
  21149441.212    21149442.589    15698662.951 9 -12308852.701 8
  21114703.523    21114706.300    -9915537.244 9  11555061.310 7
  20138730.876    20138732.209    -6757207.342 8   6652776.116 6
  21587526.291    21587530.848    34470476.454 9 -37971835.613 7
 86  6 20  0 58 17.0800000  0  4G 6G13G 9G11
  21151817.511    21151819.262    15711148.565 9 -12299123.662 8
  21112717.149    21112721.230    -9925974.957 9  11546928.047 7
  20137715.048    20137714.645    -6762546.456 9   6648615.770 7
  21590036.982    21590040.212    34483671.369 9 -37961553.871 8
 86  6 20  0 58 23.0800000  0  4G 6G13G 9G11
  21154197.611    21154198.031    15723654.800 9 -12289378.549 7
  21110734.639    21110737.686    -9936393.132 9  11538809.980 8
  20136702.776    20136703.193    -6767863.275 9   6644472.792 7
  21592549.164    21592553.811    34496877.265 8 -37951263.564 8
 86  6 20  0 58 29.0800000  0  4G 6G13G 9G11
  21156581.299    21156582.286    15736181.554 9 -12279617.449 8
  21108755.304    21108758.809    -9946791.932 9  11530707.043 8
  20135694.876    20135694.857    -6773157.892 9   6640347.132 7
  21595065.175    21595068.967    34510094.083 9 -37940964.739 9
 86  6 20  0 58 35.0800000  0  4G 6G13G 9G11
  21158968.719    21158970.092    15748728.815 9 -12269840.352 7
  21106780.294    21106784.112    -9957171.232 9  11522619.284 7
  20134691.641    20134691.954    -6778430.264 8   6636238.782 7
  21597581.897    21597586.294    34523321.846 9 -37930657.389 7
 86  6 20  0 58 41.0800000  0  4G 6G13G 9G11
  21161360.758    21161360.240    15761296.735 9 -12260047.198 8
  21104809.660    21104811.561    -9967531.022 9  11514546.730 8
  20133693.032    20133694.089    -6783680.343 9   6632147.826 6
  21600101.167    21600105.966    34536560.528 9 -37920341.546 9
 86  6 20  0 58 47.0800000  0  4G 6G13G 9G11
  21163756.151    21163755.897    15773885.220 9 -12250237.977 8
  21102842.314    21102844.764    -9977871.309 9  11506489.375 8
  20132697.216    20132699.085    -6788908.214 8   6628074.153 6
  21602622.473    21602626.189    34549810.126 9 -37910017.183 9
 86  6 20  0 58 53.0800000  0  4G 6G13G 9G11
  21166156.260    21166155.439    15786494.261 9 -12240412.759 8
  21100877.493    21100880.726    -9988192.147 9  11498447.167 8
  20131707.028    20131708.185    -6794113.692 9   6624017.943 7
  21605146.408    21605150.092    34563070.638 9 -37899684.324 8
 86  6 20  0 58 59.0800000  0  4G 6G13G 9G11
  21168558.539    21168558.854    15799123.847 9 -12230571.513 7
  21098918.618    21098921.566    -9998493.463 9  11490420.186 8
  20130720.145    20130721.696    -6799296.808 8   6619979.151 7
  21607671.703    21607674.543    34576342.006 8 -37889342.998 8
 86  6 20  0 59  5.0800000  0  4G 6G13G 9G11
  21170966.129    21170966.717    15811773.997 9 -12220714.261 8
  21096961.694    21096963.325   -10008775.257 9  11482408.404 9
  20129737.636    20129740.463    -6804457.750 9   6615957.644 7
  21610199.432    21610203.157    34589624.194 9 -37878993.241 8
 86  6 20  0 59 11.0800000  0  4G 6G13G 9G11
  21173377.395    21173377.801    15824444.590 9 -12210841.065 8
  21095008.830    21095010.904   -10019037.589 9  11474411.797 8
  20128759.941    20128762.486    -6809596.302 8   6611953.568 7
  21612728.448    21612732.080    34602917.245 9 -37868635.020 9
 86  6 20  0 59 17.0800000  0  4G 6G13G 9G11
  21175791.853    21175793.848    15837135.763 9 -12200951.861 8
  21093059.119    21093062.252   -10029280.359 9  11466430.420 8
  20127786.953    20127789.076    -6814712.462 8   6607966.971 7
  21615260.930    21615264.115    34616221.084 9 -37858268.402 9
 86  6 20  0 59 23.0800000  0  4G 6G13G 9G11
  21178210.691    21178212.631    15849847.519 9 -12191046.591 8
  21091114.529    21091117.160   -10039503.655 9  11458464.231 9
  20126818.584    20126819.637    -6819806.146 9   6603997.856 7
  21617794.599    21617798.741    34629535.745 9 -37847893.346 8
 86  6 20  0 59 29.0800000  0  4G 6G13G 9G11
  21180633.620    21180635.600    15862579.747 9 -12181125.375 8
  21089173.254    21089174.914   -10049707.477 9  11450513.214 9
  20125853.841    20125854.617    -6824877.517 8   6600046.140 7
  21620330.875    21620334.038    34642861.138 9 -37837509.927 8
 86  6 20  0 59 35.0800000  0  4G 6G13G 9G11
  21183060.499    21183063.370    15875332.457 9 -12171188.221 7
  21087236.533    21087237.794   -10059891.730 9  11442577.451 7
  20124892.407    20124893.265    -6829926.385 9   6596111.956 7
  21622868.256    21622872.094    34656197.226 9 -37827118.166 8
 86  6 20  0 59 41.0800000  0  4G 6G13G 9G11
  21185490.738    21185494.076    15888105.623 9 -12161235.098 9
  21085301.216    21085303.901   -10070056.491 9  11434656.858 8
  20123936.302    20123935.289    -6834952.801 9   6592195.280 6
  21625408.256    21625411.564    34669543.990 9 -37816718.097 9
 86  6 20  0 59 47.0800000  0  4G 6G13G 9G11
  21187925.803    21187929.271    15900899.397 9 -12151265.933 8
  21083370.445    21083373.610   -10080201.782 9  11426751.452 8
  20122984.219    20122983.206    -6839956.813 9   6588296.062 6
  21627949.804    21627954.240    34682901.464 9 -37806309.669 8
 86  6 20  0 59 53.0800000  0  4G 6G13G 9G11
  21190364.495    21190367.280    15913713.574 9 -12141280.852 8
  21081443.773    21081447.075   -10090327.446 9  11418861.334 8
  20122036.598    20122036.707    -6844938.244 9   6584414.405 6
  21630494.758    21630497.150    34696269.669 9 -37795892.876 9
 86  6 20  0 59 59.0800000  0  4G 6G13G 9G11
  21192806.542    21192809.218    15926548.250 9 -12131279.812 8
  21079520.301    21079524.035   -10100433.623 9  11410986.397 8
  20121092.188    20121092.296    -6849897.287 7   6580550.216 6
  21633040.035    21633042.298    34709648.492 9 -37785467.826 9
 86  6 20  1  0  5.0800000  0  4G 6G13G 9G11
  21195252.784    21195255.641    15939403.337 9 -12121262.864 8
  21077601.323    21077604.256   -10110520.269 9  11403126.682 8
  20120153.167    20120152.729    -6854833.821 8   6576703.568 7
  21635588.665    21635591.347    34723037.979 9 -37775034.462 9
 86  6 20  1  0 11.0800000  0  4G 6G13G 9G11
  21197702.719    21197706.562    15952278.924 9 -12111229.938 8
  21075685.923    21075689.556   -10120587.337 9  11395282.220 9
  20119217.920    20119217.300    -6859747.820 9   6572874.484 6
  21638138.334    21638139.843    34736438.101 9 -37764592.801 8
 86  6 20  1  0 17.0800000  0  4G 6G13G 9G11
  21200156.768    21200160.411    15965174.977 9 -12101181.071 7
  21073774.039    21073776.403   -10130634.892 9  11387452.967 9
  20118286.275    20118287.612    -6864639.258 9   6569062.966 6
  21640690.341    21640692.868    34749848.896 9 -37754142.842 8
 86  6 20  1  0 23.0800000  0  4G 6G13G 9G11
  21202615.019    21202617.992    15978091.463 9 -12091116.259 7
  21071865.481    21071868.826   -10140662.986 9  11379638.882 9
  20117360.299    20117360.217    -6869508.183 8   6565268.991 7
  21643243.968    21643245.836    34763270.253 9 -37743684.642 8
 86  6 20  1  0 29.0800000  0  4G 6G13G 9G11
  21205076.360    21205079.050    15991028.331 9 -12081035.606 9
  21069960.213    21069964.191   -10150671.551 9  11371840.002 8
  20116437.576    20116438.741    -6874354.621 9   6561492.556 7
  21645800.070    21645803.118    34776702.134 9 -37733218.244 8
 86  6 20  1  0 35.0800000  0  4G 6G13G 9G11
  21207543.036    21207545.259    16003985.572 9 -12070939.049 8
  21068059.838    21068062.983   -10160660.626 9  11364056.317 8
  20115519.472    20115520.203    -6879178.448 7   6557733.732 6
  21648357.880    21648360.930    34790144.565 9 -37722743.634 9
 86  6 20  1  0 41.0800000  0  4G 6G13G 9G11
  21210012.247    21210015.295    16016963.231 9 -12060826.601 7
                  21066162.393   -10170630.198 9
  20114606.239    20114606.113    -6883979.600 8   6553992.585 6
  21650918.573    21650920.928    34803597.495 9 -37712260.806 9
 86  6 20  1  0 47.0800000  0  4G 6G13G 9G11
  21212485.614    21212488.123    16029961.281 9 -12050698.244 8
  21064269.611    21064272.962   -10180580.177 9  11402610.100 1
  20113696.289    20113695.976    -6888758.180 8   6550269.005 6
  21653480.122    21653483.225    34817060.947 9 -37701769.822 9
 86  6 20  1  0 53.0800000  0  4G 6G13G 9G11
  21214962.134    21214964.976    16042979.746 9 -12040553.989 7
  21062379.628    21062382.861   -10190510.660 9  11394872.076 8
  20112790.880    20112790.862    -6893514.196 8   6546563.030 7
  21656044.584    21656045.479    34830534.910 9 -37691270.633 8
 86  6 20  1  0 59.0800000  0  4G 6G13G 9G11
  21217444.190    21217446.817    16056018.670 9 -12030393.794 8
  21060493.619    21060497.026   -10200421.618 9  11387148.751 9
  20111891.634    20111891.353    -6898247.538 9   6542874.719 7
  21658611.151    21658612.363    34844019.313 9 -37680763.307 6
 86  6 20  1  1  5.0800000  0  4G 6G13G 9G11
  21219928.174    21219931.236    16069077.973 9 -12020217.722 8
  21058610.843    21058613.377   -10210313.050 9  11379441.153 9
  20110994.871    20110994.327    -6902958.150 8   6539204.106 6
  21661178.079    21661180.975    34857514.136 9 -37670247.848 8
 86  6 20  1  1 11.0800000  0  4G 6G13G 9G11
  21222417.567    21222420.111    16082157.624 9 -12010025.792 7
  21056732.701    21056736.508   -10220184.908 9  11371748.800 8
  20110103.434    20110101.661    -6907646.127 8   6535551.136 6
  21663747.518    21663750.763    34871019.330 9 -37659724.321 7
 86  6 20  1  1 17.0800000  0  4G 6G13G 9G11
  21224910.921    21224912.498    16095257.638 9 -11999817.994 8
  21054857.025    21054862.049   -10230037.170 9  11364071.726 8
  20109215.405    20109214.896    -6912311.436 8   6531915.846 6
  21666319.389    21666322.382    34884535.035 9 -37649192.614 8
 86  6 20  1  1 23.0800000  0  4G 6G13G 9G11
  21227407.864    21227410.024    16108378.020 9 -11989594.314 8
  21052985.472    21052989.976   -10239869.897 9  11356409.862 8
  20108331.912    20108332.212    -6916953.922 8   6528298.310 7
  21668893.956    21668896.263    34898061.061 9 -37638652.858 8
 86  6 20  1  1 29.0800000  0  4G 6G13G 9G11
  21229907.714    21229909.194    16121518.764 9 -11979354.772 8
  21051118.347    21051123.042   -10249683.114 9  11348763.220 9
  20107451.388    20107453.641    -6921573.744 8   6524698.458 7
  21671469.184    21671472.969    34911597.416 9 -37628105.049 8
 86  6 20  1  1 35.0800000  0  4G 6G13G 9G11
  21232411.765    21232414.384    16134679.821 9 -11969099.405 8
  21049254.404    21049258.651   -10259476.759 9  11341131.810 8
  20106577.300    20106578.431    -6926170.845 8   6521116.300 7
  21674047.370    21674049.820    34925144.117 9 -37617549.177 8
 86  6 20  1  1 41.0800000  0  4G 6G13G 9G11
  21234920.264    21234922.098    16147861.160 9 -11958828.232 7
  21047393.436    21047398.588   -10269250.922 9  11333515.578 8
  20105705.811    20105708.751    -6930745.228 9   6517551.842 7
  21676626.745    21676630.001    34938701.117 9 -37606985.287 8
 86  6 20  1  1 47.0800000  0  4G 6G13G 9G11
  21237432.764    21237434.200    16161062.850 9 -11948541.215 7
  21045537.960    21045542.870   -10279005.508 9  11325914.606 8
  20104838.228    20104843.081    -6935296.817 8   6514005.153 7
  21679208.632    21679211.098    34952268.427 9 -37596413.358 8
 86  6 20  1  1 53.0800000  0  4G 6G13G 9G11
  21239948.801    21239950.979    16174284.856 9 -11938238.352 7
  21043684.893    21043690.430   -10288740.490 9  11318328.923 8
  20103976.855    20103980.171    -6939825.620 7   6510476.216 6
  21681792.577    21681795.105    34965846.101 9 -37585833.358 8
 86  6 20  1  1 59.0800000  0  4G 6G13G 9G11
  21242468.947    21242470.338    16187527.187 9 -11927919.644 8
  21041835.714    21041840.451   -10298455.984 9  11310758.413 8
  20103121.792    20103121.816    -6944331.604 8   6506965.061 7
  21684378.149    21684380.167    34979434.016 9 -37575245.360 8
 86  6 20  1  2  5.0800000  0  4G 6G13G 9G11
  21244992.757    21244994.147    16200789.821 9 -11917585.134 7
  21039990.804    21039995.853   -10308151.913 9  11303203.165 8
  20102267.248    20102268.969    -6948814.731 8   6503471.718 7
  21686966.224    21686968.741    34993032.167 9 -37564649.405 9
 86  6 20  1  2 11.0800000  0  4G 6G13G 9G11
  21247520.808    21247522.175    16214072.703 9 -11907234.843 8
  21038149.237    21038154.157   -10317828.167 9  11295663.218 9
  20101420.155    20101419.954    -6953275.053 9   6499996.150 7
  21689556.166    21689557.867    35006640.577 9 -37554045.449 8
 86  6 20  1  2 17.0800000  0  4G 6G13G 9G11
  21250051.766    21250053.761    16227375.828 9 -11896868.769 7
  21036312.935    21036316.284   -10327484.988 9  11288138.444 9
  20100575.266    20100575.082    -6957712.520 8   6496538.377 7
  21692148.146    21692149.951    35020259.080 9 -37543433.625 8
 86  6 20  1  2 23.0800000  0  4G 6G13G 9G11
  21252587.664    21252589.639    16240699.277 9 -11886486.874 8
  21034478.555    21034482.732   -10337122.249 9  11280628.884 8
  20099735.013    20099737.259    -6962127.151 8   6493098.423 7
  21694741.286    21694743.261    35033887.766 9 -37532813.877 8
 86  6 20  1  2 29.0800000  0  4G 6G13G 9G11
  21255127.425    21255128.564    16254042.903 9 -11876089.224 8
  21032648.893    21032652.759   -10346739.938 9  11273134.585 8
  20098899.642    20098901.756    -6966518.925 7   6489676.262 6
  21697337.022    21697337.960    35047526.619 9 -37522186.192 8
 86  6 20  1  2 35.0800000  0  4G 6G13G 9G11
  21257670.690    21257670.764    16267406.829 9 -11865675.786 7
  21030822.698    21030825.189   -10356338.051 9  11265655.554 8
  20098067.275    20098068.769    -6970887.757 8   6486271.974 6
  21699934.722    21699935.336    35061175.632 9 -37511550.591 9
 86  6 20  1  2 41.0800000  0  4G 6G13G 9G11
  21260217.652    21260218.216    16280790.999 9 -11855246.547 7
  21028999.478    21029003.084   -10365916.597 9  11258191.763 8
  20097240.870    20097243.353    -6975233.719 8   6482885.491 7
  21702533.337    21702535.394    35074834.747 9 -37500907.129 8
 86  6 20  1  2 47.0800000  0  4G 6G13G 9G11
  21262765.730    21262769.026    16294195.394 9 -11844801.576 8
  21027180.405    21027183.596   -10375475.669 9  11250743.149 8
  20096417.827    20096419.757    -6979556.802 8   6479516.879 7
  21705134.259    21705136.152    35088503.906 9 -37490255.825 8
 86  6 20  1  2 53.0800000  0  4G 6G13G 9G11
  21265322.284    21265324.298    16307620.010 9 -11834340.827 8
  21025365.947    21025368.716   -10385015.180 9  11243309.783 8
  20095600.008    20095602.518    -6983856.892 8   6476166.165 7
  21707738.110    21707740.342    35102183.126 9 -37479596.689 8
 86  6 20  1  2 59.0800000  0  4G 6G13G 9G11
  21267881.354    21267881.097    16321064.840 9 -11823864.335 8
  21023554.455    21023556.091   -10394535.073 9  11235891.685 8
  20094786.027    20094789.437    -6988133.923 8   6472833.415 7
  21710342.805    21710343.990    35115872.478 9 -37468929.673 8
 86  6 20  1  3  5.0800000  0  4G 6G13G 9G11
  21270443.488    21270444.986    16334529.913 9 -11813372.087 8
  21021746.262    21021748.496   -10404035.434 9  11228488.814 8
  20093975.992    20093980.844    -6992388.115 8   6469518.476 7
  21712949.289    21712950.896    35129571.809 9 -37458254.872 8
 86  6 20  1  3 11.0800000  0  4G 6G13G 9G11
  21273009.854    21273012.081    16348015.207 9 -11802864.067 8
  21019942.826    21019944.984   -10413516.230 9  11221101.184 8
                  20093175.143                     6466221.497 7
  21715558.404    21715559.535    35143281.136 9 -37447572.277 8
 86  6 20  1  3 17.0800000  0  4G 6G13G 9G11
  21275579.870    21275580.896    16361520.655 9 -11792340.353 8
  21018142.100    21018144.721   -10422977.466 9  11213728.807 7
  20092371.394    20092374.955    -7033023.370 2   6462942.426 6
  21718169.167    21718170.975    35157000.480 9 -37436881.885 8
 86  6 20  1  3 23.0800000  0  4G 6G13G 9G11
                  21278155.293                   -11781800.906 8
  21016346.048    21016346.880   -10432419.130 9  11206371.662 8
  20091575.037    20091577.098    -7037208.424 8   6459681.336 7
  21720782.151    21720783.472    35170729.812 9 -37426183.689 8
 86  6 20  1  3 29.0800000  0  4G 6G13G 9G11
  21280730.304    21280732.518    16338399.061 1 -11771245.748 9
  21014552.871    21014553.686   -10441841.234 9  11199029.783 8
  20090782.785    20090784.924    -7041370.552 9   6456438.119 7
  21723396.608    21723397.595    35184469.098 9 -37415477.757 8
 86  6 20  1  3 35.0800000  0  4G 6G13G 9G11
  21283311.666    21283314.300    16351964.962 9 -11760674.937 8
  21012763.421    21012765.249   -10451243.787 9  11191703.131 8
  20089995.759    20089997.482    -7045509.612 9   6453212.892 7
  21726012.541    21726013.664    35198218.288 9 -37404764.110 9
 86  6 20  1  3 41.0800000  0  4G 6G13G 9G11
  21285897.923    21285899.483    16365551.057 9 -11750088.386 7
  21010977.983    21010979.233   -10460626.670 9  11184391.804 9
  20089212.078    20089212.753    -7049625.523 8   6450005.689 7
  21728630.428    21728633.347    35211977.466 9 -37394042.682 8
 86  6 20  1  3 47.0800000  0  4G 6G13G 9G11
  21288486.741    21288488.443    16379157.282 9 -11739486.140 8
  21009196.348    21009197.841   -10469989.993 9  11177095.715 8
  20088432.712    20088435.576    -7053718.429 8   6446816.399 7
  21731250.908    21731251.898    35225746.539 9 -37383313.531 8
 86  6 20  1  3 53.0800000  0  4G 6G13G 9G11
  21291079.792    21291081.930    16392783.628 9 -11728868.221 8
  21007418.614    21007420.749   -10479333.752 9  11169814.871 8
  20087657.900    20087660.840    -7057788.250 9   6443645.118 8
  21733873.373    21733874.999    35239525.419 9 -37372576.743 8
 86  6 20  1  3 59.0800000  0  4G 6G13G 9G11
  21293676.224    21293677.099    16406430.104 9 -11718234.600 8
  21005643.782    21005646.311   -10488657.954 9  11162549.270 8
  20086887.642    20086890.914    -7061834.929 8   6440491.861 7
  21736496.833    21736499.032    35253314.172 9 -37361832.254 9
 86  6 20  1  4  5.0800000  0  4G 6G13G 9G11
  21296277.307    21296279.081    16420096.692 9 -11707585.306 8
  21003873.109    21003873.872   -10497962.636 9  11155298.875 8
  20086122.437    20086125.520    -7065858.532 8   6437356.579 7
  21739122.214    21739124.310    35267112.765 9 -37351080.123 8
 86  6 20  1  4 11.0800000  0  4G 6G13G 9G11
  21298881.452    21298882.669    16433783.418 9 -11696920.333 6
                  21002106.316   -10507247.746 9
  20085362.067    20085363.285    -7069858.933 8   6434239.402 7
  21741749.811    21741751.588    35280921.158 9 -37340320.326 8
 86  6 20  1  4 17.0800000  0  4G 6G13G 9G11
  21301490.317    21301492.205    16447490.233 9 -11686239.700 8
  21000343.546    21000344.190   -10516513.313 9  11194382.336 2
  20084603.737    20084606.513    -7073836.280 8   6431140.158 7
  21744379.690    21744381.326    35294739.347 9 -37329552.904 8
 86  6 20  1  4 23.0800000  0  4G 6G13G 9G11
  21304101.658    21304103.029    16461217.065 9 -11675543.463 8
  20998583.599    20998586.518   -10525759.414 9  11187177.576 8
  20083852.467    20083854.099    -7077790.416 8   6428059.026 7
  21747010.448    21747012.809    35308567.230 9 -37318777.930 7
 86  6 20  1  4 29.0800000  0  4G 6G13G 9G11
  21306718.008    21306719.466    16474963.921 9 -11664831.635 7
  20996826.945    20996830.402   -10534985.887 9  11179988.624 8
  20083105.182    20083105.070    -7081721.451 8   6424995.893 8
  21749643.468    21749645.165    35322404.875 9 -37307995.347 8
 86  6 20  1  4 35.0800000  0  4G 6G13G 9G11
  21309337.319    21309339.164    16488730.832 8 -11654104.174 8
  20995074.813    20995077.990   -10544192.778 9  11172814.436 9
  20082360.506    20082361.401    -7085629.296 8   6421950.814 7
  21752278.604    21752281.701    35336252.281 9 -37297205.165 8
 86  6 20  1  4 41.0800000  0  4G 6G13G 9G11
  21311960.292    21311962.181    16502517.858 9 -11643361.035 7
  20993327.131    20993329.664   -10553380.080 9  11165655.503 8
  20081620.395    20081623.250    -7089513.898 8   6418923.841 7
  21754915.445    21754918.042    35350109.456 9 -37286407.358 8
 86  6 20  1  4 47.0800000  0  4G 6G13G 9G11
  21314588.078    21314591.699    16516324.921 9 -11632602.290 8
  20991582.205    20991585.385   -10562547.812 9  11158511.815 8
  20080885.171    20080887.912    -7093375.239 8   6415915.026 7
  21757553.776    21757555.357    35363976.334 9 -37275601.996 8
 86  6 20  1  4 53.0800000  0  4G 6G13G 9G11
  21317218.607    21317221.438    16530152.066 9 -11621827.896 8
  20989840.135    20989843.905   -10571695.959 9  11151383.394 9
  20080155.851    20080157.993    -7097213.404 9   6412924.244 7
  21760194.284    21760196.633    35377852.855 9 -37264789.122 8
 86  6 20  1  4 59.0800000  0  4G 6G13G 9G11
  21319855.145    21319857.620    16543999.212 9 -11611037.917 8
  20988103.112    20988106.488   -10580824.524 9  11144270.241 8
  20079429.317    20079432.178    -7101028.218 8   6409951.663 7
  21762837.373    21762839.403    35391739.045 9 -37253968.708 8
 86  6 20  1  5  5.0800000  0  4G 6G13G 9G11
  21322493.531    21322495.432    16557866.363 9 -11600232.347 8
  20986368.989    20986373.931   -10589933.559 9  11137172.299 8
  20078707.946    20078710.380    -7104819.864 8   6406997.153 7
  21765481.775    21765484.330    35405634.752 9 -37243140.894 7
 86  6 20  1  5 11.0800000  0  4G 6G13G 9G11
  21325135.995    21325138.854    16571753.472 9 -11589411.233 7
  20984639.025    20984644.758   -10599023.042 9  11130089.587 8
  20077991.550    20077992.762    -7108588.268 8   6404060.722 7
  21768127.367    21768130.349    35419540.075 9 -37232305.564 8
 86  6 20  1  5 17.0800000  0  4G 6G13G 9G11
  21327781.537    21327785.538    16585660.586 9 -11578574.535 8
  20982913.013    20982918.027   -10608092.903 9  11123022.167 8
  20077278.130    20077279.801    -7112333.340 8   6401142.511 8
  21770775.194    21770777.407    35433455.028 9 -37221462.746 9
 86  6 20  1  5 23.0800000  0  4G 6G13G 9G11
  21330433.169    21330435.889    16599587.683 9 -11567722.264 8
  20981191.300    20981196.076   -10617143.247 8  11115969.960 8
  20076570.038    20076572.884    -7116055.054 8   6398242.466 8
  21773425.587    21773427.490    35447379.482 9 -37210612.526 8
 86  6 20  1  5 29.0800000  0  4G 6G13G 9G11
  21333087.339    21333090.905    16613534.814 9 -11556854.385 8
  20979471.998    20979477.439   -10626174.062 9  11108932.965 7
  20075866.751    20075867.434    -7119753.522 9   6395360.556 7
  21776076.556    21776079.210    35461313.493 9 -37199754.858 8
 86  6 20  1  5 35.0800000  0  4G 6G13G 9G11
  21335745.628    21335748.064    16627501.907 9 -11545970.944 9
  20977757.855    20977761.922   -10635185.338 8  11101911.212 8
  20075166.830    20075168.830    -7123428.640 8   6392496.814 7
  21778730.968    21778732.087    35475257.102 9 -37188889.705 8
 86  6 20  1  5 41.0800000  0  4G 6G13G 9G11
  21338407.553    21338410.775    16641488.964 9 -11535071.948 9
  20976047.474    20976050.417   -10644177.034 9  11094904.704 8
  20074471.728    20074474.082    -7127080.272 8   6389651.398 7
  21781385.336    21781387.920    35489210.256 9 -37178017.125 8
 86  6 20  1  5 47.0800000  0  4G 6G13G 9G11
  21341072.695    21341075.687    16655495.927 8 -11524157.432 8
  20974340.030    20974343.879   -10653149.133 9  11087913.466 8
  20073781.503    20073782.865    -7130708.610 8   6386824.131 7
  21784042.591    21784045.542    35503172.910 9 -37167137.137 8
 86  6 20  1  5 53.0800000  0  4G 6G13G 9G11
  21343741.633    21343745.295    16669522.881 8 -11513227.368 8
  20972636.779    20972639.884   -10662101.699 9  11080937.440 7
  20073095.730    20073096.058    -7134313.614 9   6384015.024 8
  21786702.164    21786703.800    35517145.005 9 -37156249.800 8
 86  6 20  1  5 59.0800000  0  4G 6G13G 9G11
  21346415.460    21346418.364    16683569.720 9 -11502281.793 8
  20970936.700    20970939.608   -10671034.670 9  11073976.697 8
  20072413.375    20072415.749    -7137895.148 9   6381224.233 7
  21789362.812    21789364.014    35531126.544 9 -37145355.092 8
 86  6 20  1  6  5.0800000  0  4G 6G13G 9G11
  21349093.742    21349095.791    16697636.498 9 -11491320.663 8
  20969241.095    20969243.568   -10679948.037 9  11067031.227 8
  20071736.463    20071737.980    -7141453.323 9   6378451.623 7
  21792025.559    21792027.036    35545117.494 9 -37134453.054 9
 86  6 20  1  6 11.0800000  0  4G 6G13G 9G11
  21351773.207    21351774.468    16711723.188 9 -11480344.023 8
  20967549.005    20967550.379   -10688841.765 9  11060101.055 8
  20071063.939    20071066.870    -7144988.079 8   6375697.275 7
  21794689.804    21794692.026    35559117.836 9 -37123543.697 8
 86  6 20  1  6 17.0800000  0  4G 6G13G 9G11
  21354457.198    21354459.671    16725829.730 9 -11469351.938 8
  20965860.045    20965862.203   -10697715.986 9  11053186.088 8
  20070396.230    20070397.665    -7148499.390 8   6372961.193 7
  21797355.953    21797357.046    35573127.528 9 -37112627.059 9
 86  6 20  1  6 23.0800000  0  4G 6G13G 9G11
  21357145.335    21357147.741    16739956.120 9 -11458344.371 8
  20964176.117    20964176.832   -10706570.644 9  11046286.363 7
  20069732.509    20069734.802    -7151987.250 8   6370243.365 7
  21800023.625    21800024.199    35587146.586 9 -37101703.104 9
 86  6 20  1  6 29.0800000  0  4G 6G13G 9G11
  21359837.551    21359838.897    16754102.370 9 -11447321.318 7
  20962494.343    20962495.594   -10715405.808 9  11039401.836 7
  20069073.142    20069075.267    -7155451.710 8   6367543.804 7
  21802693.333    21802694.544    35601174.949 9 -37090771.926 9
 86  6 20  1  6 35.0800000  0  4G 6G13G 9G11
  21362534.176    21362535.810    16768268.557 9 -11436282.728 8
  20960817.011    20960817.916   -10724221.359 9  11032532.576 7
  20068418.861    20068418.778    -7158892.661 8   6364862.540 7
  21805364.188    21805366.051    35615212.642 9 -37079833.463 9
 86  6 20  1  6 41.0800000  0  4G 6G13G 9G11
  21365232.759    21365235.467    16782454.577 9 -11425228.702 8
  20959143.600    20959144.587   -10733017.359 9  11025678.557 8
  20067767.164    20067769.529    -7162310.146 8   6362199.562 7
  21808037.765    21808039.534    35629259.642 9 -37068887.755 9
 86  6 20  1  6 47.0800000  0  4G 6G13G 9G11
  21367935.809    21367938.586    16796660.369 9 -11414159.258 8
                  20957474.667   -10741793.671 9
  20067123.011    20067124.625    -7165704.040 9   6359554.964 7
  21810711.374    21810714.942    35643315.960 9 -37057934.780 8
 86  6 20  1  6 53.0800000  0  4G 6G13G 9G11
  21370642.934    21370645.401    16810886.043 9 -11403074.322 9
  20955807.792    20955806.708   -10750550.406 9  11065147.470 1
  20066480.346    20066482.409    -7169074.427 8   6356928.691 7
  21813388.624    21813390.319    35657381.532 9 -37046974.602 9
 86  6 20  1  6 59.0800000  0  4G 6G13G 9G11
  21373353.027    21373355.988    16825131.515 9 -11391973.960 7
  20954146.003    20954145.359   -10759287.528 9  11058339.327 7
  20065844.554    20065845.273    -7172421.317 9   6354320.713 7
  21816067.247    21816069.062    35671456.320 9 -37036007.236 9
 86  6 20  1  7  5.0800000  0  4G 6G13G 9G11
  21376067.193    21376070.267    16839396.830 9 -11380858.141 7
  20952486.912    20952486.122   -10768005.156 9  11051546.377 8
  20065212.040    20065213.138    -7175744.658 9   6351731.102 8
  21818747.451    21818749.234    35685540.389 9 -37025032.633 9
 86  6 20  1  7 11.0800000  0  4G 6G13G 9G11
  21378785.608    21378788.129    16853681.958 9 -11369726.872 8
  20950831.465    20950830.721   -10776703.231 9  11044768.676 8
  20064583.638    20064585.017    -7179044.445 9   6349159.839 7
  21821428.457    21821430.896    35699633.726 9 -37014050.825 9
 86  6 20  1  7 17.0800000  0  4G 6G13G 9G11
  21381507.448    21381510.477    16867986.846 9 -11358580.223 8
  20949179.471    20949179.543   -10785381.797 9  11038006.158 8
  20063960.589    20063963.148    -7182320.676 9   6346606.939 7
  21824111.087    21824114.806    35713736.162 9 -37003061.914 9
 86  6 20  1  7 23.0800000  0  4G 6G13G 9G11
  21384233.460    21384236.093    16882311.484 9 -11347418.170 7
  20947532.483    20947531.559   -10794040.842 9  11031258.868 8
  20063340.990    20063343.102    -7185573.323 9   6344072.406 7
  21826796.015    21826800.818    35727847.816 8 -36992065.819 9
 86  6 20  1  7 29.0800000  0  4G 6G13G 9G11
  21386962.281    21386965.658    16896655.920 9 -11336240.686 8
  20945887.868    20945888.732   -10802680.365 9  11024526.771 8
  20062727.059    20062728.460    -7188802.299 8   6341556.335 8
  21829483.601    21829486.627    35741968.613 9 -36981062.608 9
 86  6 20  1  7 35.0800000  0  4G 6G13G 9G11
  21389695.535    21389699.339    16911020.128 9 -11325047.808 7
  20944247.808    20944247.136   -10811300.290 9  11017809.951 7
  20062116.478    20062119.400    -7192007.738 7   6339058.578 7
  21832172.606    21832175.455    35756098.500 9 -36970052.315 9
 86  6 20  1  7 41.0800000  0  4G 6G13G 9G11
  21392433.241    21392435.142    16925404.028 9 -11313839.581 9
  20942610.748    20942610.679   -10819900.706 9  11011108.339 8
  20061511.590    20061513.582    -7195189.566 8   6336579.232 7
  21834862.573    21834865.474    35770237.485 9 -36959034.918 9
 86  6 20  1  7 47.0800000  0  4G 6G13G 9G11
  21395174.023    21395176.269    16939807.677 9 -11302615.956 7
  20940976.619    20940978.017   -10828481.570 9  11004421.952 8
  20060910.042    20060912.997    -7198347.743 8   6334118.318 7
  21837554.903    21837558.573    35784385.616 9 -36948010.415 9
 86  6 20  1  7 53.0800000  0  4G 6G13G 9G11
  21397918.940    21397921.571    16954231.133 9 -11291376.916 8
  20939348.015    20939348.939   -10837042.785 9  10997750.887 8
  20060314.360    20060316.044    -7201482.204 9   6331675.869 8
  21840249.306    21840251.215    35798542.849 9 -36936978.797 9
 86  6 20  1  7 59.0800000  0  4G 6G13G 9G11
  21400668.049    21400670.055    16968674.260 9 -11280122.541 8
  20937722.800    20937723.976   -10845584.467 9  10991095.027 8
  20059722.407    20059724.666    -7204593.046 8   6329251.861 8
  21842945.135    21842947.841    35812709.070 9 -36925940.190 9
 86  6 20  1  8  5.0800000  0  4G 6G13G 9G11
  21403419.867    21403421.911    16983137.079 9 -11268852.810 9
  20936099.651    20936102.647   -10854106.654 2  10984454.375 7
  20059134.682    20059137.422    -7207680.109 8   6326846.341 7
  21845642.571    21845645.595    35826884.302 9 -36914894.567 8
 86  6 20  1  8 11.0800000  0  4G 6G13G 9G11
  21406176.344    21406177.864    16997619.666 9 -11257567.695 8
  20934481.994    20934482.886   -10862609.243 9  10977828.998 7
  20058552.148    20058553.892    -7210743.526 8   6324459.276 7
  21848341.641    21848344.704    35841068.511 9 -36903841.937 9
 86  6 20  1  8 17.0800000  0  4G 6G13G 9G11
  21408935.799    21408938.076    17012121.904 9 -11246267.246 8
  20932868.140    20932869.875   -10871092.264 9  10971218.854 8
  20057973.445    20057976.581    -7213783.280 9   6322090.630 7
  21851041.605    21851045.145    35855261.684 9 -36892782.321 9
 86  6 20  1  8 23.0800000  0  4G 6G13G 9G11
  21411699.291    21411701.464    17026643.739 9 -11234951.541 8
  20931257.154    20931259.667   -10879555.688 9  10964623.989 8
  20057399.019    20057401.772    -7216799.278 8   6319740.512 7
                  21853747.989                   -36881715.682 9
 86  6 20  1  8 29.0800000  0  4G 6G13G 9G11
  21414466.645    21414467.606    17041185.283 9 -11223620.465 8
  20929650.722    20929653.054   -10887999.556 9  10958044.346 8
                  20056829.955    -7219791.563 8
  21856448.398    21856451.796    35832802.558 2 -36870642.047 9
 86  6 20  1  8 35.0800000  0  4G 6G13G 9G11
  21417238.249    21417239.434    17055746.522 9 -11212274.064 8
  20928047.285    20928050.407   -10896423.862 9  10951479.950 8
  20056265.459    20056268.027    -7222760.138 8   6363504.691 2
  21859156.448    21859158.574    35847022.680 9 -36859561.433 8
 86  6 20  1  8 41.0800000  0  4G 6G13G 9G11
  21420012.387    21420013.932    17070327.409 9 -11200912.337 8
  20926448.155    20926450.886   -10904828.593 9  10944930.815 7
  20055705.467    20055707.474    -7225704.876 9   6361210.095 7
  21861863.038    21861865.699    35861252.258 9 -36848473.847 9
 86  6 20  1  8 47.0800000  0  4G 6G13G 9G11
  21422791.617    21422792.433    17084927.932 9 -11189535.304 8
  20924852.506    20924855.594   -10913213.700 9  10938396.973 8
  20055149.448    20055151.396    -7228625.768 8   6358934.078 7
  21864572.721    21864576.240    35875490.227 9 -36837379.323 9
 86  6 20  1  8 53.0800000  0  4G 6G13G 9G11
  21425573.510    21425574.769    17099548.103 9 -11178142.971 9
  20923259.727    20923263.851   -10921579.231 9  10931878.386 8
  20054598.148    20054599.112    -7231522.913 9   6356676.586 6
  21867283.118    21867286.625    35889737.088 9 -36826277.880 9
 86  6 20  1  8 59.0800000  0  4G 6G13G 9G11
  21428359.763    21428360.483    17114187.890 9 -11166735.346 8
  20921671.922    20921674.769   -10929925.182 9  10925375.043 8
  20054051.817    20054052.952    -7234396.267 8   6354437.590 6
  21869997.906    21869998.394    35903992.841 9 -36815169.505 9
 86  6 20  1  9  5.0800000  0  4G 6G13G 9G11
  21431148.426    21431150.545    17128847.251 9 -11155312.477 8
  20920087.700    20920091.108   -10938251.576 9  10918886.966 8
  20053509.206    20053509.900    -7237245.827 9   6352217.168 8
  21872710.766    21872713.618    35918257.346 9 -36804054.305 9
 86  6 20  1  9 11.0800000  0  4G 6G13G 9G11
  21433941.910    21433943.240    17143526.213 9 -11143874.331 8
  20918506.643    20918510.469   -10946558.350 9  10912414.143 8
  20052971.052    20052971.547    -7240071.507 8   6350015.350 7
  21875426.575    21875429.211    35932530.674 9 -36792932.232 9
 86  6 20  1  9 17.0800000  0  4G 6G13G 9G11
  21436738.940    21436740.400    17158224.746 9 -11132420.933 8
  20916930.351    20916932.354   -10954845.629 9  10905956.533 8
  20052437.822    20052438.761    -7242873.332 8   6347832.113 7
  21878143.614    21878147.786    35946812.797 9 -36781803.304 9
 86  6 20  1  9 23.0800000  0  4G 6G13G 9G11
  21439540.195    21439541.339    17172942.852 9 -11120952.283 8
  20915357.026    20915360.295   -10963113.358 9  10899514.158 8
  20051909.617    20051908.617    -7245651.316 8   6345667.455 7
                  21880863.825    35961103.700 9
 86  6 20  1  9 29.0800000  0  4G 6G13G 9G11
  21442344.236    21442347.316    17187680.505 9 -11109468.404 8
  20913787.677    20913790.989   -10971361.534 9  10893087.018 8
  20051386.097    20051385.033    -7248405.453 9   6343521.378 6
  21883587.067    21883588.795    35975403.353 9 -36724718.437 1
 86  6 20  1  9 35.0800000  0  4G 6G13G 9G11
  21445152.531    21445155.604    17202437.623 9 -11097969.352 8
  20912221.863    20912224.893   -10979590.205 9  10886675.067 8
  20050866.129    20050865.468    -7251135.678 8   6341393.927 6
  21886308.525    21886311.659    35989711.727 9 -36713569.059 9
 86  6 20  1  9 41.0800000  0  4G 6G13G 9G11
  21447964.745    21447965.190    17217214.253 9 -11086455.093 7
  20910660.564    20910662.118   -10987799.446 9  10880278.272 8
  20050351.137    20050350.585    -7253842.096 9   6339285.041 7
  21889032.464    21889035.877    36004028.780 9 -36702413.429 9
 86  6 20  1  9 47.0800000  0  4G 6G13G 9G11
  21450779.633    21450782.522    17232010.403 9 -11074925.635 7
  20909101.949    20909103.732   -10995989.137 9  10873896.701 8
  20049840.654    20049840.098    -7256524.554 9   6337194.823 6
  21891758.868    21891762.371    36018354.461 9 -36691250.560 8
 86  6 20  1  9 53.0800000  0  4G 6G13G 9G11
  21453599.487    21453600.378    17246826.094 9 -11063380.936 9
  20907547.654    20907548.277   -11004159.217 9  10867530.418 8
  20049335.086    20049334.368    -7259183.039 9   6335123.276 7
  21894487.084    21894489.632    36032688.898 9 -36680080.867 9
 86  6 20  1  9 59.0800000  0  4G 6G13G 9G11
  21456422.662    21456423.951    17261661.296 9 -11051821.045 8
  20905996.801    20905999.268   -11012309.844 9  10861179.279 8
  20048834.485    20048833.699    -7261817.662 9   6333070.334 7
  21897215.498    21897219.403    36047031.967 9 -36668904.456 9
 86  6 20  1 10  5.0800000  0  4G 6G13G 9G11
  21459250.044    21459251.157    17276515.990 9 -11040245.940 8
  20904449.399    20904451.144   -11020440.924 9  10854843.383 7
  20048337.011    20048337.189    -7264428.358 9   6331036.020 7
  21899946.936    21899950.227    36061383.683 9 -36657721.306 9
 86  6 20  1 10 11.0800000  0  4G 6G13G 9G11
  21462079.342    21462081.001    17291390.186 9 -11028655.676 7
                  20902906.433   -11028552.395 9
  20047844.885    20047845.325    -7267015.036 9   6329020.441 7
  21902679.685    21902684.097    36075744.014 9 -36646531.433 9
 86  6 20  1 10 17.0800000  0  4G 6G13G 9G11
  21464914.567    21464916.882    17306283.921 9 -11017050.161 7
  20901366.452    20901410.410   -11036644.238 9  10894817.044 7
  20047356.852    20047358.260    -7269577.698 9   6327023.570 6
  21905414.655    21905417.871    36090112.997 9 -36635334.822 9
 86  6 20  1 10 23.0800000  0  4G 6G13G 9G11
  21467752.261    21467753.937    17321197.031 9 -11005429.557 8
  20899829.934    20899830.371   -11044716.563 9  10888526.841 6
  20046873.965    20046873.801    -7272116.427 9   6325045.332 7
  21908150.781    21908153.678    36104490.496 9 -36624131.590 9
 86  6 20  1 10 29.0800000  0  4G 6G13G 9G11
  21470594.326    21470594.682    17336129.545 9 -10993793.847 8
  20898297.448    20898299.231   -11052769.350 9  10882251.444 7
  20046395.719    20046396.147    -7274631.252 9   6323085.726 7
  21910887.364    21910892.180    36118876.526 9 -36612921.690 7
 86  6 20  1 10 35.0800000  0  4G 6G13G 9G11
  21473438.807    21473440.527    17351081.497 9 -10982142.980 8
  20896768.605    20896769.510   -11060802.628 9  10875991.767 8
  20045921.050    20045921.873    -7277121.851 9   6321145.010 6
  21913627.330    21913629.986    36133271.111 9 -36601705.123 8
 86  6 20  1 10 41.0800000  0  4G 6G13G 9G11
  21476288.456    21476289.829    17366052.898 9 -10970476.955 8
  20895243.849    20895244.608   -11068816.424 9  10869747.252 8
  20045452.057    20045452.896    -7279588.572 9   6319222.881 7
  21916368.430    21916370.976    36147674.188 9 -36590481.953 8
 86  6 20  1 10 47.0800000  0  4G 6G13G 9G11
  21479141.405    21479141.594    17381043.693 9 -10958795.828 8
  20893722.516    20893723.426   -11076810.637 9  10863518.010 8
  20044987.625    20044986.494    -7282031.163 9   6317319.570 8
  21919110.748    21919115.584    36162085.788 9 -36579252.147 8
 86  6 20  1 10 53.0800000  0  4G 6G13G 9G11
  21481997.490    21481998.280    17396053.931 9 -10947099.538 8
  20892204.757    20892206.434   -11084785.354 9  10857303.943 8
  20044527.085    20044527.514    -7284449.769 9   6315434.943 7
  21921855.152    21921857.673    36176505.808 9 -36568015.764 9
 86  6 20  1 10 59.0800000  0  4G 6G13G 9G11
  21484857.025    21484859.342    17411083.561 9 -10935388.143 8
  20890689.895    20890691.829   -11092740.557 9  10851105.094 8
  20044071.247    20044071.415    -7286844.356 9   6313569.034 7
  21924600.118    21924604.161    36190934.360 9 -36556772.737 8
 86  6 20  1 11  5.0800000  0  4G 6G13G 9G11
  21487720.952    21487722.582    17426132.512 9 -10923661.685 7
  20889179.937    20889180.790   -11100676.211 9  10844921.479 8
  20043619.543    20043619.816    -7289214.783 9   6311721.939 7
  21927347.655    21927350.597    36205371.369 9 -36545523.121 8
 86  6 20  1 11 11.0800000  0  4G 6G13G 9G11
  21490587.627    21490589.513    17441200.852 8 -10911920.140 8
  20887672.681    20887675.823   -11108592.383 9  10838753.048 8
  20043173.329    20043174.629    -7291561.096 9   6309893.648 7
  21930096.708    21930099.580    36219816.815 9 -36534266.936 8
 86  6 20  1 11 17.0800000  0  4G 6G13G 9G11
  21493458.677    21493461.309    17456288.445 9 -10900163.577 8
  20886170.803    20886172.597   -11116489.091 9  10832599.766 8
  20042731.224    20042733.441    -7293883.385 9   6308084.070 8
  21932846.706    21932850.555    36234270.561 9 -36523004.283 8
 86  6 20  1 11 23.0800000  0  4G 6G13G 9G11
  21496333.928    21496335.799    17471395.414 9 -10888391.908 9
  20884671.282    20884674.585   -11124366.166 9  10826461.808 7
  20042294.433    20042295.149    -7296181.595 9   6306293.259 7
  21935599.394    21935602.875    36248732.723 9 -36511735.059 8
 86  6 20  1 11 29.0800000  0  4G 6G13G 9G11
  21499212.348    21499214.034    17486521.717 9 -10876605.190 9
  20883175.981    20883178.931   -11132223.720 9  10820339.033 8
  20041861.208    20041862.639    -7298455.639 9   6304521.271 7
  21938352.756    21938355.718    36263203.296 9 -36500459.296 8
 86  6 20  1 11 35.0800000  0  4G 6G13G 9G11
  21502094.205    21502096.166    17501667.381 9 -10864803.387 8
  20881684.356    20881688.360   -11140061.718 9  10814231.503 7
  20041432.133    20041435.119    -7300705.615 9   6302768.039 6
  21941107.946    21941110.145    36277682.219 9 -36489177.010 8
 86  6 20  1 11 41.0800000  0  4G 6G13G 9G11
  21504980.897    21504982.867    17516832.358 9 -10852986.528 7
  20880196.733    20880198.910   -11147880.215 9  10808139.182 7
                  20041008.734    -7302939.364 8
  21943865.218    21943867.250    36292169.469 9 -36477888.248 8
 86  6 20  1 11 47.0800000  0  4G 6G13G 9G11
  21507869.966    21507871.498    17532016.558 9 -10841154.683 8
  20878712.343    20878714.109   -11155679.231 8  10802062.023 8
  20040589.883    20040591.535    -7305140.998 8   6371888.612 6
  21946622.443    21946625.827    36306664.957 9 -36466593.078 8
 86  6 20  1 11 53.0800000  0  4G 6G13G 9G11
                  21510764.357                   -10829307.798 7
  20877232.357    20877235.374   -11163458.796 9  10796000.033 7
  20040175.504    20040178.999    -7307318.545 9   6370191.847 8
  21949382.994    21949384.731    36321168.689 9 -36455291.455 8
 86  6 20  1 11 59.0800000  0  4G 6G13G 9G11
  21513691.399    21513662.094    17510538.427 9 -10817445.980 8
  20875755.357    20875757.555   -11171218.816 9  10789953.279 7
  20039765.865    20039769.384    -7309471.756 8   6368514.513 7
                  21952144.292    36335680.352 6
 86  6 20  1 12  5.0800000  0  4G 6G13G 9G11
  21516560.091    21516562.025    17525780.309 6 -10805569.036 7
  20874282.311    20874285.019   -11178959.390 9  10783921.655 7
  20039360.584    20039362.983    -7311600.884 9   6366855.444 7
                  21954907.766    36350201.579 9
 86  6 20  1 12 11.0800000  0  4G 6G13G 9G11
  21519463.470    21519467.618    17541041.609 9 -10793677.148 8
  20872812.643    20872815.843   -11186680.477 9  10777905.223 8
  20038959.722    20038963.194    -7313705.772 9   6365215.277 8
  21957672.331    21957673.928    36364729.609 9 -36368092.896 8
 86  6 20  1 12 17.0800000  0  4G 6G13G 9G11
  21522370.957    21522374.875    17556321.536 9 -10781770.326 9
  20871347.362    20871349.837   -11194382.142 9  10771903.946 8
  20038563.746    20038565.821    -7315786.512 9   6363593.930 7
  21960438.826    21960440.609    36379266.308 9 -36356765.591 8
 86  6 20  1 12 23.0800000  0  4G 6G13G 9G11
  21525282.445    21525286.251    17571621.148 9 -10769848.564 8
  20869885.913    20869889.069   -11202064.184 9  10765917.938 7
  20038173.620    20038173.883    -7317843.090 8   6361991.391 7
  21963206.723    21963209.499    36393811.190 9 -36345431.912 8
 86  6 20  1 12 29.0800000  0  4G 6G13G 9G11
  21528197.855    21528201.606    17586939.975 9 -10757911.806 9
  20868427.806    20868431.088   -11209726.789 9  10759947.090 7
  20037786.106    20037788.424    -7319875.325 9   6360407.830 7
  21965976.005    21965979.196    36408364.165 9 -36334091.934 8
 86  6 20  1 12 35.0800000  0  4G 6G13G 9G11
  21531117.205    21531119.875    17602278.071 9 -10745960.050 8
  20866973.540    20866975.935   -11217369.791 9  10753991.516 8
  20037404.112    20037407.197    -7321883.255 9   6358843.220 7
  21968747.451    21968749.042    36422925.433 9 -36322745.489 8
 86  6 20  1 12 41.0800000  0  4G 6G13G 9G11
  21534039.369    21534042.988    17617635.259 8 -10733993.420 8
  20865521.863    20865525.132   -11224993.347 9  10748051.089 7
  20037026.287    20037028.501    -7323866.916 9   6357297.511 7
  21971520.114    21971521.177    36437494.806 9 -36311392.745 8
 86  6 20  1 12 47.0800000  0  4G 6G13G 9G11
  21536964.983    21536967.331    17633011.719 9 -10722011.758 8
  20864076.440    20864078.061   -11232597.358 9  10742125.908 7
  20036653.913    20036656.051    -7325826.348 9   6355770.695 7
  21974293.901    21974294.703    36452072.278 9 -36300033.675 8
 86  6 20  1 12 53.0800000  0  4G 6G13G 9G11
  21539894.401    21539897.309    17648407.371 9 -10710015.137 8
                  20862632.099   -11240181.923 9
  20036285.635    20036287.056    -7327761.406 9   6354262.856 8
  21977068.595    21977070.946    36466657.865 9 -36288668.274 8
 86  6 20  1 12 59.0800000  0  4G 6G13G 9G11
  21542829.117    21542832.323    17663822.098 9 -10698003.676 9
  20861193.362    20861237.348   -11247747.003 9  10782504.602 8
  20035922.296    20035922.574    -7329672.261 9   6352773.892 8
  21979845.897    21979847.471    36481251.512 9 -36277296.596 8
 86  6 20  1 13  5.0800000  0  4G 6G13G 9G11
  21545765.376    21545767.537    17679255.962 9 -10685977.282 8
  20859757.431    20859758.699   -11255292.552 9  10776624.855 5
  20035562.330    20035565.131    -7331558.790 9   6351303.860 7
  21982624.997    21982626.685    36495853.204 9 -36265918.658 9
 86  6 20  1 13 11.0800000  0  4G 6G13G 9G11
  21548706.688    21548708.478    17694708.987 9 -10673935.964 8
  20858325.173    20858327.047   -11262818.572 9  10770760.929 7
  20035208.566    20035209.471    -7333420.935 8   6349852.844 7
  21985404.930    21985406.468    36510462.971 9 -36254534.429 8
 86  6 20  1 13 17.0800000  0  4G 6G13G 9G11
                  21551650.346    17710181.121 9
  20856896.890    20856899.082   -11270325.165 9  10764911.654 7
  20034858.853    20034859.142    -7335258.826 8   6348420.715 7
  21988186.923    21988188.792    36525080.757 9 -36243143.947 8
 86  6 20  1 13 23.0800000  0  4G 6G13G 9G11
  21554597.482    21554599.627    17725672.312 9 -10615930.695 4
  20855472.464    20855473.709   -11277812.389 9  10759077.456 7
  20034513.421    20034514.597    -7337072.319 9   6347007.611 7
  21990969.832    21990972.407    36539706.512 9 -36231747.256 9
 86  6 20  1 13 29.0800000  0  4G 6G13G 9G11
  21557548.839    21557550.995    17741182.590 9 -10603844.768 9
                  20854050.869   -11285280.192 9
  20034172.747    20034174.213    -7338861.518 9   6345613.432 7
  21993754.343    21993756.496    36554340.204 9 -36220344.376 9
 86  6 20  1 13 35.0800000  0  4G 6G13G 9G11
  21560503.998    21560506.334    17756711.933 9 -10591743.982 8
  20852632.719    20852634.717   -11292728.480 9  10799557.056 1
  20033836.346    20033838.596    -7340626.299 9   6344238.290 7
  21996540.509    21996542.091    36568981.850 9 -36208935.305 9
 86  6 20  1 13 41.0800000  0  4G 6G13G 9G11
  21563462.542    21563465.802    17772260.316 8 -10579628.366 7
  20851219.866    20851221.587   -11300157.201 9  10793768.442 7
  20033505.787    20033507.862    -7342366.728 8   6342882.113 7
  21999329.048    21999330.798    36583631.420 9 -36197520.058 9
 86  6 20  1 13 47.0800000  0  4G 6G13G 9G11
  21566424.770    21566428.489    17787827.771 9 -10567497.895 8
  20849810.200    20849811.971   -11307566.456 9  10787994.507 8
  20033178.279    20033179.478    -7344082.726 8   6341544.959 7
  22002117.212    22002119.933    36598288.849 6 -36186098.677 9
 86  6 20  1 13 53.0800000  0  4G 6G13G 9G11
  21569391.064    21569393.727    17803414.228 9 -10555352.605 9
  20848403.686    20848406.441   -11314956.309 9  10782236.180 8
  20032857.384    20032856.880    -7345774.365 8   6340226.817 7
  22004908.070    22004911.783    36612954.151 9 -36174671.183 8
 86  6 20  1 13 59.0800000  0  4G 6G13G 9G11
  21572359.763    21572363.558    17819019.693 9 -10543192.518 8
  20847001.900    20847003.654   -11322326.694 9  10776493.036 8
  20032539.017    20032540.632    -7347441.596 8   6338927.655 7
  22007700.209    22007701.702    36627627.278 9 -36163237.576 8
 86  6 20  1 14  5.0800000  0  4G 6G13G 9G11
  21575333.069    21575336.823    17834644.153 9 -10531017.613 8
  20845602.467    20845604.553   -11329677.640 9  10770765.036 7
  20032225.928    20032227.802    -7349084.477 9   6337647.510 7
  22010493.400    22010496.780    36642308.237 9 -36151797.875 9
 86  6 20  1 14 11.0800000  0  4G 6G13G 9G11
  21578310.986    21578313.218    17850287.544 9 -10518827.966 8
  20844208.097    20844209.184   -11337009.116 9  10765052.207 8
  20031919.000    20031920.483    -7350702.889 8   6336386.411 7
  22013288.737    22013290.890    36656996.973 9 -36140352.109 8
 86  6 20  1 14 17.0800000  0  4G 6G13G 9G11
  21581291.359    21581293.395    17865949.922 9 -10506623.534 7
  20842816.015    20842818.434   -11344321.159 9  10759354.510 8
  20031615.640    20031617.698    -7352296.842 8   6335144.372 7
  22016085.674    22016088.258    36671693.578 9 -36128900.209 8
 86  6 20  1 14 23.0800000  0  4G 6G13G 9G11
                  21584275.829    17881631.282 9
  20841428.253    20841429.108   -11351613.805 9  10753671.944 8
  20031317.290    20031318.283    -7353866.302 9   6333921.427 6
  22018883.886    22018885.362    36686398.002 9 -36117442.216 8
 86  6 20  1 14 29.0800000  0  4G 6G13G 9G11
  21587263.316    21587263.448    17897331.632 9 -10443896.737 8
  20840044.096    20840046.674   -11358887.067 9  10748004.470 8
  20031023.689    20031025.347    -7355411.307 8   6332717.515 7
  22021683.659    22021686.199    36701110.218 9 -36105978.151 8
 86  6 20  1 14 35.0800000  0  4G 6G13G 9G11
  21590255.338    21590256.908    17913050.929 9 -10431647.943 7
                  20838663.196   -11366140.876 9
  20030735.105    20030735.205    -7356931.890 8   6331532.661 7
  22024484.369    22024486.431    36715830.149 9 -36094508.076 9
 86  6 20  1 14 41.0800000  0  4G 6G13G 9G11
  21593249.449    21593249.968    17928789.086 9 -10419383.944 9
  20837287.989    20837289.293   -11373375.197 8  10788648.020 1
  20030450.422    20030451.299    -7358428.045 8   6330366.820 7
  22027286.106    22027289.913    36730557.769 9 -36083032.011 8
 86  6 20  1 14 47.0800000  0  4G 6G13G 9G11
  21596248.457    21596248.141    17944546.150 9 -10407105.698 7
  20835914.174    20835916.160   -11380590.083 9  10783026.040 8
  20030170.371    20030170.585    -7359899.615 9   6329220.133 7
  22030091.238    22030093.485    36745293.110 9 -36071549.934 9
 86  6 20  1 14 53.0800000  0  4G 6G13G 9G11
  21599250.410    21599249.034    17960322.152 9 -10394812.721 8
  20834543.958    20834546.834   -11387785.567 9  10777419.168 9
  20029894.174    20029895.744    -7361346.713 9   6328092.523 7
  22032895.913    22032899.483    36760036.193 9 -36060061.827 6
 86  6 20  1 14 59.0800000  0  4G 6G13G 9G11
  21602256.167    21602255.512    17976117.073 9 -10382504.994 7
  20833178.340    20833180.987   -11394961.566 9  10771827.479 8
  20029623.607    20029624.288    -7362769.246 8   6326984.069 8
  22035703.611    22035708.333    36774786.997 9 -36048567.692 8
 86  6 20  1 15  5.0800000  0  4G 6G13G 9G11
  21605266.051    21605265.234    17991930.844 9 -10370182.565 7
  20831815.761    20831819.261   -11402118.161 9  10766250.904 8
  20029357.689    20029357.994    -7364167.278 9   6325894.677 8
  22038511.012    22038515.116    36789545.465 9 -36037067.593 8
 86  6 20  1 15 11.0800000  0  4G 6G13G 9G11
  21608278.020    21608277.904    18007763.402 9 -10357845.502 7
  20830457.544    20830460.632   -11409255.350 9  10760689.470 9
  20029096.669    20029096.301    -7365540.841 9   6324824.363 8
  22041321.285    22041324.671    36804311.509 9 -36025561.596 8
 86  6 20  1 15 17.0800000  0  4G 6G13G 9G11
  21611295.056    21611294.252    18023614.881 9 -10345493.710 7
  20829103.291    20829107.544   -11416373.111 9  10755143.162 8
  20028840.358    20028841.962    -7366889.741 9   6323773.279 8
  22044133.148    22044136.281    36819085.184 9 -36014049.642 8
 86  6 20  1 15 23.0800000  0  4G 6G13G 9G11
  21614315.068    21614314.620    18039485.252 9 -10333127.190 8
  20827753.196    20827756.762   -11423471.365 9  10749612.050 8
  20028587.842    20028589.202    -7368214.035 9   6322741.349 7
  22046945.833    22046949.513    36833866.524 9 -36002531.716 8
 86  6 20  1 15 29.0800000  0  4G 6G13G 9G11
  21617338.884    21617337.595    18055374.431 9 -10320746.005 8
  20826406.360    20826409.981   -11430550.246 9  10744096.064 8
  20028341.184    20028341.608    -7369513.726 8   6321728.595 7
  22049759.837    22049763.276    36848655.418 9 -35991007.915 9
 86  6 20  1 15 35.0800000  0  4G 6G13G 9G11
  21620366.538    21620364.953    18071282.435 9 -10308350.177 8
  20825062.212    20825065.203   -11437609.731 9  10738595.175 7
  20028098.480    20028099.391    -7370788.947 9   6320734.923 7
  22052575.179    22052578.062    36863451.873 9 -35979478.210 8
 86  6 20  1 15 41.0800000  0  4G 6G13G 9G11
  21623396.594    21623397.354    18087209.214 9 -10295939.698 8
  20823723.247    20823726.401   -11444649.776 9  10733109.420 8
  20027860.841    20027859.462    -7372039.516 9   6319760.438 7
  22055392.663    22055395.406    36878255.870 9 -35967942.627 8
 86  6 20  1 15 47.0800000  0  4G 6G13G 9G11
  21626431.115    21626430.900    18103154.773 8 -10283514.600 8
  20822387.286    20822390.082   -11451670.362 9  10727638.845 8
  20027626.104    20027627.006    -7373265.568 9   6318805.082 7
  22058211.481    22058212.886    36893067.402 9 -35956401.180 8
 86  6 20  1 15 53.0800000  0  4G 6G13G 9G11
  21629468.297    21629468.685    18119119.075 9 -10271074.870 8
  20821055.186    20821058.246   -11458671.619 9  10722183.341 8
  20027398.420    20027398.817    -7374466.982 9   6317868.911 7
  22061031.708    22061033.619    36907886.398 9 -35944853.902 8
 86  6 20  1 15 59.0800000  0  4G 6G13G 9G11
  21632510.175    21632510.719    18135102.152 9 -10258620.551 8
  20819726.947    20819729.798   -11465653.457 9  10716742.948 7
  20027174.048    20027175.741    -7375643.744 9   6316951.953 8
  22063852.081    22063854.676    36922712.970 9 -35933300.737 7
 86  6 20  1 16  5.0800000  0  4G 6G13G 9G11
  21635555.715    21635555.642    18151103.966 9 -10246151.605 7
  20818401.981    20818405.087   -11472615.916 9  10711317.663 8
  20026955.465    20026955.841    -7376795.871 8   6316054.186 7
  22066675.342    22066678.414    36937546.946 9 -35921741.794 9
 86  6 20  1 16 11.0800000  0  4G 6G13G 9G11
  21638604.828    21638604.133    18167124.515 9 -10233668.063 8
  20817080.219    20817082.677   -11479558.949 9  10705907.512 9
  20026740.254    20026741.369    -7377923.272 9   6315175.695 8
  22069499.740    22069502.400    36952388.388 9 -35910177.038 8
 86  6 20  1 16 17.0800000  0  4G 6G13G 9G11
  21641656.521    21641655.665    18183163.811 9 -10221169.921 7
  20815763.115    20815765.481   -11486482.603 9  10700512.466 8
  20026530.187    20026533.159    -7379026.036 9   6314316.402 7
  22072325.826    22072327.107    36967237.242 9 -35898606.511 8
 86  6 20  1 16 23.0800000  0  4G 6G13G 9G11
  21644712.394    21644713.036    18199221.778 9 -10208657.217 7
  20814449.342    20814451.491   -11493386.882 9  10695132.526 8
  20026325.762    20026326.841    -7380104.186 9   6313476.271 7
  22075152.484    22075153.440    36982093.521 9 -35887030.174 8
 86  6 20  1 16 29.0800000  0  4G 6G13G 9G11
  21647771.813    21647770.809    18215298.475 9 -10196129.946 7
  20813140.197    20813140.724   -11500271.763 9  10689767.673 7
  20026126.258    20026126.999    -7381157.611 9   6312655.417 8
  22077981.061    22077982.167    36996957.222 9 -35875448.076 7
 86  6 20  1 16 35.0800000  0  4G 6G13G 9G11
  21650833.921    21650835.696    18231393.711 9 -10183588.193 8
  20811832.623    20811834.684   -11507137.356 9  10684417.869 7
  20025930.386    20025930.885    -7382186.435 9   6311853.738 8
  22080810.310    22080812.430    37011828.233 9 -35863860.279 9
 86  6 20  1 16 41.0800000  0  4G 6G13G 9G11
  21653901.010    21653901.457    18247507.687 9 -10171031.853 7
  20810529.654    20810532.044   -11513983.521 8  10679083.215 8
  20025739.558    20025740.394    -7383190.626 8   6311071.252 8
  22083642.125    22083643.526    37026706.624 9 -35852266.732 9
 86  6 20  1 16 47.0800000  0  4G 6G13G 9G11
  21656971.018    21656971.444    18263640.349 9 -10158460.942 7
  20809230.062    20809232.254   -11520810.321 9  10673763.640 8
  20025553.171    20025553.945    -7384170.024 9   6310308.082 7
  22086473.808    22086475.420    37041592.360 9 -35840667.455 8
 86  6 20  1 16 53.0800000  0  4G 6G13G 9G11
  21660045.375    21660043.861    18279791.695 9 -10145875.489 8
  20807934.548    20807937.467   -11527617.752 9  10668459.147 7
  20025371.060    20025372.380    -7385124.663 9   6309564.198 8
  22089307.429    22089309.626    37056485.470 9 -35829062.439 9
 86  6 20  1 16 59.0800000  0  4G 6G13G 9G11
  21663122.024    21663120.880    18295961.632 9 -10133275.549 8
  20806642.010    20806645.844   -11534405.823 9  10663169.765 8
  20025193.785    20025194.758    -7386054.566 9   6308839.613 7
  22092144.406    22092145.453    37071385.869 9 -35817451.734 8
 86  6 20  1 17  5.0800000  0  4G 6G13G 9G11
  21666202.277    21666201.691    18312150.209 8 -10120661.059 8
  20805354.082    20805358.132   -11541174.563 9  10657895.412 7
  20025021.989    20025022.655    -7386959.756 9   6308134.275 8
  22094980.331    22094983.212    37086293.508 9 -35805835.394 7
 86  6 20  1 17 11.0800000  0  4G 6G13G 9G11
  21669286.539    21669286.134    18328357.408 9 -10108032.075 8
  20804069.558    20804074.386   -11547923.896 9  10652636.199 8
  20024853.893    20024854.753    -7387840.115 8   6307448.274 7
  22097818.588    22097818.410    37101208.448 9 -35794213.369 8
 86  6 20  1 17 17.0800000  0  4G 6G13G 9G11
  21672374.172    21672373.548    18344583.200 9 -10095388.613 8
  20802789.838    20802793.839   -11554653.913 9  10647392.041 9
  20024690.955    20024692.468    -7388695.864 9   6306781.462 7
  22100658.216    22100660.597    37116130.555 8 -35782585.768 8
 86  6 20  1 17 23.0800000  0  4G 6G13G 9G11
  21675465.588    21675465.603    18360827.554 6 -10082730.679 8
  20801512.256    20801515.948   -11561364.541 9  10642162.987 8
  20024532.965    20024534.094    -7389526.760 9   6306134.006 8
  22103498.804    22103501.089    37131059.886 9 -35770952.517 8
 86  6 20  1 17 29.0800000  0  4G 6G13G 9G11
  21678559.810    21678559.545    18377090.464 9 -10070058.287 7
  20800238.627    20800243.128   -11568055.812 9  10636949.020 8
  20024379.775    20024379.775    -7390332.882 9   6305505.868 7
  22106340.792    22106343.247    37145996.506 9 -35759313.598 8
 86  6 20  1 17 35.0800000  0  4G 6G13G 9G11
  21681659.178    21681659.189    18393371.848 9 -10057371.505 7
  20798969.204    20798973.256   -11574727.716 9  10631750.140 8
  20024231.728    20024232.093    -7391114.218 9   6304897.037 7
  22109184.986    22109187.597    37160940.259 9 -35747669.118 7
 86  6 20  1 17 41.0800000  0  4G 6G13G 9G11
  21684759.523    21684762.168    18409671.733 9 -10044670.308 7
  20797702.700    20797707.116   -11581380.230 9  10626566.361 8
  20024088.260    20024088.202    -7391870.800 9   6304307.496 8
  22112030.002    22112032.674    37175891.118 9 -35736019.103 7
 86  6 20  1 17 47.0800000  0  4G 6G13G 9G11
  21687864.674    21687866.105    18425990.190 9 -10031954.635 8
  20796440.947    20796443.832   -11588013.439 9  10621397.638 8
  20023948.030    20023947.149    -7392602.550 9   6303737.302 8
  22114877.682    22114879.890    37190849.177 9 -35724363.482 7
 86  6 20  1 17 53.0800000  0  4G 6G13G 9G11
  21690973.430    21690974.849    18442327.143 9 -10019224.551 8
  20795182.107    20795185.767   -11594627.336 9  10616243.955 8
  20023812.828    20023813.868    -7393309.533 8   6303186.405 7
  22117725.498    22117727.056    37205814.358 9 -35712702.302 8
 86  6 20  1 17 59.0800000  0  4G 6G13G 9G11
  21694084.964    21694087.909    18458682.627 9 -10006480.030 9
  20793926.842    20793930.823   -11601221.887 9  10611105.353 8
  20023683.825    20023683.981    -7393991.567 9   6302654.941 8
  22120573.943    22120575.996    37220786.668 9 -35701035.569 8
 86  6 20  1 18  5.0800000  0  4G 6G13G 9G11
  21697200.764    21697203.495    18475056.481 9  -9993721.204 8
  20792675.918    20792680.085   -11607797.166 9  10605981.742 8
  20023559.060    20023558.402    -7394648.906 8   6302142.739 6
  22123424.289    22123426.518    37235765.963 9 -35689363.384 7
 86  6 20  1 18 11.0800000  0  4G 6G13G 9G11
  21700319.991    21700322.412    18491448.764 9  -9980948.006 9
  20791428.955    20791432.570   -11614353.077 9  10600873.252 8
  20023438.339    20023438.312    -7395281.339 9   6301649.942 7
  22126276.205    22126278.029    37250752.346 9 -35677685.691 7
 86  6 20  1 18 17.0800000  0  4G 6G13G 9G11
  21703443.003    21703446.150    18507859.559 9  -9968160.380 8
  20790183.649    20790188.265   -11620889.641 9  10595779.835 8
  20023322.635    20023321.399    -7395889.057 7   6301176.401 7
  22129129.536    22129130.793    37265745.793 9 -35666002.479 8
 86  6 20  1 18 23.0800000  0  4G 6G13G 9G11
  21706570.362    21706571.637    18524288.791 9  -9955358.389 8
  20788944.004    20788948.849   -11627406.954 8  10590701.415 8
  20023211.510    20023211.799    -7396471.767 8   6300722.319 7
  22131984.842    22131986.472    37280746.288 9 -35654313.781 9
 86  6 20  1 18 29.0800000  0  4G 6G13G 9G11
  21709700.212    21709701.600    18540736.419 9  -9942542.057 8
  20787707.904    20787711.556   -11633904.978 9  10585638.020 7
  20023104.579    20023104.115    -7397029.683 8   6300287.594 7
  22134840.384    22134842.074    37295753.809 9 -35642619.605 8
 86  6 20  1 18 35.0800000  0  4G 6G13G 9G11
  21712833.235    21712834.424    18557202.410 9  -9929711.417 8
  20786475.436    20786478.040   -11640383.703 9  10580589.679 8
  20023003.290    20023003.322    -7397562.707 8   6299872.242 7
  22137697.550    22137699.798    37310768.309 9 -35630919.994 8
 86  6 20  1 18 41.0800000  0  4G 6G13G 9G11
  21715969.696    21715972.858    18573686.828 9  -9916866.428 8
  20785245.962    20785248.812   -11646843.092 9  10575556.403 8
  20022905.763    20022906.535    -7398070.902 8   6299476.238 7
  22140556.313    22140558.959    37325789.754 9 -35619214.978 8
 86  6 20  1 18 47.0800000  0  4G 6G13G 9G11
  21719111.192    21719113.083    18590189.598 9  -9904007.132 9
  20784021.358    20784023.934   -11653283.165 9  10570538.161 8
  20022813.359    20022814.404    -7398554.201 8   6299099.648 7
  22143416.018    22143418.759    37340818.157 9 -35607504.535 8
 86  6 20  1 18 53.0800000  0  4G 6G13G 9G11
  21722255.580    21722256.367    18606710.774 9  -9891133.485 8
  20782799.462    20782801.700   -11659703.877 9  10565535.022 8
  20022725.536    20022727.406    -7399012.492 7   6298742.524 7
  22146276.842    22146278.744    37355853.523 9 -35595788.684 9
 86  6 20  1 18 59.0800000  0  4G 6G13G 9G11
  21725402.286    21725404.201    18623250.227 9  -9878245.604 7
  20781581.638    20781584.875   -11666105.355 9  10560546.842 8
  20022644.477    20022645.261    -7399445.983 6   6298404.727 8
  22149139.331    22149141.129    37370895.730 9 -35584067.468 9
 86  6 20  1 19  5.0800000  0  4G 6G13G 9G11
  21728553.455    21728555.103    18639808.036 9  -9865343.418 8
  20780367.066    20780368.536   -11672487.578 9  10555573.699 8
  20022566.213    20022566.635    -7399854.420 8   6298086.475 7
  22152003.037    22152005.111    37385944.853 9 -35572340.871 8
 86  6 20  1 19 11.0800000  0  4G 6G13G 9G11
  21731707.029    21731708.889    18656384.132 9  -9852426.976 9
  20779156.877    20779158.580   -11678850.539 9  10550615.563 8
  20022493.326    20022494.810    -7400237.905 8   6297787.647 7
  22154868.302    22154870.997    37401000.826 9 -35560608.949 7
 86  6 20  1 19 17.0800000  0  4G 6G13G 9G11
                  21734865.283    18672978.541 9
  20777949.401    20777950.432   -11685194.229 9  10545672.440 8
  20022424.114    20022426.762    -7400596.619 7   6297508.132 7
  22157733.838    22157736.143    37416063.673 9 -35548871.681 9
 86  6 20  1 19 23.0800000  0  4G 6G13G 9G11
  21738026.410    21738028.540    18689591.262 9  -9793450.308 1
  20776746.354    20776747.744   -11691518.583 9  10540744.370 8
  20022360.917    20022363.401    -7400930.300 7   6297248.124 7
  22160601.686    22160604.675    37431133.391 9 -35537129.058 8
 86  6 20  1 19 29.0800000  0  4G 6G13G 9G11
  21741191.204    21741193.177    18706222.270 9  -9780491.080 8
  20775546.124    20775546.859   -11697823.702 9  10535831.297 6
                  20022304.165                     6297007.554 6
  22163469.534    22163473.200    37446209.921 9 -35525381.096 8
 86  6 20  1 19 35.0800000  0  4G 6G13G 9G11
  21744359.513    21744362.116    18722871.590 9  -9767517.584 8
  20774350.334    20774350.646   -11704109.702 9  10530933.118 7
  20022248.232    20022251.940    -7437574.710 1   6296786.501 7
  22166340.432    22166343.443    37461293.270 9 -35513627.859 7
 86  6 20  1 19 41.0800000  0  4G 6G13G 9G11
  21747531.350    21747533.666    18739539.118 9  -9754529.917 8
  20773157.580    20773158.679   -11710376.407 9  10526049.975 9
  20022199.134    20022201.628    -7437833.382 8   6296584.947 7
  22169213.052    22169215.747    37476383.438 9 -35501869.289 7
 86  6 20  1 19 47.0800000  0  4G 6G13G 9G11
  21750705.929    21750708.760    18756224.863 9  -9741528.051 8
  20771968.526    20771970.323   -11716623.906 9  10521181.803 9
  20022154.240    20022156.391    -7438067.175 7   6296402.777 7
  22172085.078    22172088.126    37491480.323 9 -35490105.481 7
 86  6 20  1 19 53.0800000  0  4G 6G13G 9G11
  21753884.972    21753887.273    18772928.806 9  -9728511.993 8
  20770782.577    20770785.202   -11722852.097 9  10516328.660 8
  20022114.483    20022116.815    -7438275.850 9   6296240.151 6
  22174959.399    22174961.368    37506583.941 9 -35478336.425 7
 86  6 20  1 19 59.0800000  0  4G 6G13G 9G11
  21757067.563    21757068.209    18789651.006 9  -9715481.695 8
  20769600.867    20769603.182   -11729060.971 9  10511490.598 8
  20022080.333    20022081.888    -7438459.537 9   6296097.023 7
  22177834.699    22177836.450    37521694.354 9 -35466562.084 9
 86  6 20  1 20  5.0800000  0  4G 6G13G 9G11
  21760252.216    21760253.819    18806391.358 9  -9702437.283 9
  20768423.507    20768426.022   -11735250.644 9  10506667.482 8
  20022050.157    20022052.709    -7438618.322 8   6295973.297 6
  22180711.955    22180712.782    37536811.482 9 -35454782.502 8
 86  6 20  1 20 11.0800000  0  4G 6G13G 9G11
  21763441.363    21763444.723    18823149.848 9  -9689378.721 8
  20767248.988    20767250.997   -11741421.108 9  10501859.324 7
  20022024.868    20022026.341    -7438752.043 8   6295869.095 7
  22183589.502    22183590.764    37551935.276 9 -35442997.741 7
 86  6 20  1 20 17.0800000  0  4G 6G13G 9G11
  21766634.145    21766636.121    18839926.471 9  -9676306.036 8
  20766078.705    20766081.421   -11747572.402 9  10497066.114 7
  20022004.514    20022006.430    -7438860.776 9   6295784.374 8
  22186468.990    22186470.772    37567065.660 9 -35431207.824 8
 86  6 20  1 20 23.0800000  0  4G 6G13G 9G11
  21769830.502    21769832.491    18856721.372 9  -9663219.112 9
  20764911.279    20764914.879   -11753704.359 9  10492287.961 7
  20021988.680    20021990.743    -7438944.345 8   6295719.251 7
  22189349.040    22189350.746    37582202.813 9 -35419412.663 8
 86  6 20  1 20 29.0800000  0  4G 6G13G 9G11
  21773030.036    21773030.954    18873534.263 9  -9650118.156 9
  20763748.711    20763751.673   -11759817.253 9  10487524.674 8
  20021977.185    20021979.463    -7439003.063 9   6295673.502 7
  22192230.880    22192232.521    37597346.500 9 -35407612.378 7
 86  6 20  1 20 35.0800000  0  4G 6G13G 9G11
  21776232.778    21776233.967    18890365.439 9  -9637002.962 8
  20762588.928    20762592.399   -11765910.849 9  10482776.431 8
  20021970.525    20021972.909    -7439036.562 9   6295647.398 7
  22195113.173    22195115.130    37612496.868 9 -35395806.905 7
 86  6 20  1 20 41.0800000  0  4G 6G13G 9G11
  21779438.897    21779440.398    18907214.694 9  -9623873.678 8
  20761432.848    20761434.958   -11771985.112 9  10478043.248 7
  20021969.647    20021970.599    -7439044.979 9   6295640.839 8
  22197999.007    22197999.011    37627653.787 9 -35383996.317 7
 86  6 20  1 20 47.0800000  0  4G 6G13G 9G11
  21782648.963    21782648.620    18924082.062 9  -9610730.271 8
  20760280.163    20760284.247   -11778040.175 9  10473325.017 8
  20021973.113    20021974.110    -7439028.313 8   6295653.814 7
  22200883.428    22200885.653    37642817.299 9 -35372180.594 8
 86  6 20  1 20 53.0800000  0  4G 6G13G 9G11
  21785862.434    21785863.548    18940967.467 9  -9597572.818 8
  20759131.951    20759135.202   -11784076.023 9  10468621.760 9
  20021980.927    20021982.556    -7438986.553 8   6295686.362 8
  22203770.763    22203771.893    37657987.301 9 -35360359.811 7
 86  6 20  1 20 59.0800000  0  4G 6G13G 9G11
  21789079.024    21789079.585    18957870.759 9  -9584401.434 9
  20757987.582    20757989.917   -11790092.829 9  10463933.350 8
  20021994.291    20021996.056    -7438919.826 9   6295738.344 8
  22206658.782    22206659.596    37673163.735 9 -35348534.024 6
 86  6 20  1 21  5.0800000  0  4G 6G13G 9G11
  21792297.675    21792299.922    18974792.263 9  -9571215.845 8
  20756845.908    20756848.467   -11796090.323 9  10459259.978 7
  20022011.894    20022013.864    -7438827.994 9   6295809.899 8
  22209548.133    22209548.349    37688346.820 9 -35336703.048 8
 86  6 20  1 21 11.0800000  0  4G 6G13G 9G11
  21795520.993    21795523.840    18991731.743 9  -9558016.261 8
  20755708.267    20755711.447   -11802068.634 9  10454601.549 8
  20022033.184    20022035.308    -7438711.076 9   6295901.013 7
  22212438.106    22212438.480    37703536.358 9 -35324867.018 7
 86  6 20  1 21 17.0800000  0  4G 6G13G 9G11
  21798748.403    21798749.732    19008689.183 8  -9544802.677 8
  20754574.794    20754576.980   -11808027.794 9  10449958.051 8
  20022060.746    20022061.914    -7438569.015 9   6296011.696 6
  22215330.186    22215330.645    37718732.357 9 -35313026.002 8
 86  6 20  1 21 23.0800000  0  4G 6G13G 9G11
  21801978.217    21801981.650    19025664.654 9  -9531575.046 8
  20753443.970    20753447.247   -11813967.788 9  10445329.487 9
  20022091.337    20022095.169    -7438401.823 9   6296141.992 7
  22218223.346    22218225.427    37733934.854 9 -35301179.894 6
 86  6 20  1 21 29.0800000  0  4G 6G13G 9G11
  21805211.688    21805213.965    19042658.164 9  -9518333.362 9
  20752317.436    20752320.088   -11819888.638 9  10440715.833 8
  20022129.079    20022130.595    -7438209.419 9   6296291.915 7
  22221116.966    22221117.998    37749143.821 9 -35289328.755 8
 86  6 20  1 21 35.0800000  0  4G 6G13G 9G11
  21808448.775    21808451.952    19059669.600 9  -9505077.715 8
  20751195.315    20751197.006   -11825790.372 9  10436117.084 8
  20022170.118    20022172.982    -7437991.991 9   6296461.333 8
  22224012.668    22224013.396    37764359.208 9 -35277472.617 8
 86  6 20  1 21 41.0800000  0  4G 6G13G 9G11
  21811689.204    21811691.852    19076699.037 8  -9491808.030 8
  20750075.451    20750078.039   -11831673.004 9  10431533.231 8
  20022217.214    20022218.829    -7437749.428 9   6296650.352 8
  22226910.092    22226911.160    37779580.982 9 -35265611.506 7
 86  6 20  1 21 47.0800000  0  4G 6G13G 9G11
  21814933.071    21814937.274    19093746.345 9  -9478524.438 9
  20748959.271    20748961.876   -11837536.511 9  10426964.261 5
  20022268.193    20022268.702    -7437481.756 9   6296858.919 7
  22229808.182    22229810.086    37794809.146 9 -35253745.394 8
 86  6 20  1 21 53.0800000  0  4G 6G13G 9G11
  21818180.712    21818184.219    19110811.622 9  -9465226.824 9
  20747847.072    20747850.166   -11843380.861 9  10422410.230 7
  20022324.686    20022324.018    -7437188.800 8   6297087.206 8
  22232707.266    22232708.603    37810043.755 9 -35241874.265 8
 86  6 20  1 21 59.0800000  0  4G 6G13G 9G11
  21821431.817    21821435.093    19127894.746 8  -9451915.312 9
  20746738.385    20746741.267   -11849206.037 9  10417871.136 8
  20022385.253    20022385.007    -7436870.743 9   6297335.038 7
  22235607.620    22235608.698    37825284.709 9 -35229998.197 9
 86  6 20  1 22  5.0800000  0  4G 6G13G 9G11
  21824686.186    21824689.832    19144995.828 9  -9438589.801 9
  20745633.887    20745636.128   -11855012.043 9  10413346.985 7
  20022450.265    20022449.901    -7436527.493 9   6297602.494 8
  22238508.749    22238509.801    37840531.940 9 -35218117.227 9
 86  6 20  1 22 11.0800000  0  4G 6G13G 9G11
  21827943.157    21827945.964    19162114.702 9  -9425250.437 8
  20744532.675    20744535.099   -11860798.904 9  10408837.746 9
  20022519.953    20022520.875    -7436159.017 9   6297889.625 8
  22241411.813    22241412.023    37855785.453 9 -35206231.378 9
 86  6 20  1 22 17.0800000  0  4G 6G13G 9G11
  21831204.020    21831207.569    19179251.516 9  -9411897.080 9
  20743434.799    20743436.748   -11866566.683 9  10404343.379 8
  20022595.517    20022595.642    -7435765.505 9   6298196.262 7
  22244315.570    22244317.174    37871045.306 9 -35194340.588 9
 86  6 20  1 22 23.0800000  0  4G 6G13G 9G11
  21834469.004    21834472.384    19196406.160 9  -9398529.841 9
  20742340.635    20742342.610   -11872315.325 9  10399863.912 7
  20022675.111    20022675.941    -7435346.734 8   6298522.578 7
  22247220.658    22247221.570    37886311.403 9 -35182444.936 8
 86  6 20  1 22 29.0800000  0  4G 6G13G 9G11
  21837737.424    21837740.499    19213578.597 9  -9385148.713 9
  20741250.475    20741252.507   -11878044.822 9  10395399.377 8
  20022758.668    20022759.654    -7434902.723 9   6298868.551 7
  22250126.447    22250128.264    37901583.732 9 -35170544.421 9
 86  6 20  1 22 35.0800000  0  4G 6G13G 9G11
  21841007.874    21841010.955    19230768.876 8  -9371753.698 7
  20740163.746    20740166.451   -11883755.218 9  10390949.726 8
  20022847.645    20022848.449    -7434433.470 9   6299234.210 8
  22253033.232    22253035.758    37916862.309 9 -35158639.031 8
 86  6 20  1 22 41.0800000  0  4G 6G13G 9G11
  21844283.078    21844285.914    19247976.961 9  -9358344.817 9
  20739081.010    20739082.850   -11889446.535 9  10386514.939 8
  20022942.247    20022943.203    -7433938.961 8   6299619.535 6
  22255942.298    22255943.927    37932147.181 9 -35146728.744 8
 86  6 20  1 22 47.0800000  0  4G 6G13G 9G11
  21847561.143    21847563.132    19265202.817 9  -9344922.068 8
  20738001.871    20738004.154   -11895118.784 9  10382095.009 7
  20023039.502    20023042.488    -7433419.269 9   6300024.496 7
  22258852.127    22258853.924    37947438.255 9 -35134813.632 8
 86  6 20  1 22 53.0800000  0  4G 6G13G 9G11
  21850842.095    21850845.218    19282446.485 8  -9331485.448 8
  20736925.616    20736927.503   -11900771.927 9  10377689.962 8
  20023143.188    20023145.903    -7432874.290 8   6300449.153 7
  22261763.304    22261765.580    37962735.507 9 -35122893.697 8
 86  6 20  1 22 59.0800000  0  4G 6G13G 9G11
  21854126.084    21854129.993    19299707.925 9  -9318034.975 8
  20735853.317    20735856.419   -11906405.980 9  10373299.800 8
  20023251.700    20023254.375    -7432304.103 9   6300893.443 8
  22264674.337    22264677.571    37978038.948 9 -35110968.934 8
 86  6 20  1 23  5.0800000  0  4G 6G13G 9G11
  21857415.135    21857418.987    19316987.089 9  -9304570.705 8
  20734784.767    20734787.563   -11912020.979 9  10368924.482 8
  20023364.935    20023366.339    -7431708.654 8   6301357.434 7
  22267588.298    22267590.773    37993348.557 9 -35099039.369 8
 86  6 20  1 23 11.0800000  0  4G 6G13G 9G11
  21860705.477    21860709.896    19334283.939 9  -9291092.633 8
  20733720.263    20733722.387   -11917616.843 9  10364564.066 8
  20023482.802    20023486.551    -7431088.022 9   6301841.040 7
  22270503.030    22270505.613    38008664.276 9 -35087105.056 8
 86  6 20  1 23 17.0800000  0  4G 6G13G 9G11
  21863999.394    21864004.463    19351598.567 9  -9277600.725 9
  20732658.094    20732660.484   -11923193.632 9  10360218.530 7
  20023605.749    20023609.614    -7430442.059 8   6302344.385 7
  22273418.083    22273420.214    38023986.088 9 -35075165.976 8
 86  6 20  1 23 23.0800000  0  4G 6G13G 9G11
  21867298.208    21867302.856    19368930.856 8  -9264095.072 7
  20731599.998    20731603.150   -11928751.351 9  10355887.835 8
  20023732.548    20023734.844    -7429770.861 8   6302867.390 8
  22276334.718    22276338.702    38039313.964 9 -35063222.178 9
 86  6 20  1 23 29.0800000  0  4G 6G13G 9G11
  21870599.737    21870602.632    19386280.816 9  -9250575.630 8
  20730545.849    20730549.798   -11934290.040 9  10351571.985 7
  20023864.917    20023869.182    -7429074.349 7   6303410.131 7
  22279252.722    22279254.898    38054647.896 9 -35051273.673 8
 86  6 20  1 23 35.0800000  0  4G 6G13G 9G11
  21873904.019    21873909.669    19403648.419 8  -9237042.447 8
  20729495.964    20729498.908   -11939809.717 9  10347270.948 8
  20024002.107    20024005.042    -7428352.568 8   6303972.548 7
  22282171.787    22282174.878    38069987.859 9 -35039320.432 9
 86  6 20  1 23 41.0800000  0  4G 6G13G 9G11
  21877212.818    21877217.840    19421033.596 9  -9223495.564 9
  20728448.952    20728452.277   -11945310.391 9  10342984.720 7
  20024145.428    20024146.798    -7427605.618 8   6304554.580 6
  22285091.364    22285095.084    38085333.830 9 -35027362.545 8
 86  6 20  1 23 47.0800000  0  4G 6G13G 9G11
  21880524.648    21880528.601    19438436.438 8  -9209934.928 9
  20727406.424    20727408.416   -11950792.018 9  10338713.325 7
  20024291.639    20024294.373    -7426833.333 8   6305156.371 8
  22288012.984    22288016.169    38100685.887 9 -35015399.900 9
 86  6 20  1 23 53.0800000  0  4G 6G13G 9G11
  21883840.377    21883842.826    19455856.889 9  -9196360.544 8
  20726365.962    20726369.677   -11956254.652 9  10334456.734 8
  20024443.821    20024444.511    -7426035.639 8   6305777.949 6
  22290934.817    22290937.719    38116043.900 9 -35003432.609 8
 86  6 20  1 23 59.0800000  0  4G 6G13G 9G11
  21887158.105    21887161.696    19473294.978 9  -9182772.448 8
  20725331.508    20725334.132   -11961698.173 9  10330215.038 8
  20024600.394    20024601.882    -7425212.746 9   6306419.164 6
  22293859.262    22293863.039    38131407.928 9 -34991460.648 8
 86  6 20  1 24  5.0800000  0  4G 6G13G 9G11
  21890481.184    21890482.186    19490750.641 9  -9169170.623 7
  20724299.023    20724301.421   -11967122.610 9  10325988.206 8
  20024763.053    20024764.561    -7424364.517 7   6307080.108 7
  22296783.990    22296786.394    38146777.900 9 -34979484.053 9
 86  6 20  1 24 11.0800000  0  4G 6G13G 9G11
  21893806.184    21893807.288    19508223.873 9  -9155555.120 8
  20723270.217    20723272.934   -11972527.955 9  10321776.252 8
  20024928.791    20024929.464    -7423490.965 9   6307760.807 7
  22299709.713    22299712.181    38162153.857 9 -34967502.792 8
 86  6 20  1 24 17.0800000  0  4G 6G13G 9G11
  21897134.787    21897136.447    19525714.686 9  -9141925.922 8
  20722245.940    20722247.903   -11977914.362 9  10317579.057 8
  20025100.419    20025100.744    -7422592.019 8   6308461.283 6
  22302637.113    22302639.569    38177535.740 9 -34955516.896 7
 86  6 20  1 24 23.0800000  0  4G 6G13G 9G11
  21900467.169    21900466.883    19543223.038 9  -9128283.051 8
  20721224.029    20721227.165   -11983281.779 9  10313396.666 7
  20025276.695    20025277.076    -7421667.785 9   6309181.474 7
  22305565.877    22305567.789    38192923.536 9 -34943526.406 9
 86  6 20  1 24 29.0800000  0  4G 6G13G 9G11
  21903802.295    21903802.197    19560748.905 9  -9114626.531 7
  20720206.668    20720209.548   -11988630.127 9  10309229.132 8
  20025457.385    20025457.562    -7420718.163 8   6309921.442 7
  22308495.362    22308496.703    38208317.264 9 -34931531.302 8
 86  6 20  1 24 35.0800000  0  4G 6G13G 9G11
  21907140.859    21907141.647    19578292.282 9  -9100956.373 7
  20719192.021    20719195.535   -11993959.512 9  10305076.352 8
  20025642.968    20025639.708    -7419743.230 8   6310681.122 6
  22311425.720    22311428.123    38223716.830 9 -34919531.626 8
 86  6 20  1 24 41.0800000  0  4G 6G13G 9G11
                  21910481.782    19595853.131 9
  20718181.506    20718184.636   -11999269.959 9  10300938.350 7
  20025833.900    20025831.679    -7418742.918 9   6311460.588 6
  22314357.343    22314359.007    38239122.254 9 -34907527.413 9
 86  6 20  1 24 47.0800000  0  4G 6G13G 9G11
  21913827.773    21913828.527    19613431.443 9  -9041239.217 1
                  20717173.841   -12004561.402 9
  20026028.697    20026027.619    -7417717.271 9   6312259.804 7
  22317289.791    22317292.453    38254533.514 9 -34895518.639 8
 86  6 20  1 24 53.0800000  0  4G 6G13G 9G11
  21917175.550    21917176.095    19631027.229 9  -9027528.212 7
  20716169.970    20716180.135   -12009833.776 9  10343082.775 3
  20026229.406    20026228.066    -7416666.183 9   6313078.842 7
  22320224.565    22320224.565    38269950.577 9 -34883505.329 8
 86  6 20  1 24 59.0800000  0  4G 6G13G 9G11
  21920527.706    21920526.910    19648640.521 9  -9013803.561 6
                  20715170.706   -12015087.118 9
  20026433.778    20026432.426    -7415589.643 9   6313917.705 6
  22323158.901    22323160.560    38285373.520 9 -34871487.465 9
 86  6 20  1 25  5.0800000  0  4G 6G13G 9G11
  21923882.810    21923883.757    19666271.193 9  -9000065.395 8
  20714175.522    20714138.876   -12020321.571 9  10385255.708 1
  20026643.813    20026642.813    -7414487.862 9   6314776.246 6
  22326095.096    22326097.194    38300802.135 9 -34859465.162 8
 86  6 20  1 25 11.0800000  0  4G 6G13G 9G11
  21927240.664    21927241.252    19683919.268 9  -8986313.635 7
  20713184.006    20713187.486   -12025537.042 9  10381191.512 7
  20026857.704    20026856.416    -7413360.682 9   6315654.562 6
  22329032.523    22329032.533    38316236.553 9 -34847438.337 8
 86  6 20  1 25 17.0800000  0  4G 6G13G 9G11
  21930602.521    21930603.952    19701584.747 9  -8972548.351 7
  20712195.215    20712197.382   -12030733.608 9  10377142.246 8
  20027077.035    20027076.389    -7412208.044 9   6316552.721 7
  22331970.674    22331971.178    38331676.723 9 -34835407.036 7
 86  6 20  1 25 23.0800000  0  4G 6G13G 9G11
  21933966.899    21933968.201    19719267.672 9  -8958769.450 8
  20711209.773    20711211.845   -12035911.238 9  10373107.736 7
  20027301.262    20027300.471    -7411029.985 9   6317470.693 7
  22334909.987    22334910.852    38347122.681 9 -34823371.232 9
 86  6 20  1 25 29.0800000  0  4G 6G13G 9G11
  21937335.224    21937337.567    19736968.000 9  -8944976.998 8
  20710228.525    20710231.465   -12041069.851 9  10369088.047 7
  20027531.347    20027529.455    -7409826.388 9   6318408.565 7
  22337850.113    22337852.578    38362574.389 9 -34811330.952 9
 86  6 20  1 25 35.0800000  0  4G 6G13G 9G11
  21940706.643    21940710.432    19754685.667 9  -8931171.027 8
  20709250.927    20709252.687   -12046209.512 9  10365083.114 8
  20027764.082    20027765.036    -7408597.420 9   6319366.199 7
  22340791.552    22340793.489    38378031.808 9 -34799286.207 8
 86  6 20  1 25 41.0800000  0  4G 6G13G 9G11
  21944081.522    21944083.513    19772420.624 9  -8917351.587 8
  20708276.191    20708277.705   -12051330.252 9  10361092.938 8
  20028003.140    20028003.395    -7407343.050 8   6320343.657 7
  22343734.609    22343735.666    38393494.904 9 -34787237.035 8
 86  6 20  1 25 47.0800000  0  4G 6G13G 9G11
  21947460.149    21947462.397    19790172.933 9  -8903518.617 7
  20707304.886    20707305.699   -12056432.103 9  10357117.477 8
  20028246.749    20028247.759    -7406063.387 9   6321340.774 7
  22346677.617    22346679.254    38408963.581 9 -34775183.529 9
 86  6 20  1 25 53.0800000  0  4G 6G13G 9G11
  21950841.468    21950843.500    19807942.487 9  -8889672.218 7
  20706337.244    20706339.302   -12061514.989 9  10353156.785 8
  20028494.919    20028495.606    -7404758.268 9   6322357.773 7
  22349622.142    22349623.878    38424437.885 9 -34763125.633 9
 86  6 20  1 25 59.0800000  0  4G 6G13G 9G11
  21954226.366    21954228.011    19825729.445 9  -8875812.244 8
  20705373.383    20705376.390   -12066578.933 9  10349210.880 8
  20028747.906    20028748.654    -7403427.612 9   6323394.644 7
  22352567.679    22352569.995    38439917.889 9 -34751063.289 9
 86  6 20  1 26  5.0800000  0  4G 6G13G 9G11
  21957613.922    21957615.798    19843533.576 9  -8861938.899 9
  20704413.433    20704415.860   -12071624.075 9  10345279.591 8
  20029006.054    20029007.106    -7402071.598 9   6324451.260 7
  22355514.472    22355517.046    38455403.444 9 -34738996.618 8
 86  6 20  1 26 11.0800000  0  4G 6G13G 9G11
  21961005.373    21961007.518    19861354.894 9  -8848052.168 8
  20703457.528    20703458.701   -12076650.351 9  10341363.028 9
  20029269.107    20029270.441    -7400690.078 9   6325527.775 7
  22358462.343    22358464.476    38470894.557 9 -34726925.628 8
 86  6 20  1 26 17.0800000  0  4G 6G13G 9G11
  21964399.829    21964402.231    19879193.469 9  -8834151.994 8
  20702504.401    20702506.413   -12081657.684 9  10337461.215 8
  20029536.240    20029538.108    -7399283.112 9   6326624.125 7
  22361411.233    22361413.120    38486391.212 9 -34714850.308 8
 86  6 20  1 26 23.0800000  0  4G 6G13G 9G11
  21967797.975    21967799.804    19897049.280 9  -8820238.358 8
                  20701554.737   -12086646.065 9
  20029807.562    20029812.313    -7397850.715 8   6327740.266 8
  22364361.195    22364363.711    38501893.404 9 -34702770.673 9
 86  6 20  1 26 29.0800000  0  4G 6G13G 9G11
  21971199.155    21971201.230    19914922.257 9  -8806311.386 8
  20700608.648    20700610.663   -12091615.621 9  10379847.784 3
  20030085.667    20030088.648    -7396392.875 8   6328876.243 8
  22367312.235    22367314.047    38517401.095 9 -34690686.766 8
 86  6 20  1 26 35.0800000  0  4G 6G13G 9G11
  21974603.082    21974606.142    19932812.510 9  -8792370.922 8
  20699667.730    20699668.637   -12096566.274 9  10375990.148 8
  20030367.957    20030370.448    -7394909.429 9   6330032.171 7
  22370264.720    22370266.077    38532914.356 9 -34678598.511 8
 86  6 20  1 26 41.0800000  0  4G 6G13G 9G11
  21978010.615    21978014.519    19950719.805 9  -8778417.201 8
  20698729.161    20698730.417   -12101498.090 9  10372147.192 7
  20030655.602    20030657.793    -7393400.605 8   6331207.874 7
  22373217.576    22373219.908    38548433.011 9 -34666506.052 8
 86  6 20  1 26 47.0800000  0  4G 6G13G 9G11
  21981422.185    21981424.856    19968644.329 9  -8764450.036 8
  20697793.867    20697795.805   -12106411.107 9  10368318.866 7
  20030946.557    20030950.138    -7391866.244 8   6332403.473 8
  22376171.763    22376174.795    38563957.098 9 -34654409.354 8
 86  6 20  1 26 53.0800000  0  4G 6G13G 9G11
  21984835.556    21984839.744    19986586.054 9  -8750469.476 7
  20696862.759    20696863.962   -12111305.295 9  10364505.224 7
                  20031247.197                     6333613.435 8
  22379127.236    22379129.102    38579486.771 9 -34642308.320 9
 86  6 20  1 26 59.0800000  0  4G 6G13G 9G11
  21988253.963    21988256.809    20004544.878 9  -8736475.585 7
  20695934.613    20695936.806   -12116180.615 9  10360706.286 8
  20031446.990    20031549.558    -7447081.234 7   6334848.365 8
  22382082.635    22382086.286    38595021.901 9 -34630203.018 8
 86  6 20  1 27  5.0800000  0  4G 6G13G 9G11
  21991674.205    21991678.022    20022520.889 9  -8722468.316 9
  20695010.615    20695012.329   -12121036.952 9  10356922.134 8
  20031854.066    20031854.634    -7445470.614 8   6336103.566 8
  22385039.716    22385043.508    38610562.509 9 -34618093.462 9
 86  6 20  1 27 11.0800000  0  4G 6G13G 9G11
  21995097.650    21995100.394    20040513.980 9  -8708447.723 8
  20694089.675    20694090.686   -12125874.447 9  10353152.660 8
  20032164.720    20032166.755    -7443833.710 9   6337378.675 8
  22387997.431    22388000.525    38626108.542 9 -34605979.676 9
 86  6 20  1 27 17.0800000  0  4G 6G13G 9G11
  21998525.616    21998528.592    20058524.130 9  -8694413.841 8
  20693172.519    20693173.924   -12130693.128 9  10349397.864 8
  20032480.620    20032482.705    -7442171.773 1   6338673.751 7
  22390957.737    22390961.050    38641660.008 9 -34593861.647 9
 86  6 20  1 27 23.0800000  0  4G 6G13G 9G11
  22001955.700    22001957.659    20076551.356 9  -8680366.661 7
  20692258.511    20692261.284   -12135492.975 9  10345657.721 8
  20032801.338    20032803.938    -7440484.286 8   6339988.616 8
  22393917.888    22393921.198    38657216.821 9 -34581739.470 9
 86  6 20  1 27 29.0800000  0  4G 6G13G 9G11
  22005389.332    22005393.012    20094595.559 9  -8666306.247 8
  20691348.154    20691350.727   -12140274.021 9  10341932.238 8
  20033126.995    20033130.850    -7438771.358 7   6341323.357 8
  22396880.333    22396882.610    38672778.932 9 -34569613.156 9
 86  6 20  1 27 35.0800000  0  4G 6G13G 9G11
  22008825.942    22008828.947    20112656.812 9  -8652232.558 8
  20690443.187    20690445.533   -12145036.279 9  10338221.393 8
  20033458.007    20033461.560    -7437032.908 9   6342678.001 8
  22399841.849    22399844.839    38688346.376 9 -34557482.677 9
 86  6 20  1 27 41.0800000  0  4G 6G13G 9G11
  22012266.502    22012268.576    20130735.102 9  -8638145.587 8
  20689541.227    20689541.914   -12149779.736 9  10334525.200 8
  20033792.382    20033797.404    -7435268.920 8   6344052.542 7
  22402805.106    22402808.288    38703919.145 9 -34545348.065 9
 86  6 20  1 27 47.0800000  0  4G 6G13G 9G11
  22015709.835    22015713.411    20148830.349 9  -8624045.397 8
  20688641.597    20688643.525   -12154504.389 9  10330843.655 8
  20034133.057    20034136.430    -7433479.248 9   6345447.081 7
  22405770.283    22405772.663    38719497.165 9 -34533209.353 9
 86  6 20  1 27 53.0800000  0  4G 6G13G 9G11
  22019155.576    22019158.623    20166942.625 9  -8609931.953 7
  20687746.511    20687748.308   -12159210.249 9  10327176.756 8
  20034480.811    20034482.769    -7431664.105 8   6346861.473 9
  22408735.735    22408737.397    38735080.514 9 -34521066.481 9
 86  6 20  1 27 59.0800000  0  4G 6G13G 9G11
  22022605.662    22022607.008    20185071.860 9  -8595805.265 7
  20686854.129    20686857.051   -12163897.303 9  10323524.506 8
  20034830.156    20034832.266    -7429823.435 8   6348295.757 8
  22411701.401    22411704.048    38750669.139 9 -34508919.501 9
 86  6 20  1 28  5.0800000  0  4G 6G13G 9G11
  22026059.215    22026061.117    20203218.001 9  -8581665.426 8
  20685967.358    20685967.872   -12168565.589 9  10319886.891 8
  20035184.964    20035187.284    -7427957.170 7   6349749.982 8
  22414669.669    22414671.940    38766262.913 9 -34496768.514 9
 86  6 20  1 28 11.0800000  0  4G 6G13G 9G11
  22029515.285    22029518.160    20221381.096 9  -8567512.376 8
  20685082.305    20685083.290   -12173215.095 9  10316263.906 8
  20035545.733    20035547.197    -7426065.301 9   6351224.167 8
  22417637.416    22417640.300    38781861.984 9 -34484613.390 8
 86  6 20  1 28 17.0800000  0  4G 6G13G 9G11
  22032974.275    22032976.649    20239561.072 9  -8553346.158 8
  20684200.083    20684203.750   -12177845.885 9  10312655.493 7
  20035910.540    20035912.012    -7424147.976 9   6352718.194 8
  22420606.990    22420609.515    38797466.275 9 -34472454.210 9
 86  6 20  1 28 23.0800000  0  4G 6G13G 9G11
  22036438.329    22036441.057    20257757.865 9  -8539166.859 8
  20683322.263    20683325.182   -12182457.963 9  10309061.677 8
  20036280.747    20036282.550    -7422205.105 8   6354232.128 8
  22423575.583    22423579.963    38813075.717 9 -34460291.002 8
 86  6 20  1 28 29.0800000  0  4G 6G13G 9G11
  22039904.358    22039906.591    20275971.628 9  -8524974.326 8
  20682448.472    20682451.646   -12187051.245 9  10305482.486 8
  20036654.151    20036656.417    -7420236.607 8   6355766.015 8
  22426547.888    22426550.990    38828690.353 9 -34448123.770 8
 86  6 20  1 28 35.0800000  0  4G 6G13G 9G11
  22043373.480    22043375.623    20294202.205 9  -8510768.675 9
  20681577.532    20681580.777   -12191625.752 9  10301917.943 8
  20037034.185    20037036.453    -7418242.541 9   6357319.824 7
  22429520.256    22429524.308    38844310.166 8 -34435952.480 8
 86  6 20  1 28 41.0800000  0  4G 6G13G 9G11
  22046845.519    22046847.665    20312449.682 9  -8496549.870 8
  20680710.350    20680714.345   -12196181.575 9  10298367.969 8
  20037418.730    20037420.405    -7416222.804 9   6358893.654 7
  22432493.685    22432496.645    38859935.108 9 -34423777.205 9
 86  6 20  1 28 47.0800000  0  4G 6G13G 9G11
  22050319.619    22050323.768    20330713.991 9  -8482317.952 8
  20679847.265    20679850.149   -12200718.629 9  10294832.605 8
  20037807.275    20037809.582    -7414177.495 9   6360487.407 7
  22435467.853    22435471.678    38875565.224 9 -34411597.893 9
 86  6 20  1 28 53.0800000  0  4G 6G13G 9G11
  22053799.669    22053802.336    20348995.114 9  -8468072.920 7
  20678987.199    20678989.892   -12205237.011 9  10291311.794 7
  20038201.845    20038201.665    -7412106.574 9   6362101.126 7
  22438443.557    22438446.123    38891200.511 9 -34399414.551 9
 86  6 20  1 28 59.0800000  0  4G 6G13G 9G11
  22057281.724    22057284.159    20367293.007 9  -8453814.828 9
  20678130.377    20678133.968   -12209736.756 9  10287805.516 8
  20038600.328    20038601.893    -7410010.067 9   6363734.760 8
  22441419.510    22441422.750    38906840.798 9 -34387227.320 8
 86  6 20  1 29  5.0800000  0  4G 6G13G 9G11
  22060766.357    22060770.419    20385607.762 9  -8439543.611 9
  20677277.786    20677280.350   -12214217.687 9  10284313.880 7
  20039004.737    20039004.971    -7407887.911 8   6365388.386 7
  22444397.367    22444399.199    38922486.194 9 -34375036.103 8
 86  6 20  1 29 11.0800000  0  4G 6G13G 9G11
  22064255.480    22064257.253    20403939.265 9  -8425259.325 8
  20676429.033    20676431.369   -12218679.910 9  10280836.838 8
  20039414.371    20039413.891    -7405740.155 9   6367061.968 6
  22447374.488    22447378.238    38938136.665 9 -34362840.939 8
 86  6 20  1 29 17.0800000  0  4G 6G13G 9G11
  22067746.639    22067749.513    20422287.510 9  -8410962.006 7
  20675584.024    20675585.306   -12223123.430 9  10277374.360 7
  20039827.438    20039827.124    -7403566.761 9   6368755.519 7
  22450354.047    22450357.266    38953792.230 9 -34350641.798 8
 86  6 20  1 29 23.0800000  0  4G 6G13G 9G11
  22071240.599    22071243.002    20440652.413 9  -8396651.685 7
  20674741.413    20674743.846   -12227548.336 9  10273926.384 8
  20040245.858    20040245.308    -7401367.710 9   6370469.095 8
  22453334.365    22453337.798    38969452.753 9 -34338438.793 9
 86  6 20  1 29 29.0800000  0  4G 6G13G 9G11
  22074739.450    22074742.959    20459034.051 9  -8382328.348 8
  20673903.092    20673904.400   -12231954.508 9  10270492.999 8
  20040668.878    20040670.380    -7399143.182 9   6372202.492 7
  22456314.835    22456318.549    38985118.221 9 -34326231.953 8
 86  6 20  1 29 35.0800000  0  4G 6G13G 9G11
  22078240.397    22078242.290    20477432.394 9  -8367991.986 9
  20673068.268    20673069.190   -12236341.954 9  10267074.220 7
  20041097.506    20041097.190    -7396892.906 9   6373955.940 6
  22459297.170    22459300.082    39000788.703 9 -34314021.171 9
 86  6 20  1 29 41.0800000  0  4G 6G13G 9G11
  22081744.862    22081746.460    20495847.411 9  -8353642.631 8
  20672236.658    20672238.180   -12240710.766 9  10263669.963 8
  20041529.853    20041532.076    -7394616.978 9   6375729.391 7
  22462280.100    22462284.751    39016464.153 9 -34301806.539 8
 86  6 20  1 29 47.0800000  0  4G 6G13G 9G11
  22085252.499    22085254.048    20514279.138 9  -8339280.255 8
  20671409.155    20671411.584   -12245060.879 9  10260280.262 9
  20041967.763    20041969.548    -7392315.463 9   6377522.792 7
  22465264.082    22465268.336    39032144.575 9 -34289588.031 8
 86  6 20  1 29 53.0800000  0  4G 6G13G 9G11
  22088763.634    22088765.562    20532727.470 9  -8324904.939 9
  20670585.008    20670586.425   -12249392.385 9  10256905.065 8
  20042411.101    20042411.367    -7389988.292 9   6379336.157 7
  22468248.709    22468252.349    39047829.943 9 -34277365.666 9
 86  6 20  1 29 59.0800000  0  4G 6G13G 9G11
  22092277.312    22092277.672    20551192.467 9  -8310516.642 8
  20669763.927    20669766.210   -12253705.257 9  10253544.402 7
  20042858.874    20042860.172    -7387635.362 9   6381169.617 7
  22471234.270    22471237.714    39063520.242 9 -34265139.459 9
 86  6 20  1 30  5.0800000  0  4G 6G13G 9G11
  22095794.912    22095796.010    20569674.057 9  -8296115.408 8
  20668946.726    20668948.595   -12257999.418 9  10250198.305 7
  20043311.341    20043312.388    -7385256.858 9   6383022.988 7
  22474221.509    22474223.445    39079215.419 9 -34252909.452 8
 86  6 20  1 30 11.0800000  0  4G 6G13G 9G11
  22099314.601    22099315.972    20588172.226 9  -8281701.254 8
  20668133.457    20668135.186   -12262275.007 9  10246866.685 7
  20043769.101    20043769.297    -7382852.708 9   6384896.362 7
  22477208.623    22477212.864    39094915.371 9 -34240675.728 8
 86  6 20  1 30 17.0800000  0  4G 6G13G 9G11
  22102837.664    22102839.398    20606686.961 9  -8267274.194 8
  20667323.500    20667324.725   -12266531.972 9  10243549.579 8
  20044231.139    20044231.148    -7380422.864 8   6386789.738 7
  22480197.098    22480200.460    39110620.258 9 -34228438.156 8
 86  6 20  1 30 23.0800000  0  4G 6G13G 9G11
  22106364.821    22106365.968    20625218.271 9  -8252834.226 9
  20666517.142    20666518.173   -12270770.332 9  10240246.958 8
  20044698.474    20044699.124    -7377967.442 9   6388703.058 8
  22483186.780    22483189.304    39126329.998 9 -34216196.803 9
 86  6 20  1 30 29.0800000  0  4G 6G13G 9G11
  22109893.757    22109895.918    20643766.189 9  -8238381.300 8
  20665714.709    20665716.869   -12274990.079 9  10236958.854 8
  20045169.846    20045170.501    -7375486.251 9   6390636.454 7
  22486176.979    22486181.201    39142044.611 9 -34203951.654 8
 86  6 20  1 30 35.0800000  0  4G 6G13G 9G11
  22113426.923    22113427.382    20662330.598 9  -8223915.533 8
  20664914.524    20664917.455   -12279191.290 9  10233685.189 8
  20045646.900    20045648.975    -7372979.460 9   6392589.784 7
  22489168.038    22489171.285    39157764.032 9 -34191702.756 8
 86  6 20  1 30 41.0800000  0  4G 6G13G 9G11
  22116962.325    22116964.671    20680911.445 9  -8209436.957 8
  20664119.022    20664120.496   -12283373.930 9  10230425.993 7
  20046128.976    20046130.631    -7370447.092 9   6394563.070 7
  22492160.241    22492163.737    39173488.159 9 -34179450.189 8
 86  6 20  1 30 47.0800000  0  4G 6G13G 9G11
  22120501.846    22120502.732    20699508.836 9  -8194945.497 8
  20663326.179    20663328.168   -12287538.045 9  10227181.230 8
  20046615.875    20046616.489    -7367888.899 8   6396556.458 6
  22495153.942    22495157.761    39189217.053 9 -34167193.903 7
 86  6 20  1 30 53.0800000  0  4G 6G13G 9G11
  22124043.085    22124044.603    20718122.680 9  -8180441.220 8
  20662537.539    20662540.246   -12291683.564 9  10223950.974 7
  20047106.693    20047109.498    -7365305.019 8   6398569.876 7
  22498147.704    22498150.932    39204950.785 9 -34154933.858 7
 86  6 20  1 30 59.0800000  0  4G 6G13G 9G11
  22127588.730    22127590.246    20736752.961 9  -8165924.124 8
  20661752.056    20661754.626   -12295810.470 9  10220735.200 8
  20047603.760    20047605.430    -7362695.469 9   6400603.270 7
  22501142.503    22501145.996    39220689.240 9 -34142670.131 8
 86  6 20  1 31  5.0800000  0  4G 6G13G 9G11
  22131137.407    22131138.910    20755399.683 9  -8151394.217 9
  20660970.416    20660970.430   -12299918.782 9  10217533.922 8
  20048104.555    20048107.281    -7360060.250 9   6402656.693 7
  22504138.276    22504141.815    39236432.420 9 -34130402.720 7
 86  6 20  1 31 11.0800000  0  4G 6G13G 9G11
  22134688.549    22134690.551    20774062.773 9  -8136851.560 8
                  20660191.673   -12304008.496 8
  20048611.491    20048614.032    -7357399.408 8   6404730.076 8
  22507136.379    22507136.927    39252180.263 9 -34118131.675 8
 86  6 20  1 31 17.0800000  0  4G 6G13G 9G11
                  22138242.953    20792742.302 9
  20659416.959    20659421.017   -12308079.703 9  10268409.282 6
  20049123.140    20049123.713    -7354712.872 8   6406823.480 7
  22510132.261    22510135.266    39267932.827 9 -34105856.945 8
 86  6 20  1 31 23.0800000  0  4G 6G13G 9G11
  22141799.901    22141803.041    20811438.214 9  -8076276.843 4
  20658646.549    20658646.426   -12312132.470 9  10265251.273 8
  20049638.654    20049640.123    -7352000.705 9   6408936.851 8
  22513131.067    22513134.838    39283690.039 9 -34093578.609 8
 86  6 20  1 31 29.0800000  0  4G 6G13G 9G11
  22145361.661    22145363.306    20830150.460 9  -8061695.909 7
  20657877.951    20657879.682   -12316166.759 9  10262108.179 7
  20050159.624    20050161.321    -7349262.711 8   6411070.355 7
  22516131.481    22516132.942    39299451.833 9 -34081296.697 7
 86  6 20  1 31 35.0800000  0  4G 6G13G 9G11
  22148925.647    22148926.651    20848879.064 9  -8047102.193 8
  20657114.221    20657115.148   -12320182.483 9  10258979.042 7
  20050686.213    20050687.040    -7346499.008 8   6413223.892 7
  22519131.135    22519133.414    39315218.240 9 -34069011.190 8
 86  6 20  1 31 41.0800000  0  4G 6G13G 9G11
  22152492.185    22152495.049    20867624.048 9  -8032495.720 8
  20656354.460    20656353.991   -12324179.634 9  10255864.391 7
  20051216.360    20051219.064    -7343709.640 7   6415397.433 7
  22522133.144    22522135.896    39330989.311 9 -34056722.051 8
 86  6 20  1 31 47.0800000  0  4G 6G13G 9G11
  22156062.157    22156064.491    20886385.263 9  -8017876.598 8
  20655597.681    20655597.590   -12328158.393 9  10252764.073 7
  20051752.402    20051755.139    -7340894.562 8   6417591.014 8
  22525134.505    22525137.392    39346764.944 9 -34044429.353 8
 86  6 20  1 31 53.0800000  0  4G 6G13G 9G11
  22159635.679    22159637.953    20905162.850 9  -8003244.719 8
  20654843.702    20654843.318   -12332118.642 9  10249678.162 7
  20052292.096    20052293.929    -7338053.792 9   6419804.599 8
  22528137.661    22528139.880    39362545.184 9 -34032133.055 8
 86  6 20  1 31 59.0800000  0  4G 6G13G 9G11
  22163210.685    22163213.948    20923956.719 9  -7988600.159 8
  20654093.282    20654093.488   -12336060.346 9  10246606.702 8
  20052837.689    20052840.545    -7335187.205 8   6422038.301 8
  22531140.400    22531143.819    39378330.054 9 -34019833.160 8
 86  6 20  1 32  5.0800000  0  4G 6G13G 9G11
  22166790.901    22166793.852    20942766.814 9  -7973942.959 8
  20653346.485    20653347.138   -12339983.605 9  10243549.627 8
  20053388.114    20053391.063    -7332294.908 9   6424292.045 7
  22534145.677    22534148.228    39394119.486 9 -34007529.698 8
 86  6 20  1 32 11.0800000  0  4G 6G13G 9G11
  22170372.266    22170375.883    20961593.198 9  -7959273.043 8
  20652603.924    20652605.246   -12343888.384 9  10240506.948 8
  20053944.688    20053945.921    -7329376.846 9   6426565.858 8
  22537151.112    22537153.326    39409913.497 9 -33995222.691 8
 86  6 20  1 32 17.0800000  0  4G 6G13G 9G11
  22173958.691    22173962.779    20980435.780 9  -7944590.529 8
  20651863.472    20651864.928   -12347774.682 9  10237478.666 8
  20054503.918    20054507.201    -7326433.166 8   6428859.638 7
  22540157.494    22540159.551    39425712.022 9 -33982912.139 7
 86  6 20  1 32 23.0800000  0  4G 6G13G 9G11
  22177547.778    22177550.453    20999294.522 9  -7929895.413 9
  20651128.861    20651129.384   -12351642.584 9  10234464.722 8
  20055070.251    20055070.921    -7323463.755 9   6431173.453 8
  22543164.615    22543167.156    39441514.981 9 -33970598.161 8
 86  6 20  1 32 29.0800000  0  4G 6G13G 9G11
  22181139.327    22181141.818    21018169.543 9  -7915187.613 9
  20650395.217    20650397.057   -12355492.092 9  10231465.119 8
  20055639.231    20055642.402    -7320468.482 8   6433507.430 7
  22546172.657    22546174.349    39457322.472 9 -33958280.628 8
 86  6 20  1 32 35.0800000  0  4G 6G13G 9G11
  22184734.312    22184737.116    21037060.703 9  -7900467.238 9
  20649666.249    20649667.134   -12359323.127 9  10228479.893 8
  20056214.498    20056216.569    -7317447.631 9   6435861.347 8
  22549181.157    22549182.434    39473134.428 9 -33945959.630 7
 86  6 20  1 32 41.0800000  0  4G 6G13G 9G11
  22188332.329    22188335.277    21055967.977 9  -7885734.306 8
  20648940.691    20648943.719   -12363135.727 9  10225509.047 8
  20056793.155    20056796.602    -7314400.968 8   6438235.365 8
  22552191.597    22552193.079    39488950.827 9 -33933635.160 8
 86  6 20  1 32 47.0800000  0  4G 6G13G 9G11
  22191933.124    22191936.243    21074891.402 9  -7870988.784 9
  20648218.019    20648220.869   -12366929.907 9  10222552.547 8
  20057377.906    20057381.230    -7311328.616 8   6440629.412 7
  22555201.614    22555204.446    39504771.639 9 -33921307.253 7
 86  6 20  1 32 53.0800000  0  4G 6G13G 9G11
  22195536.893    22195538.652    21093830.960 9  -7856230.689 8
  20647499.987    20647502.743   -12370705.730 9  10219610.357 8
  20057968.340    20057970.507    -7308230.499 8   6443043.526 8
  22558212.375    22558215.631    39520596.841 9 -33908975.920 9
 86  6 20  1 32 59.0800000  0  4G 6G13G 9G11
  22199144.382    22199147.317    21112786.601 9  -7841460.078 8
  20646785.223    20646787.821   -12374463.123 9  10216682.525 7
  20058563.860    20058565.148    -7305106.659 9   6445477.698 8
  22561225.490    22561227.614    39536426.408 9 -33896641.205 7
 86  6 20  1 33  5.0800000  0  4G 6G13G 9G11
  22202754.448    22202756.894    21131758.360 9  -7826676.892 9
  20646073.338    20646076.059   -12378202.048 9  10213769.057 8
  20059161.536    20059163.709    -7301956.992 8   6447931.967 7
  22564237.684    22564240.954    39552260.316 9 -33884303.090 7
 86  6 20  1 33 11.0800000  0  4G 6G13G 9G11
  22206367.234    22206370.109    21150746.182 9  -7811881.191 8
  20645365.980    20645368.332   -12381922.627 9  10210869.918 8
  20059765.852    20059769.013    -7298781.532 8   6450406.367 8
  22567252.613    22567255.320    39568098.634 9 -33871961.539 7
 86  6 20  1 33 17.0800000  0  4G 6G13G 9G11
  22209983.768    22209986.513    21169750.042 9  -7797072.998 8
  20644661.287    20644662.946   -12385624.804 9  10207985.105 8
  20060375.685    20060376.852    -7295580.406 9   6452900.749 6
  22570266.345    22570268.435    39583941.271 9 -33859616.624 7
 86  6 20  1 33 23.0800000  0  4G 6G13G 9G11
  22213603.818    22213605.649    21188769.972 9  -7782252.285 7
  20643959.215    20643963.021   -12389308.611 9  10205114.606 8
  20060989.978    20060992.477    -7292353.391 8   6455415.286 6
  22573282.264    22573285.165    39599788.273 9 -33847268.322 8
 86  6 20  1 33 29.0800000  0  4G 6G13G 9G11
  22217226.392    22217229.222    21207805.899 9  -7767419.111 8
  20643261.733    20643265.465   -12392973.990 9  10202258.477 7
  20061607.458    20061611.541    -7289100.637 8   6457949.904 7
  22576298.377    22576301.766    39615639.546 9 -33834916.689 8
 86  6 20  1 33 35.0800000  0  4G 6G13G 9G11
  22220851.482    22220854.871    21226857.846 8  -7752573.456 8
  20642567.746    20642571.263   -12396620.996 9  10199416.653 8
  20062231.826    20062234.726    -7285822.178 8   6460504.541 8
  22579315.816    22579319.065    39631495.158 9 -33822561.663 8
 86  6 20  1 33 41.0800000  0  4G 6G13G 9G11
                  22224480.308    21245925.712 9
  20641876.807    20641879.717   -12400249.689 9  10196589.108 8
  20062860.829    20062864.700    -7282517.993 9   6463079.241 7
  22582334.202    22582338.366    39647355.052 9 -33810203.310 7
 86  6 20  1 33 47.0800000  0  4G 6G13G 9G11
  22228113.068    22228114.640    21265009.602 9  -7691696.819 1
  20641190.286    20641192.567   -12403860.045 9  10193775.852 9
  20063493.887    20063497.677    -7279187.945 8   6465674.065 7
  22585353.348    22585355.010    39663219.215 9 -33797841.614 8
 86  6 20  1 33 53.0800000  0  4G 6G13G 9G11
  22231746.111    22231749.461    21284109.397 9  -7676813.876 8
  20640505.683    20640510.019   -12407452.056 9  10190976.869 8
  20064132.878    20064136.275    -7275832.191 8   6468288.948 8
  22588373.103    22588375.525    39679087.604 9 -33785476.637 8
 86  6 20  1 33 59.0800000  0  4G 6G13G 9G11
  22235384.624    22235386.418    21303225.128 9  -7661918.507 8
  20639826.320    20639829.359   -12411025.723 9  10188192.197 8
  20064775.383    20064779.526    -7272450.584 8   6470923.962 8
  22591393.846    22591395.279    39694960.224 9 -33773108.370 8
 86  6 20  1 34  5.0800000  0  4G 6G13G 9G11
  22239024.768    22239027.974    21322356.788 9  -7647010.730 8
  20639149.315    20639151.767   -12414581.091 9  10185421.791 8
  20065424.631    20065428.304    -7269043.253 8   6473579.023 8
  22594415.359    22594418.367    39710837.060 9 -33760736.805 7
 86  6 20  1 34 11.0800000  0  4G 6G13G 9G11
  22242668.718    22242671.724    21341504.343 9  -7632090.572 8
  20638476.276    20638479.081   -12418118.183 9  10182665.615 8
  20066077.951    20066081.294    -7265610.084 9   6476254.190 7
  22597437.976    22597439.594    39726718.074 9 -33748361.997 8
 86  6 20  1 34 17.0800000  0  4G 6G13G 9G11
  22246315.846    22246317.888    21360667.737 9  -7617158.066 9
  20637806.726    20637808.850   -12421636.995 9  10179923.700 8
  20066735.876    20066740.714    -7262151.152 6   6478949.486 8
  22600460.556    22600463.342    39742603.265 9 -33735983.913 8
 86  6 20  1 34 23.0800000  0  4G 6G13G 9G11
  22249965.205    22249968.151    21379847.000 9  -7602213.207 9
  20637141.257    20637142.012   -12425137.655 9  10177195.925 8
  20067399.166    20067401.901    -7258666.405 8   6481664.860 7
  22603483.240    22603486.608    39758492.628 9 -33723602.589 8
 86  6 20  1 34 29.0800000  0  4G 6G13G 9G11
  22253617.483    22253621.188    21399042.131 9  -7587255.964 8
  20636478.564    20636480.069   -12428619.921 9  10174482.471 7
  20068067.786    20068071.972    -7255155.894 9   6484400.330 7
  22606507.444    22606510.061    39774386.194 9 -33711218.000 8
 86  6 20  1 34 35.0800000  0  4G 6G13G 9G11
  22257272.736    22257276.857    21418253.015 9  -7572286.455 8
  20635819.331    20635822.660   -12432083.911 9  10171783.253 8
  20068739.165    20068743.614    -7251619.607 8   6487155.866 8
  22609533.463    22609536.261    39790283.816 9 -33698830.223 8
 86  6 20  1 34 41.0800000  0  4G 6G13G 9G11
  22260931.768    22260935.374    21437479.759 9  -7557304.588 9
  20635163.303    20635165.180   -12435529.573 9  10169098.333 8
  20069417.649    20069420.622    -7248057.465 9   6489931.571 7
  22612558.970    22612562.296    39806185.564 9 -33686439.271 8
 86  6 20  1 34 47.0800000  0  4G 6G13G 9G11
  22264593.975    22264596.595    21456722.273 9  -7542310.426 9
  20634511.866    20634513.060   -12438957.023 8  10166427.614 8
                  20070104.278                     6492732.117 6
  22615585.937    22615589.800    39822091.414 9 -33674045.096 9
 86  6 20  1 34 53.0800000  0  4G 6G13G 9G11
  22268258.561    22268261.250    21475980.578 8  -7527303.972 8
  20633863.133    20633863.966   -12442366.248 9  10163771.072 8
                  20070791.773                     6495549.626 7
  22618612.976    22618616.067    39838001.349 9 -33661647.755 8
 86  6 20  1 34 59.0800000  0  4G 6G13G 9G11
  22271925.748    22271929.057    21495254.571 9  -7512285.285 8
  20633218.124    20633219.377   -12445757.256 9  10161128.736 8
  20071411.884    20071485.090    -7332557.254 7   6498386.033 7
  22621641.022    22621644.544    39853915.305 9 -33649247.268 8
 86  6 20  1 35  5.0800000  0  4G 6G13G 9G11
  22275596.168    22275599.918    21514544.277 9  -7497254.351 8
  20632576.130    20632577.627   -12449130.004 9  10158500.623 8
  20072178.421    20072182.712    -7328891.897 9   6501241.987 7
  22624670.341    22624673.332    39869833.261 9 -33636843.669 8
 86  6 20  1 35 11.0800000  0  4G 6G13G 9G11
  22279268.938    22279273.532    21533849.733 9  -7482211.148 8
  20631937.473    20631939.717   -12452484.517 9  10155886.729 8
  20072881.787    20072884.348    -7325200.316 8   6504118.163 7
  22627700.794    22627704.678    39885755.284 9 -33624436.902 8
 86  6 20  1 35 17.0800000  0  4G 6G13G 9G11
  22282946.254    22282950.978    21553170.837 9  -7467155.757 9
  20631303.880    20631305.717   -12455820.763 9  10153287.057 8
  20073589.051    20073590.164    -7321483.432 8   6507014.445 6
  22630730.037    22630734.143    39901681.293 9 -33612027.021 8
 86  6 20  1 35 23.0800000  0  4G 6G13G 9G11
                  22286625.081    21572507.638 8
  20630670.836    20630672.667   -12459138.757 9  10150701.608 8
  20074301.299    20074303.648    -7317740.779 9   6509930.780 7
  22633762.180    22633765.129    39917611.304 7 -33599614.040 9
 86  6 20  1 35 29.0800000  0  4G 6G13G 9G11
  22290307.531    22290285.437    21591860.086 9  -7406077.669 8
                  20630042.980   -12462438.587 9
  20075019.083    20075018.891    -7313972.258 8   6512867.316 7
  22636793.929    22636797.463    39933545.259 9 -33587197.976 9
 86  6 20  1 35 35.0800000  0  4G 6G13G 9G11
  22293993.752    22293998.745    21611228.243 9  -7390985.756 7
  20629418.698    20629422.568   -12465720.248 9  10194382.180 1
  20075741.144    20075740.917    -7310177.904 9   6515823.953 7
  22639827.249    22639830.586    39949483.245 9 -33574778.771 9
 86  6 20  1 35 41.0800000  0  4G 6G13G 9G11
  22297682.034    22297686.754    21630611.990 9  -7375882.051 8
  20628797.889    20628800.702   -12468983.798 9  10191839.155 8
  20076467.825    20076468.686    -7306357.755 9   6518800.658 7
  22642861.260    22642864.399    39965425.176 9 -33562356.490 8
 86  6 20  1 35 47.0800000  0  4G 6G13G 9G11
  22301373.747    22301379.294    21650011.351 8  -7360765.669 8
  20628180.504    20628183.586   -12472229.137 9  10189310.327 8
  20077199.522    20077200.605    -7302511.888 9   6521797.456 8
  22645895.053    22645899.471    39981371.079 8 -33549931.121 7
 86  6 20  1 35 53.0800000  0  4G 6G13G 9G11
  22305068.551    22305073.314    21669426.285 9  -7345637.159 8
  20627566.557    20627568.531   -12475456.317 9  10186795.648 8
  20077936.512    20077937.720    -7298640.231 8   6524814.338 6
  22648930.733    22648933.509    39997320.887 9 -33537502.701 8
 86  6 20  1 35 59.0800000  0  4G 6G13G 9G11
  22308766.904    22308769.809    21688856.772 9  -7330496.522 8
  20626955.265    20626958.679   -12478665.302 9  10184295.137 8
  20078678.329    20078678.719    -7294742.682 9   6527851.396 6
  22651967.086    22651969.907    40013274.584 9 -33525071.253 9
 86  6 20  1 36  5.0800000  0  4G 6G13G 9G11
  22312466.746    22312470.670    21708302.797 9  -7315343.789 8
  20626348.707    20626351.363   -12481856.193 9  10181808.728 7
  20079426.023    20079424.837    -7290819.359 9   6530908.538 7
  22655003.731    22655005.617    40029232.170 9 -33512636.770 8
 86  6 20  1 36 11.0800000  0  4G 6G13G 9G11
  22316170.307    22316174.087    21727764.334 9  -7300178.973 8
  20625744.593    20625747.704   -12485029.022 9  10179336.398 8
  20080177.514    20080176.271    -7286870.185 9   6533985.809 7
  22658041.245    22658042.620    40045193.654 9 -33500199.253 9
 86  6 20  1 36 17.0800000  0  4G 6G13G 9G11
  22319877.418    22319880.438    21747241.302 9  -7285002.115 8
  20625144.815    20625147.697   -12488183.818 9  10176878.118 8
  20080933.737    20080932.585    -7282895.298 9   6537083.120 6
  22661079.373    22661081.969    40061158.896 9 -33487758.797 9
 86  6 20  1 36 23.0800000  0  4G 6G13G 9G11
  22323586.588    22323590.268    21766733.775 9  -7269813.179 8
  20624547.732    20624550.540   -12491320.400 9  10174434.018 8
  20081694.796    20081693.842    -7278894.585 9   6540200.558 7
  22664118.252    22664120.545    40077127.988 8 -33475315.362 8
 86  6 20  1 36 29.0800000  0  4G 6G13G 9G11
  22327298.221    22327301.637    21786241.699 9  -7254612.217 8
  20623954.989    20623957.075   -12494438.848 9  10172004.072 9
  20082460.242    20082461.218    -7274868.099 8   6543338.079 7
                  22667157.236    40093100.875 9
 86  6 20  1 36 35.0800000  0  4G 6G13G 9G11
  22331014.830    22331017.192    21805765.100 9  -7239399.170 8
  20623365.164    20623366.557   -12497539.238 9  10169588.188 9
  20083231.403    20083230.893    -7270815.720 9   6546495.791 7
  22670197.650    22670199.405    40109077.570 9 -33416824.608 1
 86  6 20  1 36 41.0800000  0  4G 6G13G 9G11
  22334732.619    22334734.392    21825303.975 9  -7224174.095 8
  20622778.235    20622781.265   -12500621.528 9  10167186.399 8
  20084008.414    20084006.591    -7266737.494 9   6549673.629 6
  22673238.486    22673240.870    40125058.016 9 -33404372.301 8
 86  6 20  1 36 47.0800000  0  4G 6G13G 9G11
  22338453.809    22338456.511    21844858.272 9  -7208936.987 9
  20622195.250    20622197.622   -12503685.708 9  10164798.728 9
  20084788.026    20084787.599    -7262633.420 9   6552871.614 7
  22676280.085    22676282.960    40141042.292 9 -33391917.028 8
 86  6 20  1 36 53.0800000  0  4G 6G13G 9G11
  22342178.063    22342180.480    21864428.069 9  -7193687.802 8
  20621615.613    20621617.768   -12506731.723 9  10162425.218 8
  20085574.040    20085572.969    -7258503.461 9   6556089.772 6
  22679323.400    22679324.416    40157030.375 9 -33379458.788 9
 86  6 20  1 36 59.0800000  0  4G 6G13G 9G11
  22345905.493    22345907.678    21884013.181 9  -7178426.682 8
  20621039.207    20621041.428   -12509759.711 9  10160065.747 8
  20086364.584    20086363.919    -7254347.689 9   6559328.025 7
  22682366.549    22682368.350    40173022.187 9 -33366997.630 9
 86  6 20  1 37  5.0800000  0  4G 6G13G 9G11
                  22349638.188                    -7163153.593 8
  20620465.866    20620469.255   -12512769.697 9  10157720.314 8
  20087159.699    20087159.105    -7250166.131 9   6562586.380 6
  22685410.343    22685412.158    40189017.693 9 -33354533.606 9
 86  6 20  1 37 11.0800000  0  4G 6G13G 9G11
  22353367.372    22353370.281    21867066.983 1  -7147868.565 7
  20619896.684    20619899.979   -12515761.616 9  10155388.949 8
  20087961.035    20087960.486    -7245958.703 7   6565864.900 7
  22688454.174    22688457.070    40205016.871 9 -33342066.707 9
 86  6 20  1 37 17.0800000  0  4G 6G13G 9G11
  22357102.921    22357105.840    21886698.118 9  -7132571.560 8
  20619331.824    20619332.641   -12518735.496 9  10153071.652 8
  20088766.308    20088766.233    -7241725.465 9   6569163.522 7
  22691499.934    22691501.644    40221019.710 9 -33329596.964 9
 86  6 20  1 37 23.0800000  0  4G 6G13G 9G11
  22360841.953    22360845.402    21906345.032 9  -7117262.679 8
  20618768.925    20618770.027   -12521691.401 9  10150768.351 8
  20089576.506    20089579.252    -7237466.418 9   6572482.271 8
  22694546.947    22694547.635    40237026.256 9 -33317124.339 9
 86  6 20  1 37 29.0800000  0  4G 6G13G 9G11
                  22364585.339                    -7101941.887 8
  20618209.665    20618210.801   -12524629.356 9  10148479.039 8
  20090391.433    20090393.284    -7233181.549 9   6575821.130 6
  22697593.030    22697594.985    40253036.438 9 -33304648.878 9
 86  6 20  1 37 35.0800000  0  4G 6G13G 9G11
  22368330.026    22368329.159    21889277.728 2  -7086609.179 8
  20617654.168    20617655.696   -12527549.298 9  10146203.768 8
  20091212.248    20091213.622    -7228870.808 8   6579180.139 7
  22700640.862    22700643.219    40269050.278 9 -33292170.568 9
 86  6 20  1 37 41.0800000  0  4G 6G13G 9G11
  22372076.014    22372077.644    21908969.939 9  -7071264.600 9
  20617101.679    20617102.451   -12530451.224 9  10143942.534 7
                  20092039.063                     6582559.221 6
  22703689.204    22703690.335    40285067.713 9 -33279689.451 9
 86  6 20  1 37 47.0800000  0  4G 6G13G 9G11
  22375826.197    22375827.735    21928677.382 9  -7055908.167 7
  20616553.516    20616554.673   -12533335.182 9  10141695.288 7
  20092865.221    20092868.743    -7261061.049 7   6585958.400 8
  22706737.744    22706738.952    40301088.638 9 -33267205.624 9
 86  6 20  1 37 53.0800000  0  4G 6G13G 9G11
  22379579.237    22379580.868    21948400.057 9  -7040539.861 8
  20616008.010    20616008.709   -12536201.159 9  10139462.065 8
  20093701.444    20093704.724    -7256672.849 8   6589377.768 8
  22709786.838    22709787.418    40317113.196 9 -33254718.954 9
 86  6 20  1 37 59.0800000  0  4G 6G13G 9G11
  22383334.901    22383337.174    21968137.918 9  -7025159.718 8
                  20615465.274   -12539049.155 9
  20094540.896    20094544.490    -7252258.819 9   6592817.274 8
  22712837.893    22712837.539    40333141.267 8 -33242229.546 9
 86  6 20  1 38  5.0800000  0  4G 6G13G 9G11
  22387094.126    22387096.029    21987890.953 9  -7009767.751 8
  20614927.409    20614928.090   -12541879.080 9  10183489.206 1
  20095386.305    20095389.459    -7247818.857 9   6596276.971 8
  22715888.686    22715889.659    40349172.932 9 -33229737.350 9
 86  6 20  1 38 11.0800000  0  4G 6G13G 9G11
  22390855.956    22390856.715    22007659.191 9  -6994363.955 8
  20614391.360    20614393.195   -12544691.056 9  10181298.076 7
  20096236.969    20096240.218    -7243353.143 8   6599756.759 9
  22718939.728    22718940.499    40365208.152 9 -33217242.383 7
 86  6 20  1 38 17.0800000  0  4G 6G13G 9G11
  22394621.132    22394621.430    22027442.505 9  -6978948.387 8
  20613859.316    20613861.454   -12547485.116 9  10179120.395 8
  20097090.646    20097095.830    -7238861.570 9   6603256.682 7
  22721990.984    22721992.491    40381246.948 9 -33204744.618 8
 86  6 20  1 38 23.0800000  0  4G 6G13G 9G11
  22398388.767    22398389.156    22047240.975 9  -6963521.019 7
  20613331.324    20613333.502   -12550261.237 8  10176957.180 9
  20097950.780    20097955.207    -7234344.193 9   6606776.718 7
                  22725044.228    40397289.266 5
 86  6 20  1 38 29.0800000  0  4G 6G13G 9G11
  22402158.998    22402160.002    22067054.532 9  -6948081.884 8
  20612806.623    20612808.606   -12553019.456 9  10174807.922 8
  20098815.284    20098819.629    -7229801.036 9   6610316.852 7
  22728096.493    22728098.628    40413335.001 9 -33146200.971 8
 86  6 20  1 38 35.0800000  0  4G 6G13G 9G11
  22405931.788    22405931.986    22086883.170 9  -6932631.004 7
  20612284.973    20612286.767   -12555759.782 9  10172672.611 8
  20099685.792    20099689.592    -7225231.924 9   6613877.194 7
  22731151.714    22731152.845    40429384.223 9 -33133695.079 8
 86  6 20  1 38 41.0800000  0  4G 6G13G 9G11
  22409707.739    22409709.961    22106726.890 9  -6917168.380 7
  20611766.268    20611769.799   -12558482.191 9  10170551.256 8
  20100560.656    20100563.176    -7220637.001 9   6617457.670 8
  22734206.019    22734207.851    40445436.898 9 -33121186.504 9
 86  6 20  1 38 47.0800000  0  4G 6G13G 9G11
  22413486.927    22413487.527    22126585.638 9  -6901694.042 7
  20611252.885    20611254.920   -12561186.743 9  10168443.813 8
  20101439.524    20101440.496    -7216016.262 8   6621058.243 7
  22737261.495    22737264.047    40461492.993 9 -33108675.252 8
 86  6 20  1 38 53.0800000  0  4G 6G13G 9G11
  22417268.589    22417270.822    22146459.441 9  -6886207.951 7
  20610740.903    20610743.773   -12563873.424 9  10166350.306 8
  20102323.673    20102326.145    -7211369.769 9   6624678.880 8
  22740316.944    22740320.156    40477552.585 9 -33096161.308 9
 86  6 20  1 38 59.0800000  0  4G 6G13G 9G11
  22421053.354    22421053.970    22166348.190 9  -6870710.240 8
  20610233.218    20610236.546   -12566542.270 9  10164270.680 8
  20103212.396    20103216.484    -7206697.342 9   6628319.720 7
  22743373.882    22743375.843    40493615.481 9 -33083644.766 9
 86  6 20  1 39  5.0800000  0  4G 6G13G 9G11
  22424841.169    22424842.129    22186252.014 9  -6855200.782 7
  20609729.051    20609731.804   -12569193.226 9  10162204.999 9
  20104107.210    20104110.366    -7201999.074 9   6631980.706 7
  22746430.784    22746433.202    40509681.840 9 -33071125.529 9
 86  6 20  1 39 11.0800000  0  4G 6G13G 9G11
  22428631.603    22428632.660    22206170.745 9  -6839679.697 7
  20609228.472    20609230.651   -12571826.339 9  10160153.232 9
  20105005.827    20105010.194    -7197275.054 8   6635661.766 8
  22749489.272    22749491.967    40525751.513 9 -33058603.713 8
 86  6 20  1 39 17.0800000  0  4G 6G13G 9G11
  22432424.166    22432426.281    22226104.302 9  -6824147.069 7
  20608730.971    20608733.006   -12574441.649 9  10158115.333 8
  20105911.228    20105912.833    -7192525.189 8   6639362.961 7
  22752547.747    22752550.115    40541824.477 9 -33046079.329 8
 86  6 20  1 39 23.0800000  0  4G 6G13G 9G11
  22436220.267    22436222.340    22246052.865 9  -6808602.737 7
  20608236.293    20608237.770   -12577039.069 9  10156091.363 8
  20106818.745    20106821.765    -7187749.514 9   6643084.243 7
  22755607.123    22755609.763    40557900.881 9 -33033552.268 9
 86  6 20  1 39 29.0800000  0  4G 6G13G 9G11
  22440018.515    22440020.978    22266016.316 9  -6793046.820 7
  20607745.002    20607747.663   -12579618.758 9  10154081.228 8
  20107733.275    20107734.483    -7182947.983 9   6646825.716 7
  22758667.224    22758669.111    40573980.601 9 -33021022.624 9
 86  6 20  1 39 35.0800000  0  4G 6G13G 9G11
  22443821.048    22443822.469    22285994.671 9  -6777479.277 7
  20607257.977    20607259.411   -12582180.594 9  10152084.997 9
  20108651.964    20108653.991    -7178120.631 8   6650587.279 7
  22761727.622    22761729.414    40590063.722 8 -33008490.329 8
 86  6 20  1 39 41.0800000  0  4G 6G13G 9G11
  22447624.619    22447627.511    22305987.931 9  -6761900.128 8
  20606773.416    20606776.327   -12584724.650 9  10150102.619 8
  20109575.557    20109576.301    -7173267.449 9   6654368.974 8
  22764788.608    22764790.761    40606150.084 9 -32995955.500 9
 86  6 20  1 39 47.0800000  0  4G 6G13G 9G11
  22451431.366    22451435.187    22325996.042 9  -6746309.405 7
  20606292.710    20606295.034   -12587250.910 9  10148134.104 9
                  20110504.826                     6658170.822 7
  22767850.148    22767851.652    40622239.746 9 -32983418.113 9
 86  6 20  1 39 53.0800000  0  4G 6G13G 9G11
  22455242.204    22455245.321    22346019.005 9  -6730707.108 8
  20605815.648    20605817.863   -12589759.374 9  10146179.467 9
  20111436.812    20111437.747    -7204909.006 3   6661992.831 6
  22770912.542    22770914.697    40638332.667 9 -32970878.183 8
 86  6 20  1 39 59.0800000  0  4G 6G13G 9G11
  22459055.074    22459059.008    22366056.825 9  -6715093.240 8
  20605341.040    20605343.267   -12592250.124 9  10144238.619 8
  20112375.522    20112376.062    -7199978.279 9   6665834.966 8
  22773975.776    22773978.359    40654428.775 9 -32958335.766 9
 86  6 20  1 40  5.0800000  0  4G 6G13G 9G11
  22462871.502    22462875.703    22386109.399 9  -6699467.862 7
  20604870.033    20604874.338   -12594723.058 9  10142311.661 8
  20113318.978    20113318.171    -7195022.167 9   6669697.252 8
  22777038.364    22777041.658    40670528.155 9 -32945790.804 9
 86  6 20  1 40 11.0800000  0  4G 6G13G 9G11
  22466690.157    22466693.935    22406176.789 9  -6683830.952 8
  20604402.166    20604406.753   -12597178.162 9  10140398.591 9
  20114267.105    20114267.229    -7190039.677 9   6673579.703 7
  22780102.537    22780106.942    40686630.765 9 -32933243.322 9
 86  6 20  1 40 17.0800000  0  4G 6G13G 9G11
  22470511.597    22470514.976    22426258.858 9  -6668182.603 8
  20603938.657    20603942.620   -12599615.660 9  10138499.256 8
  20115220.204    20115220.798    -7185031.509 9   6677482.177 7
  22783167.592    22783170.527    40702736.487 9 -32920693.408 9
 86  6 20  1 40 23.0800000  0  4G 6G13G 9G11
  22474335.272    22474338.876    22446355.605 9  -6652522.805 8
  20603478.502    20603482.042   -12602035.405 9  10136613.732 8
  20116177.488    20116177.804    -7179997.486 9   6681404.799 7
  22786232.106    22786237.013    40718845.348 9 -32908141.052 8
 86  6 20  1 40 29.0800000  0  4G 6G13G 9G11
  22478162.491    22478166.787    22466467.093 9  -6636851.538 9
  20603021.154    20603024.703   -12604437.451 9  10134742.007 8
  20117139.569    20117141.679    -7174937.659 8   6685347.516 7
  22789299.167    22789302.506    40734957.361 9 -32895586.238 8
 86  6 20  1 40 35.0800000  0  4G 6G13G 9G11
  22481993.105    22481996.152    22486593.300 9  -6621168.783 9
  20602567.241    20602571.331   -12606821.833 9  10132884.065 9
  20118107.311    20118107.693    -7169851.995 9   6689310.369 7
  22792364.971    22792367.888    40751072.577 9 -32883028.941 9
 86  6 20  1 40 41.0800000  0  4G 6G13G 9G11
  22485825.622    22485829.615    22506734.224 9  -6605474.570 9
  20602116.853    20602121.221   -12609188.460 9  10131039.932 8
  20119079.937    20119081.441    -7164740.469 9   6693293.392 8
  22795432.729    22795436.109    40767190.965 9 -32870469.158 8
 86  6 20  1 40 47.0800000  0  4G 6G13G 9G11
  22489660.330    22489664.278    22526889.777 9  -6589768.956 9
  20601670.407    20601674.030   -12611537.327 9  10129209.648 8
  20120057.191    20120059.519    -7159603.160 8   6697296.471 7
  22798499.835    22798502.076    40783312.497 9 -32857906.925 8
 86  6 20  1 40 53.0800000  0  4G 6G13G 9G11
  22493499.355    22493503.403    22547059.970 9  -6574051.928 8
  20601225.772    20601229.998   -12613868.568 9  10127393.103 9
  20121039.755    20121043.076    -7154440.047 9   6701319.690 7
  22801569.635    22801572.011    40799437.120 9 -32845342.297 9
 86  6 20  1 40 59.0800000  0  4G 6G13G 9G11
  22497340.098    22497344.590    22567244.768 9  -6558323.525 9
  20600785.807    20600789.367   -12616182.073 9  10125590.373 8
  20122027.336    20122029.776    -7149251.125 9   6705363.003 6
  22804638.876    22804640.624    40815564.856 9 -32832775.224 8
 86  6 20  1 41  5.0800000  0  4G 6G13G 9G11
  22501183.661    22501187.812    22587444.164 9  -6542583.749 9
  20600349.937    20600352.530   -12618478.001 9  10123801.354 9
  20123020.091    20123020.205    -7144036.391 9   6709426.436 7
  22807707.657    22807709.988    40831695.621 9 -32820205.805 8
 86  6 20  1 41 11.0800000  0  4G 6G13G 9G11
  22505030.858    22505035.237    22607658.044 9  -6526832.693 8
  20599915.092    20599919.408   -12620756.304 9  10122026.046 8
  20124016.994    20124018.856    -7138795.881 8   6713509.936 7
  22810777.322    22810779.926    40847829.415 9 -32807634.015 7
 86  6 20  1 41 17.0800000  0  4G 6G13G 9G11
  22508879.832    22508883.492    22627886.606 9  -6511070.191 9
  20599485.871    20599488.037   -12623016.928 9  10120264.538 7
  20125020.257    20125019.731    -7133529.526 9   6717613.603 7
  22813849.089    22813849.906    40863966.315 9 -32795059.801 8
 86  6 20  1 41 23.0800000  0  4G 6G13G 9G11
  22512732.981    22512736.102    22648129.677 9  -6495296.388 9
  20599058.479    20599061.154   -12625259.856 9  10118516.797 8
  20126027.037    20126028.594    -7128237.262 8   6721737.435 7
  22816919.686    22816922.417    40880106.234 9 -32782483.252 9
 86  6 20  1 41 29.0800000  0  4G 6G13G 9G11
  22516587.750    22516590.198    22668387.209 9  -6479511.300 9
  20598635.508    20598638.072   -12627485.173 9  10116782.797 8
  20127039.107    20127039.392    -7122919.258 9   6725881.340 7
  22819991.655    22819994.311    40896249.113 9 -32769904.397 8
 86  6 20  1 41 35.0800000  0  4G 6G13G 9G11
  22520444.979    22520448.354    22688659.248 9  -6463714.919 8
  20598215.247    20598218.023   -12629692.955 9  10115062.453 8
  20128056.139    20128056.622    -7117575.546 8   6730045.271 7
  22823063.624    22823066.569    40912394.966 9 -32757323.207 8
 86  6 20  1 41 41.0800000  0  4G 6G13G 9G11
  22524305.884    22524309.374    22708945.683 9  -6447907.326 8
  20597797.387    20597801.430   -12631883.244 9  10113355.749 7
  20129077.854    20129080.106    -7112206.054 9   6734229.292 8
  22826137.373    22826139.190    40928543.764 9 -32744739.752 8
 86  6 20  1 41 47.0800000  0  4G 6G13G 9G11
  22528169.363    22528172.911    22729246.628 9  -6432088.413 8
  20597385.062    20597387.901   -12634055.930 9  10111662.751 8
  20130103.611    20130105.466    -7106810.716 8   6738433.455 8
  22829208.479    22829213.289    40944695.497 9 -32732153.974 8
 86  6 20  1 41 53.0800000  0  4G 6G13G 9G11
  22532034.621    22532038.171    22749561.979 9  -6416258.286 9
  20596974.872    20596977.170   -12636211.016 9  10109983.461 9
  20131136.031    20131136.484    -7101389.493 8   6742657.783 7
  22832284.334    22832287.005    40960850.180 9 -32719565.920 7
 86  6 20  1 41 59.0800000  0  4G 6G13G 9G11
  22535903.439    22535906.403    22769891.777 9  -6400416.895 9
  20596568.242    20596570.010   -12638348.457 9  10108317.937 8
  20132171.752    20132173.778    -7095942.449 9   6746902.236 8
  22835358.240    22835362.098    40977007.824 9 -32706975.555 7
 86  6 20  1 42  5.0800000  0  4G 6G13G 9G11
  22539774.946    22539777.668    22790235.975 9  -6384564.287 9
  20596165.638    20596167.155   -12640468.381 9  10106666.061 7
  20133213.048    20133214.060    -7090469.636 8   6751166.757 7
  22838433.374    22838436.774    40993168.401 9 -32694382.898 8
 86  6 20  1 42 11.0800000  0  4G 6G13G 9G11
  22543649.077    22543652.966    22810594.551 9  -6368700.466 9
  20595765.376    20595768.553   -12642570.813 9  10105027.801 8
  20134259.786    20134260.646    -7084970.998 8   6755451.413 7
  22841510.303    22841512.392    41009331.819 9 -32681788.038 9
 86  6 20  1 42 17.0800000  0  4G 6G13G 9G11
  22547526.738    22547529.499    22830967.521 9  -6352825.432 8
  20595367.841    20595369.698   -12644655.763 9  10103403.192 9
  20135310.330    20135311.861    -7079446.572 8   6759756.153 7
                  22844589.703                   -32669190.918 8
 86  6 20  1 42 23.0800000  0  4G 6G13G 9G11
  22551405.660    22551409.810    22851354.866 9  -6336939.214 8
                  20594975.583   -12646723.084 9
  20136367.178    20136368.799    -7073896.310 8   6764081.030 7
  22847663.365    22847667.084    40988978.895 1 -32656591.496 9
 86  6 20  1 42 29.0800000  0  4G 6G13G 9G11
  22555288.485    22555291.092    22871756.531 9  -6321041.812 9
  20594584.561    20594679.861   -12648772.863 9  10147707.539 8
  20137427.910    20137428.951    -7068320.277 8   6768426.007 6
  22850740.875    22850743.685    41005150.973 8 -32643989.883 9
 86  6 20  1 42 35.0800000  0  4G 6G13G 9G11
                  22559171.988    22892172.523 9
  20594197.403    20594201.115   -12650805.110 9  10146124.006 5
  20138494.719    20138495.280    -7062718.360 8   6772791.121 7
  22853818.528    22853822.211    41021326.408 9 -32631386.042 9
 86  6 20  1 42 41.0800000  0  4G 6G13G 9G11
  22563060.495    22563063.831    22912602.756 9  -6259231.089 1
  20593814.300    20593817.675   -12652819.884 9  10144554.041 9
  20139565.267    20139566.023    -7057090.759 9   6777176.276 7
  22856897.377    22856900.556    41037504.118 9 -32618780.047 9
 86  6 20  1 42 47.0800000  0  4G 6G13G 9G11
  22566951.422    22566954.228    22933047.219 9  -6243300.369 6
  20593433.808    20593437.828   -12654817.220 9  10142998.186 8
  20140641.090    20140641.744    -7051437.413 7   6781581.476 6
  22859976.667    22859979.150    41053684.575 9 -32606171.916 8
 86  6 20  1 42 53.0800000  0  4G 6G13G 9G11
  22570844.009    22570847.699    22953505.947 9  -6227358.017 9
  20593057.393    20593060.879   -12656797.083 9  10141455.448 8
  20141721.767    20141720.841    -7045758.255 9   6786006.791 7
                  22863056.541    41069867.803 9
 86  6 20  1 42 59.0800000  0  4G 6G13G 9G11
  22574740.946    22574743.378    22973978.861 9  -6211405.109 9
  20592684.018    20592687.191   -12658759.474 9  10139926.303 8
  20142807.719    20142808.022    -7040053.282 8   6790452.220 7
  22866136.380    22866139.441    41086053.815 9 -32547630.149 1
 86  6 20  1 43  5.0800000  0  4G 6G13G 9G11
  22578639.541    22578641.988    22994465.981 9  -6195441.137 9
  20592314.609    20592316.194   -12660704.459 9  10138410.728 8
  20143898.846    20143898.022    -7034322.493 8   6794917.779 6
  22869216.847    22869219.605    41102242.609 9 -32535015.504 8
 86  6 20  1 43 11.0800000  0  4G 6G13G 9G11
  22582541.313    22582541.902    23014967.317 9  -6179466.081 9
  20591947.635    20591950.320   -12662632.065 9  10136908.694 8
  20144994.272    20144995.004    -7028565.930 8   6799403.412 6
  22872298.048    22872300.492    41118434.164 9 -32522398.716 8
 86  6 20  1 43 17.0800000  0  4G 6G13G 9G11
  22586443.946    22586446.921    23035482.797 9  -6163480.004 9
  20591584.264    20591586.426   -12664542.155 9  10135420.315 8
  20146092.971    20146095.521    -7022783.622 8   6803909.083 6
  22875379.665    22875382.021    41134628.474 9 -32509779.781 7
 86  6 20  1 43 23.0800000  0  4G 6G13G 9G11
  22590351.041    22590352.831    23056012.409 9  -6147482.912 9
  20591224.082    20591225.994   -12666434.840 9  10133945.492 8
  20147198.289    20147200.189    -7016975.548 9   6808434.863 7
  22878462.167    22878464.835    41150825.468 9 -32497158.751 7
 86  6 20  1 43 29.0800000  0  4G 6G13G 9G11
  22594260.484    22594263.244    23076556.181 9  -6131474.789 8
  20590867.240    20590869.369   -12668310.120 9  10132484.242 8
  20148307.822    20148308.781    -7011141.684 8   6812980.742 7
  22881545.022    22881547.629    41167025.204 9 -32484535.572 8
 86  6 20  1 43 35.0800000  0  4G 6G13G 9G11
  22598172.587    22598175.280    23097114.008 9  -6115455.725 7
  20590513.789    20590515.497   -12670168.051 9  10131036.517 8
  20149423.105    20149424.298    -7005282.140 9   6817546.596 6
  22884627.654    22884630.103    41183227.600 9 -32471910.336 8
 86  6 20  1 43 41.0800000  0  4G 6G13G 9G11
  22602087.408    22602089.959    23117685.940 9  -6099425.661 9
  20590163.964    20590165.031   -12672008.648 9  10129602.281 7
  20150542.092    20150543.283    -6999396.743 7   6822132.625 6
  22887712.365    22887714.385    41199432.596 9 -32459283.085 8
 86  6 20  1 43 47.0800000  0  4G 6G13G 9G11
  22606004.294    22606006.667    23138271.988 9  -6083384.585 8
  20589816.464    20589818.600   -12673831.771 9  10128181.672 8
  20151667.637    20151670.724    -6993485.548 9   6826738.744 5
  22890796.069    22890798.395    41215640.310 9 -32446653.693 8
 86  6 20  1 43 53.0800000  0  4G 6G13G 9G11
  22609924.841    22609927.601    23158872.036 9  -6067332.621 9
                  20589473.061   -12675637.562 9
  20152796.171    20152799.514    -6987548.599 7   6831364.922 6
  22893880.616    22893884.029    41231850.632 9 -32434022.271 8
 86  6 20  1 43 59.0800000  0  4G 6G13G 9G11
  22613846.706    22613850.167    23179486.140 9  -6051269.691 8
  20589132.491    20589235.088   -12677426.053 9  10173001.916 1
  20153931.600    20153934.647    -6981585.906 8   6836011.190 7
  22896966.369    22896968.967    41248063.612 9 -32421388.796 8
 86  6 20  1 44  5.0800000  0  4G 6G13G 9G11
  22617772.916    22617775.233    23200114.227 9  -6035195.871 9
  20588795.080    20588796.551   -12679197.177 9  10171621.834 4
  20155072.297    20155074.691    -6975597.391 2   6840677.570 7
  22900051.660    22900055.072    41264279.184 9 -32408753.287 7
 86  6 20  1 44 11.0800000  0  4G 6G13G 9G11
  22621701.189    22621703.765    23220756.300 9  -6019111.162 9
  20588461.224    20588463.868   -12680951.042 9  10170255.207 8
  20156216.564    20156215.781    -6969583.237 8   6845363.925 6
  22903138.533    22903141.164    41280497.284 9 -32396115.817 8
 86  6 20  1 44 17.0800000  0  4G 6G13G 9G11
  22625631.638    22625634.558    23241412.303 9  -6003015.578 9
  20588131.088    20588133.864   -12682687.515 9  10168902.109 7
  20157367.679    20157368.140    -6963543.237 8   6850070.425 7
  22906224.568    22906227.723    41296717.957 9 -32383476.330 8
 86  6 20  1 44 23.0800000  0  4G 6G13G 9G11
  22629564.860    22629567.539    23262082.253 9  -5986909.139 9
  20587804.927    20587806.080   -12684406.628 9  10167562.542 8
  20158520.416    20158522.789    -6957477.499 8   6854796.972 6
  22909312.512    22909314.168    41312941.130 9 -32370834.920 7
 86  6 20  1 44 29.0800000  0  4G 6G13G 9G11
  22633501.005    22633504.253    23282766.148 9  -5970791.836 9
  20587480.357    20587483.002   -12686108.440 9  10166236.459 8
  20159679.892    20159679.140    -6951386.041 9   6859543.564 7
  22912400.194    22912402.732    41329166.834 9 -32358191.513 8
 86  6 20  1 44 35.0800000  0  4G 6G13G 9G11
  22637439.698    22637442.918    23303463.917 9  -5954663.721 9
  20587159.640    20587161.011   -12687793.091 9  10164923.740 8
  20160844.498    20160845.903    -6945268.885 8   6864310.168 7
  22915488.190    22915490.973    41345395.068 9 -32345546.139 7
 86  6 20  1 44 41.0800000  0  4G 6G13G 9G11
  22641380.878    22641384.327    23324175.556 9  -5938524.782 9
  20586842.894    20586845.281   -12689460.499 9  10163624.462 8
  20162012.654    20162013.619    -6939125.861 8   6869096.943 6
  22918576.613    22918578.665    41361625.848 9 -32332898.783 7
 86  6 20  1 44 47.0800000  0  4G 6G13G 9G11
  22645324.662    22645327.952    23344901.085 9  -5922375.038 8
  20586528.181    20586530.113   -12691110.656 9  10162338.634 8
                  20163188.246                     6873903.669 6
  22921665.911    22921668.026    41377859.103 9 -32320249.488 9
 86  6 20  1 44 53.0800000  0  4G 6G13G 9G11
  22649271.196    22649274.700    23365640.419 9  -5906214.535 9
  20586217.849    20586219.008   -12692743.568 9  10161066.241 8
  20164364.946    20164368.227    -6976814.761 7   6878730.516 6
  22924756.010    22924758.589    41394094.830 9 -32307598.302 9
 86  6 20  1 44 59.0800000  0  4G 6G13G 9G11
  22653220.102    22653222.778    23386393.551 9  -5890043.265 8
  20585910.284    20585912.276   -12694359.264 9  10159807.257 8
  20165550.464    20165550.554    -6970594.620 8   6883577.379 6
  22927845.369    22927847.953    41410333.008 9 -32294945.176 8
 86  6 20  1 45  5.0800000  0  4G 6G13G 9G11
  22657171.358    22657175.606    23407160.561 9  -5873861.207 9
  20585605.416    20585607.639   -12695957.695 9  10158561.733 8
  20166738.804    20166737.850    -6964348.780 9   6888444.279 6
  22930935.832    22930939.086    41426573.671 9 -32282290.119 8
 86  6 20  1 45 11.0800000  0  4G 6G13G 9G11
  22661126.701    22661130.105    23427941.335 9  -5857668.405 9
  20585304.608    20585307.204   -12697538.857 9  10157329.665 7
  20167932.800    20167931.701    -6958077.073 9   6893331.338 6
  22934026.605    22934029.502    41442816.805 9 -32269633.127 7
 86  6 20  1 45 17.0800000  0  4G 6G13G 9G11
  22665083.822    22665086.138    23448735.855 9  -5841464.891 9
  20585007.406    20585008.668   -12699102.783 9  10156111.015 8
  20169131.560    20169128.808    -6951779.757 9   6898238.329 7
  22937118.420    22937121.146    41459062.339 9 -32256974.284 9
 86  6 20  1 45 23.0800000  0  4G 6G13G 9G11
  22669043.805    22669045.779    23469544.117 9  -5825250.672 8
  20584712.639    20584715.118   -12700649.558 9  10154905.748 9
  20170334.963    20170331.717    -6945456.729 9   6903165.372 7
  22940210.163    22940213.133    41475310.327 9 -32244313.531 8
 86  6 20  1 45 29.0800000  0  4G 6G13G 9G11
  22673006.048    22673008.111    23490366.117 9  -5809025.752 8
  20584422.129    20584424.435   -12702179.076 9  10153713.931 7
  20171543.595    20171540.218    -6939107.822 8   6908112.579 7
  22943302.539    22943304.667    41491560.721 9 -32231650.872 8
 86  6 20  1 45 35.0800000  0  4G 6G13G 9G11
  22676970.894    22676972.983    23511201.896 9  -5792790.091 9
  20584134.417    20584135.802   -12703691.417 9  10152535.477 8
  20172755.584    20172754.268    -6932733.305 9   6913079.724 7
  22946395.470    22946399.089    41507813.556 9 -32218986.338 7
 86  6 20  1 45 41.0800000  0  4G 6G13G 9G11
  22680938.890    22680940.251    23532051.347 9  -5776543.782 8
  20583849.263    20583852.102   -12705186.531 9  10151370.451 9
  20173973.351    20173972.519    -6926333.027 9   6918066.969 6
  22949489.805    22949491.456    41524068.776 9 -32206319.943 8
 86  6 20  1 45 47.0800000  0  4G 6G13G 9G11
  22684908.921    22684910.023    23552914.449 9  -5760286.832 8
  20583568.357    20583569.547   -12706664.530 9  10150218.784 7
  20175195.676    20175194.545    -6919907.089 8   6923074.195 6
  22952582.557    22952584.826    41540326.267 9 -32193651.765 7
 86  6 20  1 45 53.0800000  0  4G 6G13G 9G11
  22688881.238    22688882.738    23573791.193 9  -5744019.255 8
  20583291.182    20583293.094   -12708125.401 9  10149080.445 8
  20176424.856    20176422.563    -6913455.393 8   6928101.474 6
  22955677.063    22955679.911    41556586.110 9 -32180981.769 8
 86  6 20  1 45 59.0800000  0  4G 6G13G 9G11
  22692856.732    22692857.592    23594681.540 9  -5727741.063 7
  20583016.417    20583017.613   -12709569.187 9  10147955.428 8
  20177655.884    20177655.459    -6906978.016 9   6933148.775 7
  22958771.871    22958773.879    41572848.205 9 -32168309.999 8
 86  6 20  1 46  5.0800000  0  4G 6G13G 9G11
  22696835.115    22696836.589    23615585.530 9  -5711452.263 7
  20582745.201    20582745.704   -12710995.830 9  10146843.755 8
  20178893.228    20178893.980    -6900474.885 7   6938216.156 7
  22961866.377    22961869.059    41589112.621 9 -32155636.429 8
 86  6 20  1 46 11.0800000  0  4G 6G13G 9G11
  22700815.304    22700815.376    23636503.076 9  -5695152.875 8
  20582476.772    20582477.590   -12712405.429 9  10145745.376 8
  20180135.830    20180136.594    -6893946.016 9   6943303.567 6
  22964961.754    22964964.042    41605379.348 9 -32142961.070 8
 86  6 20  1 46 17.0800000  0  4G 6G13G 9G11
  22704797.693    22704798.366    23657434.181 9  -5678842.930 8
  20582211.539    20582212.858   -12713797.961 9  10144660.293 9
  20181382.208    20181382.905    -6887391.522 9   6948410.956 7
  22968058.313    22968059.737    41621648.335 9 -32130283.942 8
 86  6 20  1 46 23.0800000  0  4G 6G13G 9G11
  22708784.406    22708784.509    23678378.815 9  -5662522.455 7
  20581950.225    20581951.985   -12715173.420 9  10143588.508 9
  20182634.700    20182636.207    -6880811.307 8   6953538.411 7
  22971154.161    22971155.476    41637919.591 9 -32117605.034 8
 86  6 20  1 46 29.0800000  0  4G 6G13G 9G11
  22712771.575    22712773.105    23699336.983 9  -5646191.421 8
  20581691.861    20581692.828   -12716531.757 9  10142530.068 8
  20183892.291    20183894.065    -6874205.459 8   6958685.823 7
  22974250.545    22974251.633    41654193.113 9 -32104924.373 8
 86  6 20  1 46 35.0800000  0  4G 6G13G 9G11
  22716763.355    22716763.927    23720308.713 9  -5629849.834 8
  20581435.950    20581437.146   -12717872.979 9  10141484.970 8
  20185154.153    20185154.362    -6867573.779 8   6963853.064 6
  22977347.882    22977350.028    41670468.872 9 -32092241.973 8
 86  6 20  1 46 41.0800000  0  4G 6G13G 9G11
  22720756.133    22720757.538    23741293.913 9  -5613497.729 8
  20581183.195    20581186.186   -12719197.113 9  10140453.175 8
                  20186422.035                     6969047.286 6
  22980445.583    22980447.052    41686746.781 9 -32079557.903 8
 86  6 20  1 46 47.0800000  0  4G 6G13G 9G11
  22724751.088    22724753.104    23762292.540 9  -5597135.182 8
  20580935.225    20580936.576   -12720504.249 9  10139434.636 8
  20187691.868    20187693.450    -6919935.586 8   6974254.294 7
  22983543.663    22983545.030    41703026.852 9 -32066872.135 8
 86  6 20  1 46 53.0800000  0  4G 6G13G 9G11
  22728750.136    22728751.167    23783304.602 9  -5580762.159 8
  20580690.017    20580691.637   -12721794.326 9  10138429.381 8
  20188969.664    20188971.017    -6913227.063 8   6979481.722 7
  22986641.926    22986644.115    41719309.104 9 -32054184.663 9
 86  6 20  1 46 59.0800000  0  4G 6G13G 9G11
  22732751.157    22732752.858    23804330.082 9  -5564378.671 7
  20580447.857    20580450.115   -12723067.402 9  10137437.379 8
  20190250.878    20190251.547    -6906492.812 9   6984729.196 6
  22989740.459    22989742.777    41735593.551 9 -32041495.508 8
 86  6 20  1 47  5.0800000  0  4G 6G13G 9G11
  22736754.294    22736754.153    23825368.914 9  -5547984.795 8
  20580208.227    20580211.277   -12724323.508 9  10136458.600 9
  20191536.437    20191540.315    -6899732.847 9   6989996.707 6
  22992839.450    22992842.320    41751880.136 8 -32028804.651 8
 86  6 20  1 47 11.0800000  0  4G 6G13G 9G11
  22740760.352    22740761.552    23846421.145 9  -5531580.451 7
  20579973.682    20579975.393   -12725562.571 9  10135493.105 9
  20192827.826    20192828.758    -6892947.225 8   6995284.192 7
  22995938.717    22995942.474    41768168.915 9 -32016112.114 8
 86  6 20  1 47 17.0800000  0  4G 6G13G 9G11
  22744769.216    22744773.024    23867486.776 9  -5515165.698 7
  20579740.677    20579743.173   -12726784.626 9  10134540.854 8
  20194122.986    20194125.924    -6886136.023 8   7000591.606 7
  22999040.339    22999042.643    41784459.779 9 -32003417.934 8
 86  6 20  1 47 23.0800000  0  4G 6G13G 9G11
  22748779.681    22748781.895    23888565.717 9  -5498740.563 8
  20579512.188    20579513.590   -12727989.738 9  10133601.806 8
  20195425.278    20195424.858    -6879299.107 8   7005919.083 7
  23002140.412    23002142.907    41800752.743 9 -31990722.126 9
 86  6 20  1 47 29.0800000  0  4G 6G13G 9G11
  22752793.838    22752795.373    23909657.972 9  -5482305.042 7
  20579285.152    20579286.200   -12729177.915 9  10132675.948 8
  20196729.874    20196732.469    -6872436.513 8   7011266.554 6
  23005241.334    23005243.264    41817047.820 9 -31978024.671 8
 86  6 20  1 47 35.0800000  0  4G 6G13G 9G11
  22756809.799    22756811.734    23930763.511 9  -5465859.171 7
  20579062.335    20579063.268   -12730349.223 9  10131763.243 8
  20198042.276    20198043.142    -6865548.365 8   7016633.945 7
  23008342.818    23008343.455    41833345.001 8 -31965325.560 8
 86  6 20  1 47 41.0800000  0  4G 6G13G 9G11
  22760829.196    22760830.080    23951882.324 8  -5449402.972 7
  20578843.442    20578843.989   -12731503.625 9  10130863.728 9
  20199357.425    20199356.910    -6858634.483 9   7022021.371 7
  23011444.161    23011446.088    41849644.331 9 -31952624.803 8
 86  6 20  1 47 47.0800000  0  4G 6G13G 9G11
  22764849.819    22764851.550    23973014.417 9  -5432936.415 7
  20578626.414    20578627.182   -12732641.127 9  10129977.356 8
  20200678.089    20200679.815    -6851695.005 9   7027428.757 7
  23014546.638    23014547.934    41865945.630 9 -31939922.489 8
 86  6 20  1 47 53.0800000  0  4G 6G13G 9G11
  22768874.021    22768875.681    23994159.780 9  -5416459.524 8
  20578413.276    20578413.820   -12733761.645 9  10129104.234 9
  20202003.328    20202004.646    -6844729.876 9   7032856.137 7
  23017648.241    23017650.994    41882249.015 9 -31927218.559 9
 86  6 20  1 47 59.0800000  0  4G 6G13G 9G11
  22772900.514    22772902.120    24015318.342 8  -5399972.352 7
  20578202.977    20578204.093   -12734865.303 9  10128244.250 8
  20203332.616    20203334.419    -6837739.176 9   7038303.443 7
  23020750.682    23020753.341    41898554.445 9 -31914513.022 9
 86  6 20  1 48  5.0800000  0  4G 6G13G 9G11
  22776929.010    22776931.365    24036490.085 9  -5383474.900 7
  20577995.949    20577997.497   -12735952.032 9  10127397.450 8
  20204669.029    20204669.230    -6830722.802 9   7043770.743 7
  23023854.096    23023856.737    41914861.910 9 -31901805.918 9
 86  6 20  1 48 11.0800000  0  4G 6G13G 9G11
  22780959.907    22780961.637    24057675.000 9  -5366967.181 8
  20577792.641    20577792.898   -12737021.882 9  10126563.810 8
  20206009.698    20206009.026    -6823680.839 8   7049257.969 7
  23026956.857    23026960.013    41931171.358 8 -31889097.271 8
 86  6 20  1 48 17.0800000  0  4G 6G13G 9G11
  22784993.209    22784996.402    24078873.087 9  -5350449.210 8
                  20577591.875   -12738074.858 9
  20207353.644    20207354.463    -6816613.289 9   7054765.158 7
  23030061.291    23030064.218    41947482.690 9 -31876387.140 9
 86  6 20  1 48 23.0800000  0  4G 6G13G 9G11
  22789030.262    22789032.095    24100084.288 9  -5333921.014 8
  20577393.809    20577400.809   -12739111.015 9  10171966.923 1
  20208702.627    20208704.658    -6809520.145 8   7060292.274 6
  23033165.717    23033168.654    41963796.007 9 -31863675.472 8
 86  6 20  1 48 29.0800000  0  4G 6G13G 9G11
  22793068.551    22793071.752    24121308.571 9  -5317382.629 7
  20577200.776    20577201.500   -12740130.308 9  10171173.180 6
  20210058.418    20210059.158    -6802401.256 8   7065839.446 8
  23036269.730    23036272.976    41980111.297 9 -31850962.273 9
 86  6 20  1 48 35.0800000  0  4G 6G13G 9G11
  22797111.296    22797112.021    24142545.943 9  -5300834.036 8
  20577009.863    20577010.344   -12741132.727 9  10170392.078 8
  20211416.941    20211418.170    -6795256.863 8   7071406.497 7
  23039375.313    23039378.538    41996428.481 8 -31838247.588 8
 86  6 20  1 48 41.0800000  0  4G 6G13G 9G11
  22801154.584    22801158.048    24163796.379 8  -5284275.263 7
  20576821.953    20576823.894   -12742118.420 9  10169623.509 7
  20212781.304    20212782.610    -6788086.923 9   7076993.465 6
  23042481.293    23042484.908    42012747.515 9 -31825531.457 8
 86  6 20  1 48 47.0800000  0  4G 6G13G 9G11
  22805200.666    22805202.868    24185059.909 9  -5267706.301 8
  20576636.390    20576640.003   -12743087.348 9  10168868.506 8
  20214150.226    20214153.402    -6780891.299 8   7082600.459 7
  23045587.287    23045588.429    42029068.474 8 -31812813.841 9
 86  6 20  1 48 53.0800000  0  4G 6G13G 9G11
  22809249.360    22809250.709    24206336.430 9  -5251127.213 7
  20576456.697    20576456.719   -12744039.488 9  10168126.577 7
  20215524.931    20215526.614    -6773670.040 9   7088227.404 7
  23048692.299    23048695.880    42045391.308 9 -31800094.760 9
 86  6 20  1 48 59.0800000  0  4G 6G13G 9G11
  22813300.902    22813302.603    24227625.958 9  -5234537.986 7
  20576278.404    20576279.455   -12744974.781 9  10167397.781 8
  20216904.290    20216904.903    -6766423.419 9   7093874.124 8
  23051799.787    23051802.682    42061716.077 8 -31787374.160 9
 86  6 20  1 49  5.0800000  0  4G 6G13G 9G11
  22817355.094    22817356.770    24248928.493 9  -5217938.624 7
  20576104.030    20576105.153   -12745893.267 9  10166682.086 9
  20218288.466    20218290.482    -6759151.097 8   7099540.864 7
  23054906.323    23054908.654    42078042.751 9 -31774652.080 9
 86  6 20  1 49 11.0800000  0  4G 6G13G 9G11
  22821410.605    22821413.649    24270243.968 9  -5201329.170 7
  20575932.891    20575933.171   -12746795.023 9  10165979.427 8
  20219678.033    20219678.707    -6751853.291 9   7105227.458 6
  23058013.034    23058015.717    42094371.280 9 -31761928.563 8
 86  6 20  1 49 17.0800000  0  4G 6G13G 9G11
  22825469.039    22825471.398    24291572.352 9  -5184709.682 8
  20575763.585    20575764.861   -12747680.015 9  10165289.827 8
  20221071.129    20221073.102    -6744529.941 9   7110933.963 7
  23061120.912    23061123.982    42110701.607 9 -31749203.634 9
 86  6 20  1 49 23.0800000  0  4G 6G13G 9G11
  22829529.847    22829532.839    24312913.666 9  -5168080.085 8
  20575598.687    20575600.624   -12748548.266 9  10164613.266 8
  20222469.719    20222471.162    -6737180.966 8   7116660.440 7
  23064229.020    23064231.932    42127033.682 9 -31736477.340 9
 86  6 20  1 49 29.0800000  0  4G 6G13G 9G11
  22833593.251    22833595.809    24334267.885 9  -5151440.467 7
  20575436.450    20575437.757   -12749399.778 9  10163949.760 8
  20223873.232    20223872.985    -6729806.449 9   7122406.829 6
  23067336.110    23067340.936    42143367.538 9 -31723749.655 9
 86  6 20  1 49 35.0800000  0  4G 6G13G 9G11
  22837660.327    22837662.223    24355634.993 9  -5134790.777 8
  20575277.931    20575279.012   -12750234.621 9  10163299.237 8
  20225280.935    20225280.919    -6722406.402 8   7128173.090 7
  23070444.529    23070448.415    42159703.241 9 -31711020.553 9
 86  6 20  1 49 41.0800000  0  4G 6G13G 9G11
  22841728.179    22841731.723    24377014.948 9  -5118131.095 7
  20575122.330    20575123.368   -12751052.820 9  10162661.686 8
  20226694.424    20226693.997    -6714980.785 9   7133959.292 6
  23073554.052    23073557.296    42176040.683 8 -31698290.084 9
 86  6 20  1 49 47.0800000  0  4G 6G13G 9G11
  22845799.831    22845801.681    24398407.782 9  -5101461.380 7
  20574969.767    20574971.362   -12751854.261 9  10162037.191 8
  20228113.123    20228113.419    -6707529.645 8   7139765.370 7
                  23076666.903                   -31685558.234 9
 86  6 20  1 49 53.0800000  0  4G 6G13G 9G11
  22849873.629    22849875.548    24419813.339 9  -5084781.724 8
  20574820.549    20574822.503   -12752639.001 9  10161425.717 9
  20229535.401    20229535.895    -6700053.036 8   7145591.316 7
  23079773.462    23079775.780    42155857.352 1 -31672825.020 9
 86  6 20  1 49 59.0800000  0  4G 6G13G 9G11
  22853949.692    22853951.361    24441231.824 9  -5068092.006 8
  20574674.682    20574676.046   -12753407.067 9  10160827.230 8
  20230963.395    20230963.806    -6692550.746 9   7151437.240 6
  23082882.459    23082885.500    42172200.081 8 -31660090.440 8
 86  6 20  1 50  5.0800000  0  4G 6G13G 9G11
  22858028.109    22858029.309    24462663.062 9  -5051392.356 8
  20574530.903    20574532.455   -12754158.389 9  10160241.785 9
  20232395.379    20232395.866    -6685022.998 9   7157303.027 6
  23085993.102    23085997.185    42188544.001 8 -31647354.531 9
 86  6 20  1 50 11.0800000  0  4G 6G13G 9G11
  22862108.344    22862110.400    24484107.004 9  -5034682.810 8
  20574390.702    20574393.767   -12754893.107 9  10159669.286 8
  20233833.339    20233834.033    -6677469.775 9   7163188.654 7
  23089102.951    23089107.077    42204890.080 8 -31634617.326 9
 86  6 20  1 50 17.0800000  0  4G 6G13G 9G11
  22866191.103    22866193.660    24505563.699 9  -5017963.312 8
  20574254.848    20574256.344   -12755611.225 9  10159109.722 8
  20235275.384    20235274.936    -6669890.899 8   7169094.256 6
  23092213.849    23092217.914    42221237.887 8 -31621878.790 9
 86  6 20  1 50 23.0800000  0  4G 6G13G 9G11
  22870277.633    22870279.707    24527033.150 9  -5001233.881 7
  20574121.257    20574122.579   -12756312.797 9  10158563.040 8
  20236723.475    20236722.888    -6662286.581 9   7175019.698 7
  23095324.903    23095329.794    42237587.353 8 -31609138.952 9
 86  6 20  1 50 29.0800000  0  4G 6G13G 9G11
  22874365.395    22874368.455    24548515.272 9  -4984494.578 7
  20573991.185    20573991.849   -12756997.766 9  10158029.296 8
  20238174.055    20238175.250    -6654656.782 8   7180964.990 7
  23098436.624    23098440.467    42253938.486 8 -31596397.813 9
 86  6 20  1 50 35.0800000  0  4G 6G13G 9G11
  22878455.027    22878459.419    24570010.024 9  -4967745.428 8
  20573863.861    20573866.157   -12757666.197 9  10157508.441 9
  20239631.017    20239630.687    -6647001.501 8   7186930.139 6
  23101548.822    23101553.437    42270291.304 8 -31583655.348 9
 86  6 20  1 50 41.0800000  0  4G 6G13G 9G11
  22882547.834    22882550.892    24591517.471 9  -4950986.398 8
  20573739.830    20573741.398   -12758317.938 9  10157000.600 9
  20241092.491    20241093.580    -6639320.684 8   7192915.192 7
  23104660.764    23104664.994    42286645.757 8 -31570911.629 9
 86  6 20  1 50 47.0800000  0  4G 6G13G 9G11
  22886642.773    22886647.528    24613037.549 9  -4934217.522 7
  20573618.285    20573620.554   -12758953.087 9  10156505.692 8
  20242559.631    20242558.564    -6631614.402 8   7198920.076 7
  23107773.299    23107776.489    42303001.869 9 -31558166.613 9
 86  6 20  1 50 53.0800000  0  4G 6G13G 9G11
  22890740.703    22890744.376    24634570.202 9  -4917438.843 8
  20573500.721    20573503.777   -12759571.644 9  10156023.686 8
  20244030.084    20244029.217    -6623882.686 8   7204944.794 7
                  23110885.127    42319359.561 8
 86  6 20  1 50 59.0800000  0  4G 6G13G 9G11
  22894841.110    22894844.017    24656115.452 9  -4900650.355 8
  20573386.363    20573388.202   -12760173.661 9  10155554.594 8
  20245505.850    20245506.826    -6616125.479 8   7210989.366 7
  23113998.738    23114005.525    42335718.833 8 -31499490.868 1
 86  6 20  1 51  5.0800000  0  4G 6G13G 9G11
  22898943.101    22898946.639    24677673.281 9  -4883852.057 7
  20573274.408    20573277.590   -12760759.260 9  10155098.287 8
  20246988.006    20246987.384    -6608342.822 9   7217053.779 7
  23117112.582    23117116.650    42352079.655 8 -31486742.203 8
 86  6 20  1 51 11.0800000  0  4G 6G13G 9G11
  22903047.893    22903050.590    24699243.658 9  -4867043.987 8
  20573166.916    20573168.955   -12761328.240 9  10154654.926 8
  20248472.718    20248471.052    -6600534.671 8   7223138.048 7
  23120226.824    23120229.353    42368442.067 8 -31473992.267 9
 86  6 20  1 51 17.0800000  0  4G 6G13G 9G11
  22907155.498    22907157.329    24720826.544 9  -4850226.168 8
  20573060.942    20573063.955   -12761880.709 9  10154224.429 8
  20249963.736    20249961.808    -6592701.152 8   7229242.094 7
  23123339.352    23123344.217    42384806.047 8 -31461241.110 8
 86  6 20  1 51 23.0800000  0  4G 6G13G 9G11
  22911264.784    22911267.014    24742421.937 9  -4833398.604 9
                  20572959.746   -12762416.665 9
  20251458.753    20251458.741    -6584842.124 9   7235366.012 6
  23126455.129    23126458.171    42401171.531 9 -31448488.793 9
 86  6 20  1 51 29.0800000  0  4G 6G13G 9G11
  22915376.387    22915379.350    24764029.816 9  -4816561.314 8
  20572861.041    20572862.161   -12762936.156 9  10200029.524 1
  20252958.109    20252959.187    -6576957.659 9   7241509.747 7
  23129569.840    23129573.238    42417538.571 9 -31435735.268 9
 86  6 20  1 51 35.0800000  0  4G 6G13G 9G11
  22919490.196    22919493.237    24785650.170 9  -4799714.294 7
  20572765.828    20572766.974   -12763439.122 9  10199637.608 7
  20254464.399    20254463.839    -6569047.753 8   7247673.303 7
  23132684.946    23132688.120    42433907.123 8 -31422980.554 9
 86  6 20  1 51 41.0800000  0  4G 6G13G 9G11
  22923607.128    22923610.118    24807282.945 9  -4782857.609 8
  20572672.503    20572674.276   -12763925.633 9  10199258.997 9
  20255974.552    20255974.992    -6561112.369 8   7253856.712 6
  23135799.133    23135802.566    42450277.137 8 -31410224.699 9
 86  6 20  1 51 47.0800000  0  4G 6G13G 9G11
  22927726.338    22927727.903    24828928.160 9  -4765991.201 1
  20572582.984    20572583.728   -12764395.809 9  10198892.640 8
  20257488.276    20257489.602    -6553151.557 8   7260059.940 7
  23138915.071    23138918.307    42466648.632 8 -31397467.696 9
 86  6 20  1 51 53.0800000  0  4G 6G13G 9G11
  22931846.994    22931848.933    24850585.767 9  -4749115.173 8
  20572495.954    20572497.758   -12764849.611 9  10198539.028 8
  20259007.724    20259010.425    -6545165.345 9   7266282.966 7
  23142030.453    23142034.550    42483021.597 9 -31384709.550 9
 86  6 20  1 51 59.0800000  0  4G 6G13G 9G11
  22935971.301    22935973.403    24872255.786 9  -4732229.458 8
  20572412.675    20572415.250   -12765287.042 9  10198198.180 8
  20260532.920    20260535.163    -6537153.781 9   7272525.741 8
  23145145.588    23145150.726    42499396.033 8 -31371950.246 9
 86  6 20  1 52  5.0800000  0  3G13G 9G11
  20572332.922    20572334.829   -12765708.048 9  10197870.125 8
  20262062.108    20262062.908    -6529116.739 9   7278788.362 8
  23148263.337    23148266.572    42515771.872 9 -31359189.853 9
 86  6 20  1 52 11.0800000  0  2G 9G11
  20263597.342    20263597.973    -6521054.312 4   7285070.755 7
  23151379.485    23151382.841    42532149.192 8 -31346428.326 7
 86  6 20  1 52 17.0800000  0  3G13G 9G11
  20572182.064    20572184.047   -12766500.765 9  10197252.421 8
  20265135.172    20265138.231    -6512966.589 8   7291372.881 6
  23154495.864    23154499.307    42548527.907 8 -31333665.689 9
 86  6 20  1 52 23.0800000  0  4G12G13G 9G11
                  22043628.951   -30892974.395 9
                  20572110.752   -12766872.547 9
  20266678.951    20266681.815    -6504853.322 9   7297694.914 7
  23157612.256    23157616.921    42564908.034 8 -31320901.948 9
 86  6 20  1 52 29.0800000  0  4G12G13G 9G11
                  22040566.471   -30909063.620 9
  20572043.367    20572047.461   -12767227.934 9  10243185.296 1
  20268228.535    20268230.356    -6496714.683 9   7304036.705 7
  23160731.116    23160734.957    42581289.611 9 -31308137.085 9
 86  6 20  1 52 35.0800000  0  4G12G13G 9G11
                  22037536.909   -30925138.881 9
  20571979.011    20571981.546   -12767566.950 9  10242921.146 8
  20269781.032    20269784.188    -6488550.654 8   7310398.282 7
  23163847.819    23163851.553    42597672.571 8 -31295371.144 9
 86  6 20  1 52 41.0800000  0  4G12G13G 9G11
  22034479.620    22034483.954   -30941199.636 9  39329185.828 6
  20571917.518    20571919.593   -12767889.586 9  10242669.252 9
  20271340.289    20271342.924    -6480361.228 9   7316779.642 7
  23166967.696    23166970.340    42614056.871 9 -31282604.170 9
 86  6 20  1 52 47.0800000  0  4G12G13G 9G11
  22031426.954    22031428.759   -30957246.023 9  39316682.153 8
  20571859.761    20571861.172   -12768195.932 9  10242430.544 8
  20272903.712    20272907.671    -6472146.459 8   7323180.750 7
  23170085.076    23170088.625    42630442.511 9 -31269836.145 9
 86  6 20  1 52 53.0800000  0  4G12G13G 9G11
  22028376.407    22028377.682   -30973278.124 9  39304189.609 8
  20571803.732    20571807.037   -12768485.988 9  10242204.542 7
  20274471.733    20274475.415    -6463906.458 9   7329601.550 8
  23173204.381    23173207.034    42646829.440 9 -31257067.111 9
 86  6 20  1 52 59.0800000  0  4G12G13G 9G11
  22025327.862    22025329.494   -30989295.856 9  39291708.256 8
  20571752.422    20571754.397   -12768759.707 9  10241991.250 8
  20276044.802    20276048.056    -6455640.935 9   7336042.210 8
  23176321.402    23176323.938    42663217.721 9 -31244297.014 9
 86  6 20  1 53  5.0800000  0  4G12G13G 9G11
  22022282.894    22022285.011   -31005299.239 9  39279238.096 8
  20571703.204    20571705.608   -12769017.255 9  10241790.562 8
  20277622.132    20277626.139    -6447350.169 9   7342502.536 7
  23179440.764    23179443.660    42679607.261 9 -31231525.955 9
 86  6 20  1 53 11.0800000  0  4G12G13G 9G11
  22019240.273    22019242.544   -31021288.246 9  39266779.127 8
  20571657.028    20571660.460   -12769258.477 9  10241602.596 7
  20279204.951    20279208.616    -6439034.008 9   7348982.673 6
  23182559.674    23182563.020    42695998.125 9 -31218753.855 9
 86  6 20  1 53 17.0800000  0  4G12G13G 9G11
  22016200.027    22016201.545   -31037262.876 9  39254331.365 8
  20571615.120    20571617.189   -12769483.469 9  10241427.285 9
  20280792.441    20280795.102    -6430692.596 8   7355482.461 7
  23185679.593    23185681.711    42712390.253 9 -31205980.757 9
 86  6 20  1 53 23.0800000  0  4G12G13G 9G11
  22013162.869    22013165.390   -31053223.099 9  39241894.838 9
  20571575.626    20571576.293   -12769692.145 9  10241264.693 8
  20282383.928    20282386.880    -6422325.797 9   7362002.045 7
  23188799.132    23188802.050    42728783.684 8 -31193206.664 9
 86  6 20  1 53 29.0800000  0  4G12G13G 9G11
  22010128.407    22010131.470   -31069168.946 9  39229469.492 9
  20571538.677    20571540.869   -12769884.540 9  10241114.768 8
  20283981.245    20283983.622    -6413933.706 8   7368541.354 6
  23191918.443    23191921.311    42745178.367 9 -31180431.588 9
 86  6 20  1 53 35.0800000  0  4G12G13G 9G11
  22007096.488    22007098.650   -31085100.343 9  39217055.415 9
  20571504.882    20571506.236   -12770060.701 9  10240977.514 8
  20285582.519    20285586.080    -6405516.282 8   7375100.370 8
  23195038.054    23195041.741    42761574.297 9 -31167655.543 9
 86  6 20  1 53 41.0800000  0  4G12G13G 9G11
  22004068.375    22004070.338   -31101017.205 9  39204652.675 8
  20571474.469    20571475.762   -12770220.630 9  10240852.902 7
  20287189.712    20287192.582    -6397073.574 8   7381679.107 7
  23198159.019    23198162.351    42777971.489 9 -31154878.518 9
 86  6 20  1 53 47.0800000  0  4G12G13G 9G11
  22001042.097    22001043.998   -31116919.539 9  39192261.247 8
  20571447.076    20571448.294   -12770364.464 9  10240740.819 8
  20288801.308    20288803.939    -6388605.508 9   7388277.604 7
  23201279.609    23201282.015    42794369.854 9 -31142100.572 9
 86  6 20  1 53 53.0800000  0  4G12G13G 9G11
  21998018.565    21998020.996   -31132807.361 9  39179881.127 9
  20571422.695    20571425.079   -12770492.123 9  10240641.343 8
  20290417.368    20290419.173    -6380112.188 9   7394895.771 6
  23204400.429    23204402.691    42810769.387 9 -31129321.714 9
 86  6 20  1 53 59.0800000  0  4G12G13G 9G11
  21994998.238    21995000.269   -31148680.514 9  39167512.426 9
  20571402.073    20571402.751   -12770603.503 9  10240554.567 8
  20292037.828    20292041.394    -6371593.502 9   7401533.714 7
  23207521.160    23207524.398    42827170.180 9 -31116541.878 9
 86  6 20  1 54  5.0800000  0  4G12G13G 9G11
  21991980.687    21991982.229   -31164539.086 9  39155155.114 8
  20571383.299    20571385.294   -12770698.839 9  10240480.281 8
  20293663.239    20293666.158    -6363049.665 8   7408191.256 7
  23210642.015    23210645.954    42843572.115 9 -31103761.152 9
 86  6 20  1 54 11.0800000  0  4G12G13G 9G11
  21988964.680    21988966.554   -31180383.036 9  39142809.174 8
                  20571368.798   -12770777.991 9
  20295293.764    20295295.790    -6354480.546 8   7414868.485 7
  23213763.906    23213767.005    42859975.188 9 -31090979.546 9
 86  6 20  1 54 17.0800000  0  4G12G13G 9G11
  21985953.194    21985955.028   -31196212.331 9  39130474.651 7
  20571356.155    20571358.439   -12770841.071 9  10286634.971 1
  20296928.691    20296931.935    -6345886.107 8   7421565.458 7
  23216885.610    23216888.441    42876379.423 9 -31078197.027 9
 86  6 20  1 54 23.0800000  0  4G12G13G 9G11
  21982943.284    21982945.145   -31212026.896 9  39118151.625 9
  20571347.340    20571349.292   -12770887.974 9  10286598.418 8
  20298568.782    20298571.454    -6337266.273 8   7428282.204 7
  23220007.038    23220009.644    42892784.816 9 -31065413.610 9
 86  6 20  1 54 29.0800000  0  4G12G13G 9G11
  21979937.781    21979938.983   -31227826.856 9  39105839.974 8
  20571340.967    20571343.941   -12770918.865 9  10286574.847 8
  20300213.981    20300216.822    -6328621.414 8   7435018.459 7
  23223129.210    23223132.451    42909191.253 9 -31052629.376 9
 86  6 20  1 54 35.0800000  0  4G12G13G 9G11
  21976933.707    21976935.584   -31243612.102 9  39093539.780 8
  20571338.856    20571340.570   -12770933.656 9  10286563.331 8
  20301862.954    20301866.403    -6319951.277 9   7441774.403 7
  23226252.106    23226254.551    42925598.725 9 -31039844.338 9
 86  6 20  1 54 41.0800000  0  4G12G13G 9G11
  21973932.153    21973934.187   -31259382.652 9  39081251.033 8
  20571338.329    20571341.394   -12770932.329 9  10286564.370 9
  20303518.231    20303520.591    -6311255.962 8   7448549.970 6
  23229373.513    23229377.469    42942007.280 9 -31027058.449 9
 86  6 20  1 54 47.0800000  0  4G12G13G 9G11
  21970934.149    21970935.353   -31275138.477 9  39068973.774 8
  20571342.118    20571344.049   -12770914.855 9  10286577.988 9
  20305178.212    20305181.000    -6302535.414 8   7455345.196 7
  23232496.130    23232499.677    42958416.938 9 -31014271.710 9
 86  6 20  1 54 53.0800000  0  4G12G13G 9G11
  21967938.090    21967939.992   -31290879.542 9  39056708.010 8
  20571349.973    20571350.082   -12770881.279 9  10286604.151 8
  20306841.915    20306845.528    -6293789.643 8   7462160.082 7
  23235619.491    23235622.680    42974827.731 9 -31001484.084 9
 86  6 20  1 54 59.0800000  0  4G12G13G 9G11
  21964945.867    21964947.771   -31306605.683 9  39044453.872 8
  20571356.510    20571359.435   -12770831.636 9  10286642.841 7
  20308512.055    20308514.224    -6285018.592 9   7468994.674 7
  23238742.084    23238746.047    42991239.643 9 -30988695.584 9
 86  6 20  1 55  5.0800000  0  4G12G13G 9G11
  21961955.703    21961957.692   -31322317.059 7  39032211.236 8
  20571369.849    20571372.228   -12770766.044 9  10286693.944 8
  20310185.038    20310189.253    -6276222.467 9   7475848.795 7
  23241865.687    23241868.427    43007652.482 9 -30975906.357 9
 86  6 20  1 55 11.0800000  0  4G12G13G 9G11
  21958968.086    21958970.851   -31338013.575 9  39019980.198 8
  20571385.029    20571388.225   -12770684.378 9  10286757.590 8
  20311864.049    20311865.992    -6267401.069 8   7482722.613 7
  23244988.905    23244991.813    43024066.344 9 -30963116.343 9
 86  6 20  1 55 17.0800000  0  4G12G13G 9G11
  21955984.961    21955986.937   -31353695.276 9  39007760.691 8
  20571403.590    20571405.785   -12770586.786 9  10286833.629 8
  20313548.559    20313550.339    -6258554.548 9   7489616.000 7
  23248112.565    23248115.499    43040481.166 9 -30950325.583 9
 86  6 20  1 55 23.0800000  0  4G12G13G 9G11
  21953002.726    21953005.258   -31369361.910 9  38995552.926 7
  20571425.180    20571427.707   -12770473.086 9  10286922.235 8
  20315236.737    20315239.338    -6249682.780 8   7496529.071 7
  23251236.275    23251239.402    43056897.048 9 -30937533.982 9
 86  6 20  1 55 29.0800000  0  4G12G13G 9G11
  21950024.812    21950027.771   -31385013.646 9  38983356.773 8
  20571449.309    20571452.405   -12770343.505 9  10287023.209 7
  20316929.420    20316930.662    -6240785.886 9   7503461.714 7
  23254360.331    23254362.100    43073313.856 9 -30924741.662 9
 86  6 20  1 55 35.0800000  0  4G12G13G 9G11
  21947048.129    21947050.474   -31400650.468 9  38971172.239 8
  20571477.260    20571479.913   -12770198.020 9  10287136.586 8
  20318626.654    20318629.137    -6231863.804 9   7510413.969 8
  23257484.959    23257487.874    43089731.612 9 -30911948.615 9
 86  6 20  1 55 41.0800000  0  4G12G13G 9G11
  21944075.993    21944079.158   -31416272.257 9  38958999.420 8
  20571507.055    20571510.855   -12770036.537 9  10287262.413 9
  20320330.183    20320333.758    -6222916.597 7   7517385.825 7
  23260609.306    23260612.245    43106150.348 9 -30899154.793 9
 86  6 20  1 55 47.0800000  0  4G12G13G 9G11
  21941106.034    21941108.741   -31431879.078 9  38946838.265 8
  20571542.813    20571545.232   -12769859.133 9  10287400.658 8
  20322036.842    20322039.410    -6213944.212 8   7524377.296 7
  23263733.882    23263736.628    43122570.001 9 -30886360.264 9
 86  6 20  1 55 53.0800000  0  4G12G13G 9G11
  21938138.623    21938142.229   -31447470.892 9  38934688.795 8
  20571579.376    20571580.856   -12769665.774 9  10287551.322 8
  20323748.986    20323751.709    -6204946.740 9   7531388.323 8
  23266858.458    23266862.376    43138990.657 9 -30873564.951 9
 86  6 20  1 55 59.0800000  0  4G12G13G 9G11
  21935174.844    21935177.550   -31463047.613 9  38922551.099 8
  20571619.657    20571621.837   -12769456.509 9  10287714.387 8
  20325465.526    20325470.742    -6195924.002 8   7538419.018 7
  23269983.299    23269985.789    43155412.273 9 -30860768.878 9
 86  6 20  1 56  5.0800000  0  4G12G13G 9G11
  21932212.983    21932217.217   -31478609.322 9  38910425.096 7
                  20571663.740                    10287889.853 8
  20327188.545    20327191.904    -6186876.168 8   7545469.284 6
  23273108.141    23273110.838    43171834.740 9 -30847972.151 9
 86  6 20  1 56 11.0800000  0  4G12G13G 9G11
  21929254.931    21929257.048   -31494155.932 9  38898310.855 7
  20571708.174    20571709.639   -12805580.363 3  10288077.633 9
  20328915.005    20328917.548    -6177803.322 9   7552539.028 7
  23276233.555    23276236.080    43188258.029 9 -30835174.795 8
 86  6 20  1 56 17.0800000  0  4G12G13G 9G11
  21926299.680    21926301.944   -31509687.342 9  38886208.473 7
  20571756.481    20571758.765   -12805323.444 9  10288277.833 9
  20330646.981    20330649.938    -6168705.279 9   7559628.420 8
  23279358.906    23279360.972    43204682.278 9 -30822376.673 9
 86  6 20  1 56 23.0800000  0  4G12G13G 9G11
  21923346.664    21923348.766   -31525203.611 9  38874117.878 9
  20571808.235    20571810.945   -12805050.676 9  10288490.384 8
  20332382.371    20332385.241    -6159582.188 8   7566737.318 8
  23282485.105    23282487.886    43221107.381 9 -30809577.896 9
 86  6 20  1 56 29.0800000  0  4G12G13G 9G11
  21920396.279    21920399.871   -31540704.655 9  38862039.142 7
  20571862.862    20571865.119   -12804762.069 9  10288715.281 8
  20334124.172    20334126.445    -6150433.940 8   7573865.822 8
  23285610.535    23285612.495    43237533.363 9 -30796778.429 9
 86  6 20  1 56 35.0800000  0  4G12G13G 9G11
  21917449.642    21917452.966   -31556190.603 9  38849972.177 8
  20571920.510    20571923.713   -12804457.639 9  10288952.498 8
  20335870.442    20335871.210    -6141260.667 9   7581013.815 7
  23288736.427    23288738.323    43253960.130 9 -30783978.350 9
 86  6 20  1 56 41.0800000  0  4G12G13G 9G11
  21914505.898    21914508.993   -31571661.329 9  38837917.087 8
  20571981.302    20571984.788   -12804137.331 9  10289202.092 9
  20337618.881    20337621.587    -6132062.309 8   7588181.366 8
  23291862.528    23291863.914    43270387.763 9 -30771177.611 9
 86  6 20  1 56 47.0800000  0  4G12G13G 9G11
  21911564.786    21911567.748   -31587116.809 9  38825873.850 9
  20572046.105    20572047.456   -12803801.257 9  10289463.964 8
  20339374.110    20339376.634    -6122838.861 9   7595368.452 7
  23294989.008    23294989.866    43286816.138 9 -30758376.271 9
 86  6 20  1 56 53.0800000  0  4G12G13G 9G11
  21908626.880    21908629.198   -31602557.074 9  38813842.486 7
  20572113.565    20572115.986   -12803449.376 9  10289738.154 8
  20341133.456    20341137.197    -6113590.478 8   7602574.986 7
  23298115.429    23298116.802    43303245.334 9 -30745574.296 8
 86  6 20  1 56 59.0800000  0  4G12G13G 9G11
  21905691.576    21905694.112   -31617982.072 9  38801823.009 9
  20572183.142    20572185.502   -12803081.718 9  10290024.649 8
  20342897.114    20342901.593    -6104317.035 8   7609801.039 7
  23301241.149    23301243.920    43319675.340 9 -30732771.695 9
 86  6 20  1 57  5.0800000  0  4G12G13G 9G11
  21902759.452    21902760.915   -31633391.830 9  38789815.407 8
  20572256.187    20572257.853   -12802698.306 9  10290323.411 8
  20344667.479    20344670.848    -6095018.579 8   7617046.586 7
  23304367.203    23304369.911    43336106.085 9 -30719968.517 8
 86  6 20  1 57 11.0800000  0  4G12G13G 9G11
  21899830.132    21899832.562   -31648786.235 9  38777819.767 8
  20572332.215    20572334.184   -12802299.099 9  10290634.482 8
  20346441.590    20346444.810    -6085695.132 8   7624311.602 8
  23307495.206    23307496.795    43352537.602 9 -30707164.750 9
 86  6 20  1 57 17.0800000  0  4G12G13G 9G11
  21896902.645    21896905.161   -31664165.312 9  38765836.088 8
  20572411.431    20572413.920   -12801884.201 9  10290957.782 9
  20348220.748    20348224.003    -6076346.651 8   7631596.135 7
  23310621.657    23310623.481    43368969.808 9 -30694360.439 9
 86  6 20  1 57 23.0800000  0  4G12G13G 9G11
  21893979.790    21893981.777   -31679528.980 9  38753864.405 8
  20572493.440    20572495.909   -12801453.557 9  10291293.347 8
  20350004.991    20350007.709    -6066973.111 8   7638900.182 7
  23313748.924    23313751.576    43385402.691 9 -30681555.590 9
 86  6 20  1 57 29.0800000  0  4G12G13G 9G11
  21891058.798    21891060.786   -31694877.253 9  38741904.722 8
  20572578.871    20572581.833   -12801007.172 9  10291641.186 8
  20351792.903    20351796.743    -6057574.665 8   7646223.649 7
  23316876.504    23316878.335    43401836.305 9 -30668750.179 9
 86  6 20  1 57 35.0800000  0  4G12G13G 9G11
  21888141.322    21888142.869   -31710210.059 9  38729957.085 9
  20572666.466    20572668.212   -12800545.024 9  10292001.306 9
  20353586.570    20353588.318    -6048151.174 9   7653566.620 7
  23320003.651    23320005.323    43418270.668 9 -30655944.191 9
 86  6 20  1 57 41.0800000  0  4G12G13G 9G11
  21885227.456    21885228.427   -31725527.436 9  38718021.468 8
  20572757.530    20572759.985   -12800067.109 9  10292373.709 8
  20355384.261    20355386.710    -6038702.684 8   7660929.073 8
  23323131.589    23323133.026    43434705.726 9 -30643137.648 9
 86  6 20  1 57 47.0800000  0  4G12G13G 9G11
  21882315.479    21882315.250   -31740829.297 9  38706097.952 8
  20572851.112    20572853.447   -12799573.498 9  10292758.337 8
  20357187.918    20357189.949    -6029229.147 9   7668311.056 8
  23326258.985    23326261.486    43451141.497 9 -30630330.544 9
 86  6 20  1 57 53.0800000  0  4G12G13G 9G11
  21879406.476    21879407.652   -31756115.690 9  38694186.474 8
  20572948.255    20572950.685   -12799064.273 9  10293155.146 8
  20358996.256    20358996.693    -6019730.730 8   7675712.404 8
  23329386.017    23329388.903    43467577.966 9 -30617522.922 9
 86  6 20  1 57 59.0800000  0  4G12G13G 9G11
  21876500.793    21876502.368   -31771386.574 9  38682287.086 8
  20573047.721    20573050.737   -12798539.399 9  10293564.140 8
  20360807.258    20360808.373    -6010207.346 1   7683133.237 7
  23332514.318    23332515.643    43484015.057 9 -30604714.797 9
 86  6 20  1 58  5.0800000  0  4G12G13G 9G11
  21873598.317    21873599.190   -31786641.940 9  38670399.802 7
  20573150.072    20573153.402   -12797999.005 9  10293985.237 8
  20362624.889    20362626.080    -6000658.962 9   7690573.531 8
  23335641.894    23335644.497    43500452.732 9 -30591906.217 9
 86  6 20  1 58 11.0800000  0  4G12G13G 9G11
  21870698.129    21870699.201   -31801881.731 9  38658524.636 8
  20573256.497    20573259.405   -12797443.011 9  10294418.476 9
  20364447.395    20364448.131    -5991085.701 9   7698033.201 8
  23338770.076    23338771.879    43516891.078 9 -30579097.121 8
 86  6 20  1 58 17.0800000  0  4G12G13G 9G11
  21867800.804    21867802.235   -31817105.931 9  38646661.637 8
  20573365.694    20573367.340   -12796871.460 9  10294863.852 9
  20366274.049    20366274.957    -5981487.590 8   7705511.969 7
  23341898.040    23341901.070    43533330.060 9 -30566287.537 9
 86  6 20  1 58 23.0800000  0  4G12G13G 9G11
  21864906.796    21864908.186   -31832314.495 9  38634810.810 8
  20573476.458    20573478.602   -12796284.299 9  10295321.376 8
                  20368104.399    -5971864.509 9
  23345026.705    23345029.344    43549769.650 9 -30553477.458 9
 86  6 20  1 58 29.0800000  0  4G12G13G 9G11
  21862015.881    21862016.502   -31847507.429 8  38622972.171 8
  20573592.489    20573593.831   -12795681.535 9  10295791.066 8
  20369940.060    20369939.535    -5962216.474 9   7759265.195 2
  23348154.944    23348158.229    43566209.825 9 -30540666.939 9
 86  6 20  1 58 35.0800000  0  4G12G13G 9G11
  21859127.857    21859129.631   -31862684.667 9  38611145.752 8
  20573710.156    20573710.565   -12795063.200 9  10296272.884 8
  20371781.636    20371783.161    -5952543.511 8   7766802.563 7
  23351283.293    23351287.291    43582650.598 9 -30527855.949 9
 86  6 20  1 58 41.0800000  0  4G12G13G 9G11
  21856242.779    21856243.478   -31877846.189 9  38599331.588 9
  20573829.884    20573832.208   -12794429.292 9  10296766.846 9
  20373626.226    20373628.044    -5942845.734 8   7774359.772 8
  23354411.735    23354414.875    43599091.963 9 -30515044.498 9
 86  6 20  1 58 47.0800000  0  4G12G13G 9G11
  21853360.310    21853360.939   -31892991.975 9  38587529.684 8
  20573954.300    20573955.923   -12793779.833 9  10297272.923 8
  20375476.613    20375478.300    -5933122.990 8   7781935.940 8
  23357540.624    23357543.730    43615533.842 9 -30502232.645 9
 86  6 20  1 58 53.0800000  0  4G12G13G 9G11
  21850481.297    21850482.328   -31908122.035 9  38575740.034 8
  20574080.393    20574082.805   -12793114.770 9  10297791.144 8
  20377331.223    20377333.134    -5923375.250 7   7789531.564 8
  23360670.529    23360672.260    43631976.285 9 -30489420.363 9
 86  6 20  1 58 59.0800000  0  4G12G13G 9G11
  21847604.577    21847606.449   -31923236.288 9  38563962.702 7
  20574210.228    20574212.449   -12792434.218 9  10298321.448 9
  20379192.043    20379193.511    -5913602.575 8   7797146.641 7
  23363798.211    23363801.241    43648419.305 9 -30476607.624 9
 86  6 20  1 59  5.0800000  0  4G12G13G 9G11
  21844731.406    21844733.596   -31938334.806 9  38552197.633 8
  20574342.033    20574344.106   -12791738.201 9  10298863.803 8
  20381055.959    20381056.740    -5903805.237 9   7804780.921 7
  23366927.933    23366930.395    43664862.775 9 -30463794.526 9
 86  6 20  1 59 11.0800000  0  4G12G13G 9G11
  21841861.381    21841863.944   -31953417.507 9  38540444.884 8
  20574477.833    20574480.063   -12791026.654 9  10299418.247 8
  20382926.382    20382926.593    -5893983.008 9   7812434.607 7
  23370057.042    23370059.899    43681306.780 9 -30450981.018 9
 86  6 20  1 59 17.0800000  0  4G12G13G 9G11
  21838993.878    21838994.968   -31968484.337 9  38528704.508 8
  20574616.117    20574617.975   -12790299.625 9  10299984.769 8
  20384799.002    20384800.048    -5884135.886 9   7820107.695 7
  23373186.795    23373188.412    43697751.330 9 -30438167.099 9
 86  6 20  1 59 23.0800000  0  4G12G13G 9G11
  21836130.092    21836132.409   -31983535.335 9  38516976.466 8
  20574757.023    20574759.959   -12789557.137 9  10300563.323 8
                  20386678.152    -5874263.993 9
  23376315.814    23376317.947    43714196.298 9 -30425352.839 9
 86  6 20  1 59 29.0800000  0  4G12G13G 9G11
  21833269.511    21833270.641   -31998570.458 9  38505260.804 8
  20574901.220    20574903.884   -12788799.194 9  10301153.929 8
  20388560.372    20388561.153    -5864367.340 8   7878463.728 7
  23379444.792    23379448.248    43730641.717 9 -30412538.229 9
 86  6 20  1 59 35.0800000  0  4G12G13G 9G11
  21830411.478    21830412.981   -32013589.628 9  38493557.557 7
  20575049.120    20575051.641   -12788025.807 9  10301756.566 8
  20390448.640    20390449.111    -5854445.856 9   7886194.768 8
  23382574.450    23382576.829    43747087.650 9 -30399723.220 8
 86  6 20  1 59 41.0800000  0  4G12G13G 9G11
  21827556.164    21827557.315   -32028592.895 9  38481866.712 9
  20575198.393    20575201.939   -12787236.994 9  10302371.233 8
  20392340.912    20392342.123    -5844499.543 8   7893945.132 7
  23385704.255    23385706.166    43763534.043 9 -30386907.856 8
 86  6 20  1 59 47.0800000  0  4G12G13G 9G11
  21824704.600    21824705.801   -32043580.313 9  38470188.204 9
  20575350.477    20575354.712   -12786432.802 9  10302997.885 8
  20394238.021    20394239.072    -5834528.464 9   7901714.801 8
  23388833.896    23388836.139    43779980.838 9 -30374092.179 8
 86  6 20  1 59 53.0800000  0  4G12G13G 9G11
  21821855.639    21821856.442   -32058551.808 9  38458522.118 8
  20575507.512    20575510.376   -12785613.216 9  10303636.523 8
  20396141.037    20396141.238    -5824532.599 9   7909503.782 7
  23391964.019    23391967.157    43796428.013 9 -30361276.199 9
 86  6 20  1 59 59.0800000  0  4G12G13G 9G11
  21819009.428    21819010.771   -32073507.257 9  38446868.526 9
  20575666.103    20575668.490   -12784778.271 9  10304287.130 9
  20398047.573    20398048.356    -5814512.012 9   7917312.028 7
  23395094.033    23395096.707    43812875.622 9 -30348459.891 9
 86  6 20  2  0  5.0800000  0  4G12G13G 9G11
  21816165.963    21816168.640   -32088446.625 9  38435227.468 8
  20575828.461    20575830.596   -12783927.958 9  10304949.715 8
  20399959.306    20399959.471    -5804466.673 9   7925139.568 7
  23398224.005    23398226.239    43829323.582 9 -30335643.302 9
 86  6 20  2  0 11.0800000  0  4G12G13G 9G11
  21813326.645    21813328.261   -32103369.883 9  38423598.967 9
  20575992.628    20575995.948   -12783062.305 9  10305624.253 9
                  20401874.659    -5794396.627 8
  23401353.115    23401357.336    43845771.894 9 -30322826.440 8
 86  6 20  2  0 17.0800000  0  4G12G13G 9G11
  21810490.190    21810491.293   -32118277.034 9  38411983.020 9
  20576160.561    20576162.887   -12782181.306 9  10306310.754 8
  20403795.963    20403797.178    -5784301.810 8   7979098.460 1
  23404483.899    23404487.108    43862220.607 9 -30310009.267 9
 86  6 20  2  0 23.0800000  0  4G12G13G 9G11
  21807656.226    21807658.084   -32133168.116 9  38400379.587 9
  20576330.651    20576332.631   -12781284.981 9  10307009.190 8
  20405721.756    20405723.551    -5774182.281 8   7986983.785 7
  23407613.991    23407616.678    43878669.660 9 -30297191.829 9
 86  6 20  2  0 29.0800000  0  4G12G13G 9G11
  21804825.553    21804826.467   -32148043.070 9  38388788.713 8
  20576504.548    20576506.248   -12780373.317 9  10307719.582 8
  20407651.525    20407652.583    -5764038.031 8   7994888.394 8
  23410744.785    23410746.957    43895119.088 9 -30284374.102 9
 86  6 20  2  0 35.0800000  0  4G12G13G 9G11
  21801998.227    21801999.886   -32162901.835 9  38377210.472 9
  20576680.528    20576684.317   -12779446.375 9  10308441.877 9
  20409587.228    20409588.519    -5753869.089 8   8002812.248 9
  23413874.939    23413877.560    43911568.846 9 -30271556.111 9
